[[{"header":{"parameterUnit":"m.s-1","parameterCategory":1,"la1":31.0,"la2":29.5877,"lo1":-88.7671,"lo2":-86.6584,"dy":0.0162,"dx":0.0185,"nx":115,"ny":88,"refTime":"2023-04-29T12:00:00:Z","depth":0,"parameterNumber":2,"parameterNumberName":"U-component_of_WINDS"},"data":[0.0,0.0,0.0,0.0,0.0,0.0,0.0,0.0,0.0,0.0,0.0,0.0,0.0,0.0,0.0,0.0,0.0,0.0,0.0,0.0,0.0,0.0,0.0,0.0,0.0,0.0,0.0,0.0,0.0,0.0,0.0,0.0,0.0,0.0,0.0,0.0,0.0,0.0,0.0,0.0,0.0,0.0,0.0,0.0,0.0,0.0,0.0,0.0,0.0,0.0,0.0,0.0,0.0,0.0,0.0,0.0,0.0,0.0,0.0,0.0,0.0,0.0,0.0,0.0,0.0,0.0,0.0,0.0,0.0,0.0,0.0,0.0,0.0,0.0,0.0,0.0,0.0,0.0,0.0,0.0,0.0,0.0,0.0,0.0,0.0,0.0,0.0,0.0,0.0,0.0,0.0,0.0,0.0,0.0,0.0,0.0,0.0,0.0,0.0,0.0,0.0,0.0,0.0,0.0,0.0,0.0,0.0,0.0,0.0,0.0,0.0,0.0,0.0,0.0,0.0,0.0,0.0,0.0,0.0,0.0,0.0,0.0,0.0,0.0,0.0,0.0,0.0,0.0,0.0,0.0,0.0,0.0,0.0,0.0,0.0,0.0,0.0,0.0,0.0,0.0,0.0,0.0,0.0,0.0,0.0,0.0,0.0,0.0,0.0,0.0,0.0,0.0,0.0,0.0,0.0,0.0,0.0,0.0,0.0,0.0,0.0,0.0,0.0,0.0,0.0,0.0,0.0,0.0,0.0,0.0,0.0,0.0,0.0,0.0,0.0,0.0,0.0,0.0,0.0,0.0,0.0,0.0,0.0,0.0,0.0,0.0,0.0,0.0,0.0,0.0,0.0,0.0,0.0,0.0,0.0,0.0,0.0,0.0,0.0,0.0,0.0,0.0,0.0,0.0,0.0,0.0,0.0,0.0,0.0,0.0,0.0,0.0,0.0,0.0,0.0,0.0,0.0,0.0,0.0,0.0,0.0,0.0,0.0,0.0,0.0,0.0,0.0,0.0,0.0,0.0,0.0,0.0,0.0,0.0,0.0,0.0,0.0,0.0,0.0,0.0,0.0,0.0,0.0,0.0,0.0,0.0,0.0,0.0,0.0,0.0,0.0,0.0,0.0,0.0,0.0,0.0,0.0,0.0,0.0,0.0,0.0,0.0,0.0,0.0,0.0,0.0,0.0,0.0,0.0,0.0,0.0,0.0,0.0,0.0,0.0,0.0,0.0,0.0,0.0,0.0,0.0,0.0,0.0,0.0,0.0,0.0,0.0,0.0,0.0,0.0,0.0,0.0,0.0,0.0,0.0,0.0,0.0,0.0,0.0,0.0,0.0,0.0,0.0,0.0,0.0,0.0,0.0,0.0,0.0,0.0,0.0,0.0,0.0,0.0,0.0,0.0,0.0,0.0,0.0,0.0,0.0,0.0,0.0,0.0,0.0,0.0,0.0,0.0,0.0,0.0,0.0,0.0,0.0,0.0,0.0,0.0,0.0,0.0,0.0,0.0,0.0,0.0,0.0,0.0,0.0,0.0,0.0,0.0,0.0,0.0,0.0,0.0,0.0,0.0,0.0,0.0,0.0,0.0,0.0,0.0,0.0,0.0,0.0,0.0,0.0,0.0,0.0,0.0,0.0,0.0,0.0,0.0,0.0,0.0,0.0,0.0,0.0,0.0,0.0,0.0,0.0,0.0,0.0,0.0,0.0,0.0,0.0,0.0,0.0,0.0,0.0,0.0,0.0,0.0,0.0,0.0,0.0,0.0,0.0,0.0,0.0,0.0,0.0,0.0,0.0,0.0,0.0,0.0,0.0,0.0,0.0,0.0,0.0,0.0,0.0,0.0,0.0,0.0,0.0,0.0,0.0,0.0,0.0,0.0,0.0,0.0,0.0,0.0,0.0,0.0,0.0,0.0,0.0,0.0,0.0,0.0,0.0,0.0,0.0,0.0,0.0,0.0,0.0,0.0,0.0,0.0,0.0,0.0,0.0,0.0,0.0,0.0,0.0,0.0,0.0,0.0,0.0,0.0,0.0,0.0,0.0,0.0,0.0,0.0,0.0,0.0,0.0,0.0,0.0,0.0,0.0,0.0,0.0,0.0,0.0,0.0,0.0,0.0,0.0,0.0,0.0,0.0,0.0,0.0,0.0,0.0,0.0,0.0,0.0,0.0,0.0,0.0,0.0,0.0,0.0,0.0,0.0,0.0,0.0,0.0,0.0,0.0,0.0,0.0,0.0,0.0,0.0,0.0,0.0,0.0,0.0,0.0,0.0,0.0,0.0,0.0,0.0,0.0,0.0,0.0,0.0,0.0,0.0,0.0,0.0,0.0,0.0,0.0,0.0,0.0,0.0,0.0,0.0,0.0,0.0,0.0,0.0,0.0,0.0,0.0,0.0,0.0,0.0,0.0,0.0,0.0,0.0,0.0,0.0,0.0,0.0,0.0,0.0,0.0,0.0,0.0,0.0,0.0,0.0,0.0,0.0,0.0,0.0,0.0,0.0,0.0,0.0,0.0,0.0,0.0,0.0,0.0,0.0,0.0,0.0,0.0,0.0,0.0,0.0,0.0,0.0,0.0,0.0,0.0,0.0,0.0,0.0,0.0,0.0,0.0,0.0,0.0,0.0,0.0,0.0,0.0,0.0,0.0,0.0,0.0,0.0,0.0,0.0,0.0,0.0,0.0,0.0,0.0,0.0,0.0,0.0,0.0,0.0,0.0,0.0,0.0,0.0,0.0,0.0,0.0,0.0,0.0,0.0,0.0,0.0,0.0,0.0,0.0,0.0,0.0,0.0,0.0,0.0,0.0,0.0,0.0,0.0,0.0,0.0,0.0,0.0,0.0,0.0,0.0,0.0,0.0,0.0,0.0,0.0,0.0,0.0,0.0,0.0,0.0,0.0,0.0,0.0,0.0,0.0,0.0,0.0,0.0,0.0,0.0,0.0,0.0,0.0,0.0,0.0,0.0,0.0,0.0,0.0,0.0,0.0,0.0,0.0,0.0,0.0,0.0,0.0,0.0,0.0,0.0,0.0,0.0,0.0,0.0,0.0,0.0,0.0,0.0,0.0,0.0,0.0,0.0,0.0,0.0,0.0,0.0,0.0,0.0,0.0,0.0,0.0,0.0,0.0,0.0,0.0,0.0,0.0,0.0,0.0,0.0,0.0,0.0,0.0,0.0,0.0,0.0,0.0,0.0,0.0,0.0,0.0,0.0,0.0,0.0,0.0,0.0,0.0,0.0,0.0,0.0,0.0,0.0,0.0,0.0,0.0,0.0,0.0,0.0,0.0,0.0,0.0,0.0,0.0,0.0,0.0,0.0,0.0,0.0,0.0,0.0,0.0,0.0,0.0,0.0,0.0,0.0,0.0,0.0,0.0,0.0,0.0,0.0,0.0,0.0,0.0,0.0,0.0,0.0,0.0,0.0,0.0,0.0,0.0,0.0,0.0,0.0,0.0,0.0,0.0,0.0,0.0,0.0,0.0,0.0,0.0,0.0,0.0,0.0,0.0,0.0,0.0,0.0,0.0,0.0,0.0,0.0,0.0,0.0,0.0,0.0,0.0,0.0,0.0,0.0,0.0,0.0,0.0,0.0,0.0,0.0,0.0,0.0,0.0,0.0,0.0,0.0,0.0,0.0,0.0,0.0,0.0,0.0,0.0,0.0,0.0,0.0,0.0,0.0,0.0,0.0,0.0,0.0,0.0,0.0,0.0,0.0,0.0,0.0,0.0,0.0,0.0,0.0,0.0,0.0,0.0,0.0,0.0,0.0,0.0,0.0,0.0,0.0,0.0,0.0,0.0,0.0,0.0,0.0,0.0,0.0,0.0,0.0,0.0,0.0,0.0,0.0,0.0,0.0,0.0,0.0,0.0,0.0,0.0,0.0,0.0,0.0,0.0,0.0,0.0,0.0,0.0,0.0,0.0,0.0,0.0,0.0,0.0,0.0,0.0,0.0,0.0,0.0,0.0,0.0,0.0,0.0,0.0,0.0,0.0,0.0,0.0,0.0,0.0,0.0,0.0,0.0,0.0,0.0,0.0,0.0,0.0,0.0,0.0,0.0,0.0,0.0,0.0,0.0,0.0,0.0,0.0,0.0,0.0,0.0,0.0,0.0,0.0,0.0,0.0,0.0,0.0,0.0,0.0,0.0,0.0,0.0,0.0,0.0,0.0,0.0,0.0,0.0,0.0,0.0,0.0,0.0,0.0,0.0,0.0,0.0,0.0,0.0,0.0,0.0,0.0,0.0,0.0,0.0,0.0,0.0,0.0,0.0,3.3886,0.0,0.0,0.0,0.0,0.0,0.0,0.0,0.0,0.0,0.0,0.0,0.0,0.0,0.0,0.0,0.0,0.0,0.0,0.0,0.0,0.0,0.0,0.0,0.0,0.0,0.0,0.0,0.0,0.0,0.0,0.0,0.0,0.0,0.0,0.0,0.0,0.0,0.0,0.0,0.0,0.0,0.0,0.0,0.0,0.0,0.0,0.0,0.0,0.0,0.0,0.0,0.0,0.0,0.0,0.0,0.0,0.0,0.0,0.0,0.0,0.0,0.0,0.0,0.0,0.0,0.0,0.0,0.0,0.0,0.0,0.0,0.0,0.0,0.0,0.0,0.0,0.0,0.0,0.0,0.0,0.0,0.0,0.0,0.0,0.0,0.0,0.0,0.0,0.0,0.0,0.0,0.0,0.0,0.0,0.0,0.0,0.0,0.0,0.0,0.0,0.0,0.0,0.0,0.0,0.0,0.0,0.0,0.0,0.0,0.0,3.4755,3.4755,3.432,3.4072,3.4072,0.0,0.0,0.0,0.0,0.0,0.0,0.0,0.0,0.0,0.0,0.0,0.0,0.0,0.0,0.0,0.0,0.0,0.0,0.0,0.0,0.0,0.0,0.0,0.0,0.0,0.0,0.0,0.0,0.0,0.0,0.0,0.0,0.0,0.0,0.0,0.0,0.0,0.0,0.0,0.0,0.0,0.0,0.0,0.0,0.0,0.0,0.0,0.0,0.0,0.0,0.0,0.0,0.0,0.0,0.0,0.0,0.0,0.0,0.0,0.0,0.0,0.0,0.0,0.0,0.0,0.0,0.0,0.0,0.0,0.0,0.0,0.0,0.0,0.0,0.0,0.0,0.0,0.0,0.0,0.0,0.0,0.0,0.0,0.0,0.0,0.0,0.0,0.0,0.0,0.0,0.0,0.0,0.0,0.0,0.0,0.0,0.0,0.0,0.0,0.0,0.0,0.0,0.0,0.0,0.0,0.0,0.0,0.0,0.0,0.0,0.0,0.0,3.4569,3.4383,3.4383,0.0,0.0,0.0,0.0,0.0,0.0,0.0,0.0,0.0,0.0,0.0,0.0,0.0,0.0,0.0,0.0,0.0,0.0,0.0,0.0,0.0,0.0,0.0,0.0,0.0,0.0,0.0,0.0,0.0,0.0,0.0,0.0,0.0,0.0,0.0,0.0,0.0,0.0,0.0,0.0,0.0,0.0,0.0,0.0,0.0,0.0,0.0,0.0,0.0,0.0,0.0,0.0,0.0,0.0,0.0,0.0,0.0,0.0,0.0,0.0,0.0,0.0,0.0,0.0,0.0,0.0,0.0,0.0,0.0,0.0,0.0,0.0,0.0,0.0,0.0,0.0,0.0,0.0,0.0,0.0,0.0,0.0,0.0,0.0,0.0,0.0,0.0,0.0,0.0,0.0,0.0,0.0,0.0,0.0,0.0,0.0,0.0,0.0,0.0,0.0,0.0,0.0,0.0,0.0,0.0,0.0,0.0,0.0,0.0,0.0,3.5376,3.5355,3.5314,0.0,3.5314,0.0,0.0,0.0,0.0,0.0,0.0,0.0,0.0,0.0,0.0,0.0,0.0,0.0,0.0,0.0,0.0,0.0,0.0,0.0,0.0,0.0,0.0,0.0,0.0,0.0,0.0,0.0,0.0,0.0,0.0,0.0,0.0,0.0,0.0,0.0,0.0,0.0,0.0,0.0,0.0,0.0,0.0,0.0,0.0,0.0,0.0,0.0,0.0,0.0,0.0,0.0,0.0,0.0,0.0,0.0,0.0,0.0,0.0,0.0,0.0,0.0,0.0,0.0,0.0,0.0,0.0,0.0,0.0,0.0,0.0,0.0,0.0,0.0,0.0,0.0,0.0,0.0,0.0,0.0,0.0,0.0,0.0,0.0,0.0,0.0,0.0,0.0,0.0,0.0,0.0,0.0,0.0,0.0,0.0,0.0,0.0,0.0,0.0,0.0,0.0,0.0,0.0,0.0,0.0,0.0,0.0,0.0,0.0,0.0,0.0,3.5418,3.5418,3.5418,3.5418,0.0,0.0,0.0,0.0,0.0,0.0,0.0,0.0,0.0,0.0,0.0,0.0,0.0,0.0,0.0,0.0,0.0,0.0,0.0,0.0,0.0,0.0,0.0,0.0,0.0,0.0,0.0,0.0,0.0,0.0,0.0,0.0,0.0,0.0,0.0,0.0,0.0,0.0,0.0,0.0,0.0,0.0,0.0,0.0,0.0,0.0,0.0,0.0,0.0,0.0,0.0,0.0,0.0,0.0,0.0,0.0,0.0,0.0,0.0,0.0,0.0,0.0,0.0,0.0,0.0,0.0,0.0,0.0,0.0,0.0,0.0,0.0,0.0,0.0,0.0,0.0,0.0,0.0,0.0,0.0,0.0,0.0,0.0,0.0,0.0,0.0,0.0,0.0,0.0,0.0,0.0,0.0,0.0,0.0,0.0,0.0,0.0,0.0,0.0,0.0,0.0,0.0,0.0,0.0,0.0,0.0,0.0,0.0,0.0,0.0,3.5418,3.5418,3.5418,3.5418,3.5418,3.5418,0.0,0.0,0.0,0.0,0.0,0.0,0.0,0.0,0.0,0.0,0.0,0.0,0.0,0.0,0.0,0.0,0.0,0.0,0.0,0.0,0.0,0.0,0.0,0.0,0.0,0.0,0.0,0.0,0.0,0.0,0.0,0.0,0.0,0.0,0.0,0.0,0.0,0.0,0.0,0.0,0.0,0.0,0.0,0.0,0.0,0.0,0.0,0.0,0.0,0.0,0.0,0.0,0.0,0.0,0.0,0.0,0.0,0.0,0.0,0.0,0.0,0.0,0.0,0.0,0.0,0.0,0.0,0.0,0.0,0.0,0.0,0.0,0.0,0.0,0.0,0.0,0.0,0.0,0.0,0.0,0.0,0.0,0.0,0.0,0.0,0.0,0.0,0.0,0.0,0.0,0.0,0.0,0.0,0.0,0.0,0.0,0.0,0.0,0.0,0.0,0.0,0.0,0.0,0.0,0.0,0.0,0.0,0.0,3.5418,3.5418,3.5418,3.5418,3.5418,3.5418,0.0,0.0,0.0,0.0,0.0,0.0,0.0,0.0,0.0,0.0,0.0,0.0,0.0,0.0,0.0,0.0,0.0,0.0,0.0,0.0,0.0,0.0,0.0,0.0,0.0,0.0,0.0,0.0,0.0,0.0,0.0,0.0,0.0,0.0,0.0,0.0,0.0,0.0,0.0,0.0,0.0,0.0,0.0,0.0,0.0,0.0,0.0,0.0,0.0,0.0,0.0,0.0,0.0,0.0,0.0,0.0,0.0,0.0,0.0,0.0,0.0,0.0,0.0,0.0,0.0,0.0,0.0,0.0,0.0,0.0,0.0,0.0,0.0,0.0,0.0,0.0,0.0,0.0,0.0,0.0,0.0,0.0,0.0,0.0,0.0,0.0,0.0,0.0,0.0,0.0,0.0,0.0,0.0,0.0,0.0,0.0,0.0,0.0,0.0,0.0,0.0,0.0,0.0,0.0,0.0,0.0,0.0,0.0,0.0,3.5418,3.5418,3.5418,3.5418,3.5418,3.5418,0.0,0.0,0.0,0.0,0.0,0.0,0.0,0.0,0.0,0.0,0.0,0.0,0.0,0.0,0.0,0.0,0.0,0.0,0.0,0.0,0.0,0.0,0.0,0.0,0.0,0.0,0.0,0.0,0.0,0.0,0.0,0.0,0.0,0.0,0.0,0.0,0.0,0.0,0.0,0.0,0.0,0.0,0.0,0.0,0.0,0.0,0.0,0.0,0.0,0.0,0.0,0.0,0.0,0.0,0.0,0.0,0.0,0.0,0.0,0.0,0.0,0.0,0.0,0.0,0.0,0.0,0.0,0.0,0.0,0.0,0.0,0.0,0.0,0.0,0.0,0.0,0.0,0.0,0.0,0.0,0.0,0.0,0.0,0.0,0.0,0.0,0.0,0.0,0.0,0.0,0.0,0.0,0.0,0.0,0.0,0.0,0.0,0.0,0.0,0.0,0.0,0.0,0.0,0.0,0.0,0.0,0.0,0.0,0.0,3.5418,0.0,3.5418,3.5418,3.5418,3.5418,0.0,0.0,0.0,0.0,0.0,0.0,0.0,0.0,0.0,0.0,0.0,0.0,0.0,0.0,0.0,0.0,0.0,0.0,0.0,0.0,0.0,0.0,0.0,0.0,0.0,0.0,0.0,0.0,0.0,0.0,0.0,0.0,0.0,0.0,0.0,0.0,0.0,0.0,0.0,0.0,0.0,0.0,0.0,0.0,0.0,0.0,0.0,0.0,0.0,0.0,0.0,0.0,0.0,0.0,0.0,0.0,0.0,0.0,0.0,0.0,0.0,0.0,0.0,0.0,0.0,0.0,0.0,0.0,0.0,0.0,0.0,0.0,0.0,0.0,0.0,0.0,0.0,0.0,0.0,0.0,0.0,0.0,0.0,0.0,0.0,0.0,0.0,0.0,0.0,0.0,0.0,0.0,0.0,0.0,0.0,0.0,0.0,0.0,0.0,0.0,0.0,0.0,0.0,0.0,0.0,0.0,0.0,0.0,3.5438,3.5438,3.5459,3.5603,3.5438,3.5583,3.5438,0.0,0.0,0.0,0.0,0.0,0.0,0.0,0.0,0.0,0.0,0.0,0.0,0.0,0.0,0.0,0.0,0.0,0.0,0.0,0.0,0.0,0.0,0.0,0.0,0.0,0.0,0.0,0.0,0.0,0.0,0.0,0.0,0.0,0.0,0.0,0.0,0.0,0.0,0.0,0.0,0.0,0.0,0.0,0.0,0.0,0.0,0.0,0.0,0.0,0.0,0.0,0.0,0.0,0.0,0.0,0.0,0.0,0.0,0.0,0.0,0.0,0.0,0.0,0.0,0.0,0.0,0.0,0.0,0.0,0.0,0.0,0.0,0.0,0.0,0.0,0.0,0.0,0.0,0.0,0.0,0.0,0.0,0.0,0.0,0.0,0.0,0.0,0.0,0.0,0.0,0.0,0.0,0.0,0.0,0.0,0.0,0.0,0.0,0.0,0.0,0.0,0.0,0.0,0.0,0.0,0.0,0.0,0.0,0.0,3.7342,3.7665,3.7816,3.767,3.7514,3.6869,0.0,0.0,0.0,0.0,0.0,0.0,0.0,0.0,0.0,0.0,0.0,0.0,0.0,0.0,0.0,0.0,0.0,0.0,0.0,0.0,0.0,0.0,0.0,0.0,0.0,0.0,0.0,0.0,0.0,0.0,0.0,0.0,0.0,0.0,0.0,0.0,0.0,0.0,0.0,0.0,0.0,0.0,0.0,0.0,0.0,0.0,0.0,0.0,0.0,0.0,0.0,0.0,0.0,0.0,0.0,0.0,0.0,0.0,0.0,0.0,0.0,0.0,0.0,0.0,0.0,0.0,0.0,0.0,0.0,0.0,0.0,0.0,0.0,0.0,0.0,0.0,0.0,0.0,0.0,0.0,0.0,0.0,0.0,0.0,0.0,0.0,0.0,0.0,0.0,0.0,0.0,0.0,0.0,0.0,0.0,0.0,0.0,0.0,0.0,0.0,0.0,0.0,0.0,0.0,0.0,0.0,0.0,0.0,0.0,3.8838,3.9095,3.9138,3.9138,3.9352,3.8825,3.7466,0.0,0.0,0.0,0.0,0.0,0.0,0.0,0.0,0.0,0.0,0.0,0.0,0.0,0.0,0.0,0.0,0.0,0.0,0.0,0.0,0.0,0.0,0.0,0.0,0.0,0.0,0.0,0.0,0.0,0.0,0.0,0.0,0.0,0.0,0.0,0.0,0.0,0.0,0.0,0.0,0.0,0.0,0.0,0.0,0.0,0.0,0.0,0.0,0.0,0.0,0.0,0.0,0.0,0.0,0.0,0.0,0.0,0.0,0.0,0.0,0.0,0.0,0.0,0.0,0.0,0.0,0.0,0.0,0.0,0.0,0.0,0.0,0.0,0.0,0.0,0.0,0.0,0.0,0.0,0.0,0.0,0.0,0.0,0.0,0.0,0.0,0.0,0.0,0.0,0.0,0.0,0.0,0.0,0.0,0.0,0.0,0.0,0.0,0.0,0.0,0.0,0.0,0.0,0.0,0.0,0.0,0.0,0.0,4.0149,4.0015,3.9946,4.0008,4.1125,4.1183,0.0,0.0,0.0,0.0,0.0,0.0,0.0,0.0,0.0,0.0,0.0,0.0,0.0,0.0,0.0,0.0,0.0,0.0,0.0,0.0,0.0,0.0,0.0,0.0,0.0,0.0,0.0,0.0,0.0,0.0,0.0,0.0,0.0,0.0,0.0,0.0,0.0,0.0,0.0,0.0,0.0,0.0,0.0,0.0,0.0,0.0,0.0,0.0,0.0,0.0,0.0,0.0,0.0,0.0,0.0,0.0,0.0,0.0,0.0,0.0,0.0,0.0,0.0,0.0,0.0,0.0,0.0,0.0,0.0,0.0,0.0,0.0,0.0,0.0,0.0,0.0,0.0,0.0,0.0,0.0,0.0,0.0,0.0,0.0,0.0,0.0,0.0,0.0,0.0,0.0,0.0,0.0,0.0,0.0,0.0,0.0,0.0,0.0,0.0,0.0,0.0,0.0,0.0,0.0,0.0,0.0,0.0,0.0,0.0,3.9689,4.1309,4.2348,4.2668,4.3013,4.226,0.0,0.0,0.0,0.0,0.0,0.0,0.0,0.0,0.0,0.0,0.0,0.0,0.0,0.0,0.0,0.0,0.0,0.0,0.0,0.0,0.0,0.0,0.0,0.0,0.0,0.0,0.0,0.0,0.0,0.0,0.0,0.0,0.0,0.0,0.0,0.0,0.0,0.0,0.0,0.0,0.0,0.0,0.0,0.0,0.0,0.0,0.0,0.0,0.0,0.0,0.0,0.0,0.0,0.0,0.0,0.0,0.0,0.0,0.0,0.0,0.0,0.0,0.0,0.0,0.0,0.0,0.0,0.0,0.0,0.0,0.0,0.0,0.0,0.0,0.0,0.0,0.0,0.0,0.0,0.0,0.0,0.0,0.0,0.0,0.0,0.0,0.0,0.0,0.0,0.0,0.0,0.0,0.0,0.0,0.0,0.0,0.0,0.0,0.0,0.0,0.0,0.0,0.0,0.0,0.0,0.0,0.0,0.0,3.9206,4.0096,4.22,4.3927,4.5324,4.5216,4.4371,0.0,0.0,0.0,0.0,0.0,0.0,0.0,0.0,0.0,0.0,0.0,0.0,0.0,0.0,0.0,0.0,0.0,0.0,0.0,0.0,0.0,0.0,0.0,0.0,0.0,0.0,0.0,0.0,0.0,0.0,0.0,0.0,0.0,0.0,0.0,0.0,0.0,0.0,0.0,0.0,0.0,0.0,0.0,0.0,0.0,0.0,0.0,0.0,0.0,0.0,0.0,0.0,0.0,0.0,0.0,0.0,0.0,0.0,0.0,0.0,0.0,0.0,0.0,0.0,0.0,0.0,0.0,0.0,0.0,0.0,0.0,0.0,0.0,0.0,0.0,0.0,0.0,0.0,0.0,0.0,0.0,0.0,0.0,0.0,0.0,0.0,0.0,0.0,0.0,0.0,0.0,0.0,0.0,0.0,0.0,0.0,0.0,0.0,0.0,0.0,0.0,0.0,0.0,0.0,0.0,0.0,0.0,0.0,4.0116,4.1007,4.2766,4.4956,4.7712,4.7577,4.6705,0.0,0.0,0.0,0.0,0.0,0.0,0.0,0.0,0.0,0.0,0.0,0.0,0.0,0.0,0.0,0.0,0.0,0.0,0.0,0.0,0.0,0.0,0.0,0.0,0.0,0.0,0.0,0.0,0.0,0.0,0.0,0.0,0.0,0.0,0.0,0.0,0.0,0.0,0.0,0.0,0.0,0.0,0.0,0.0,0.0,0.0,0.0,0.0,0.0,0.0,0.0,0.0,0.0,0.0,0.0,0.0,0.0,0.0,0.0,0.0,0.0,0.0,0.0,0.0,0.0,0.0,0.0,0.0,0.0,0.0,0.0,0.0,0.0,0.0,0.0,0.0,0.0,0.0,0.0,0.0,0.0,0.0,0.0,0.0,0.0,0.0,0.0,0.0,0.0,0.0,0.0,0.0,0.0,0.0,0.0,0.0,0.0,0.0,0.0,0.0,0.0,0.0,0.0,0.0,0.0,0.0,0.0,0.0,4.1027,4.1959,4.3387,4.5748,4.9273,4.8483,4.7351,0.0,0.0,0.0,0.0,0.0,0.0,0.0,0.0,0.0,0.0,0.0,0.0,0.0,0.0,0.0,0.0,0.0,0.0,0.0,0.0,0.0,0.0,0.0,0.0,0.0,0.0,0.0,0.0,0.0,0.0,0.0,0.0,0.0,0.0,0.0,0.0,0.0,0.0,0.0,0.0,0.0,0.0,0.0,0.0,0.0,0.0,0.0,0.0,3.6654,0.0,0.0,0.0,0.0,0.0,0.0,0.0,0.0,0.0,0.0,0.0,0.0,0.0,0.0,0.0,0.0,0.0,0.0,0.0,0.0,0.0,0.0,0.0,0.0,0.0,0.0,0.0,0.0,0.0,0.0,0.0,0.0,0.0,0.0,0.0,0.0,0.0,0.0,0.0,0.0,0.0,0.0,0.0,0.0,0.0,0.0,0.0,0.0,0.0,0.0,0.0,0.0,0.0,0.0,0.0,0.0,0.0,0.0,0.0,4.1959,4.289,4.4236,4.6562,4.9949,4.9216,4.8644,0.0,0.0,0.0,0.0,0.0,0.0,0.0,0.0,0.0,0.0,0.0,0.0,0.0,0.0,0.0,0.0,0.0,0.0,0.0,0.0,0.0,0.0,0.0,0.0,0.0,0.0,0.0,0.0,0.0,0.0,0.0,0.0,0.0,0.0,0.0,0.0,0.0,0.0,0.0,0.0,0.0,0.0,0.0,0.0,0.0,0.0,0.0,0.0,0.0,0.0,0.0,0.0,0.0,0.0,0.0,0.0,0.0,0.0,0.0,0.0,0.0,0.0,0.0,0.0,0.0,0.0,0.0,0.0,0.0,0.0,0.0,0.0,0.0,0.0,0.0,0.0,0.0,0.0,0.0,0.0,0.0,0.0,0.0,0.0,0.0,0.0,0.0,0.0,0.0,0.0,0.0,0.0,0.0,0.0,0.0,0.0,0.0,0.0,0.0,0.0,0.0,0.0,0.0,0.0,0.0,0.0,0.0,4.1462,4.2828,4.3822,4.5167,4.7419,5.0765,5.0109,5.0118,5.0816,0.0,0.0,0.0,0.0,0.0,0.0,0.0,0.0,0.0,0.0,0.0,0.0,0.0,0.0,0.0,0.0,0.0,0.0,0.0,0.0,0.0,0.0,0.0,0.0,0.0,0.0,0.0,0.0,0.0,0.0,0.0,0.0,0.0,0.0,0.0,0.0,0.0,0.0,3.7053,3.8171,0.0,0.0,0.0,0.0,0.0,0.0,0.0,0.0,3.678,0.0,0.0,0.0,0.0,0.0,0.0,0.0,0.0,0.0,0.0,0.0,0.0,0.0,0.0,0.0,0.0,0.0,0.0,0.0,0.0,0.0,0.0,0.0,0.0,0.0,0.0,0.0,0.0,0.0,0.0,0.0,0.0,0.0,0.0,0.0,0.0,0.0,0.0,0.0,0.0,0.0,0.0,0.0,0.0,0.0,0.0,0.0,0.0,0.0,0.0,0.0,0.0,0.0,0.0,0.0,0.0,4.0655,4.2083,4.3449,4.4753,4.6099,4.8382,5.1643,5.1162,5.1164,5.1705,0.0,0.0,0.0,0.0,0.0,0.0,0.0,0.0,0.0,0.0,0.0,0.0,0.0,0.0,0.0,0.0,0.0,0.0,0.0,0.0,0.0,0.0,0.0,0.0,0.0,0.0,0.0,0.0,0.0,0.0,0.0,0.0,0.0,0.0,0.0,0.0,0.0,0.0,0.0,3.904,3.9454,0.0,0.0,0.0,0.0,0.0,0.0,0.0,0.0,3.8065,0.0,0.0,0.0,0.0,0.0,0.0,0.0,0.0,0.0,0.0,0.0,0.0,0.0,0.0,0.0,0.0,0.0,0.0,0.0,0.0,0.0,0.0,0.0,0.0,0.0,0.0,0.0,0.0,0.0,0.0,0.0,0.0,0.0,0.0,0.0,0.0,0.0,0.0,0.0,0.0,0.0,0.0,0.0,0.0,0.0,0.0,0.0,0.0,0.0,0.0,0.0,0.0,0.0,0.0,0.0,4.1234,4.258,4.3946,4.5312,4.6223,4.8361,5.1872,5.0117,4.9405,0.0,0.0,0.0,0.0,0.0,0.0,0.0,0.0,0.0,0.0,0.0,0.0,0.0,0.0,0.0,0.0,0.0,0.0,0.0,0.0,0.0,0.0,0.0,0.0,0.0,0.0,0.0,0.0,0.0,0.0,0.0,0.0,0.0,0.0,0.0,0.0,0.0,0.0,0.0,0.0,3.9951,4.0406,4.0882,0.0,0.0,0.0,0.0,0.0,0.0,4.0883,3.9368,0.0,0.0,0.0,0.0,0.0,0.0,0.0,0.0,0.0,0.0,0.0,0.0,0.0,0.0,0.0,0.0,0.0,0.0,0.0,0.0,0.0,0.0,0.0,0.0,0.0,0.0,0.0,0.0,0.0,0.0,0.0,0.0,0.0,0.0,0.0,0.0,0.0,0.0,0.0,0.0,0.0,0.0,0.0,0.0,0.0,0.0,0.0,0.0,0.0,0.0,0.0,0.0,0.0,0.0,0.0,4.169,4.3056,4.4422,4.5768,4.6264,4.8275,5.1852,4.9361,4.8155,0.0,0.0,0.0,0.0,0.0,0.0,0.0,0.0,0.0,0.0,0.0,0.0,0.0,0.0,0.0,0.0,0.0,0.0,0.0,0.0,0.0,0.0,0.0,0.0,0.0,0.0,0.0,0.0,0.0,0.0,0.0,0.0,0.0,0.0,0.0,0.0,0.0,0.0,0.0,0.0,0.0,4.1358,4.2249,4.2476,0.0,0.0,0.0,0.0,4.3284,4.1958,0.0,0.0,0.0,0.0,0.0,0.0,0.0,0.0,0.0,0.0,0.0,0.0,0.0,0.0,0.0,0.0,0.0,0.0,0.0,0.0,0.0,0.0,0.0,0.0,0.0,0.0,0.0,0.0,0.0,0.0,0.0,0.0,0.0,0.0,0.0,0.0,0.0,0.0,0.0,0.0,0.0,0.0,0.0,0.0,0.0,0.0,0.0,0.0,0.0,0.0,0.0,0.0,0.0,0.0,0.0,0.0,4.2166,4.3532,4.4898,4.6202,4.672,4.8747,5.2354,5.0916,4.9867,0.0,0.0,0.0,0.0,0.0,0.0,0.0,0.0,0.0,0.0,0.0,0.0,0.0,0.0,0.0,0.0,0.0,0.0,0.0,0.0,0.0,0.0,0.0,0.0,0.0,0.0,0.0,0.0,0.0,0.0,0.0,0.0,0.0,0.0,0.0,0.0,0.0,0.0,0.0,0.0,0.0,4.1814,4.2725,4.3201,4.3615,0.0,0.0,4.4691,4.4753,4.3731,0.0,0.0,0.0,0.0,0.0,0.0,0.0,0.0,0.0,0.0,0.0,0.0,0.0,0.0,0.0,0.0,0.0,0.0,0.0,0.0,0.0,0.0,0.0,0.0,0.0,0.0,0.0,0.0,0.0,0.0,0.0,0.0,0.0,0.0,0.0,0.0,0.0,0.0,0.0,0.0,0.0,0.0,0.0,0.0,0.0,0.0,0.0,0.0,0.0,0.0,0.0,0.0,0.0,0.0,0.0,4.1255,4.2621,4.3739,4.5084,4.6658,4.6678,4.8554,5.2468,4.9962,4.8832,0.0,0.0,0.0,0.0,0.0,0.0,0.0,0.0,0.0,0.0,0.0,0.0,0.0,0.0,0.0,0.0,0.0,0.0,0.0,0.0,0.0,0.0,0.0,0.0,0.0,0.0,0.0,0.0,0.0,0.0,0.0,0.0,0.0,0.0,0.0,0.0,0.0,0.0,0.0,0.0,0.0,0.0,4.3573,4.4339,0.0,0.0,0.0,4.5768,4.5768,0.0,0.0,0.0,0.0,0.0,0.0,0.0,0.0,0.0,0.0,0.0,0.0,0.0,0.0,0.0,0.0,0.0,0.0,0.0,0.0,0.0,0.0,0.0,0.0,0.0,0.0,0.0,0.0,0.0,0.0,0.0,0.0,0.0,0.0,0.0,0.0,0.0,0.0,0.0,0.0,0.0,0.0,0.0,0.0,0.0,0.0,0.0,0.0,0.0,0.0,0.0,0.0,0.0,0.0,0.0,0.0,0.0,4.3077,4.4008,4.5312,4.6947,4.6699,4.8468,5.24,4.9696,0.0,0.0,0.0,0.0,0.0,0.0,0.0,0.0,0.0,0.0,0.0,0.0,0.0,0.0,0.0,0.0,0.0,0.0,0.0,0.0,0.0,0.0,0.0,0.0,0.0,0.0,0.0,3.6639,0.0,0.0,0.0,0.0,0.0,0.0,0.0,0.0,0.0,0.0,0.0,0.0,0.0,0.0,4.3511,4.465,4.5416,4.6037,0.0,0.0,4.6678,4.6678,4.6306,4.5602,0.0,0.0,0.0,0.0,0.0,0.0,0.0,0.0,0.0,0.0,0.0,0.0,0.0,0.0,0.0,0.0,0.0,0.0,0.0,0.0,0.0,0.0,0.0,0.0,0.0,0.0,0.0,0.0,0.0,0.0,0.0,0.0,0.0,0.0,0.0,0.0,0.0,0.0,0.0,0.0,0.0,0.0,0.0,0.0,0.0,0.0,0.0,0.0,0.0,0.0,0.0,0.0,0.0,0.0,0.0,4.3532,4.4463,4.5623,4.6968,4.701,4.8789,5.2423,5.1418,5.1129,0.0,0.0,0.0,0.0,0.0,0.0,0.0,0.0,0.0,0.0,0.0,0.0,0.0,0.0,0.0,0.0,0.0,0.0,0.0,0.0,0.0,0.0,0.0,0.0,0.0,0.0,0.0,0.0,0.0,0.0,0.0,0.0,0.0,0.0,0.0,0.0,0.0,0.0,0.0,0.0,0.0,4.4215,4.5954,4.6264,4.6616,0.0,0.0,4.7589,4.7589,4.7217,4.6616,4.5685,0.0,0.0,0.0,0.0,0.0,0.0,0.0,0.0,0.0,0.0,0.0,0.0,0.0,0.0,0.0,0.0,0.0,0.0,0.0,0.0,0.0,0.0,0.0,0.0,0.0,0.0,0.0,0.0,0.0,0.0,0.0,0.0,0.0,0.0,0.0,0.0,0.0,0.0,0.0,0.0,0.0,0.0,0.0,0.0,0.0,0.0,0.0,0.0,0.0,0.0,0.0,0.0,0.0,4.2663,4.4029,4.494,4.6078,4.7361,4.7444,4.9239,5.3085,5.1803,5.1711,0.0,0.0,0.0,0.0,0.0,0.0,0.0,0.0,0.0,0.0,0.0,0.0,0.0,0.0,0.0,0.0,0.0,0.0,0.0,0.0,0.0,0.0,0.0,0.0,0.0,0.0,0.0,0.0,3.9433,3.9765,3.9951,0.0,0.0,0.0,0.0,0.0,0.0,0.0,0.0,0.0,0.0,4.4505,4.5768,4.6637,0.0,0.0,4.8355,4.8334,4.7775,4.7548,4.6947,4.5498,4.4733,0.0,0.0,0.0,0.0,0.0,0.0,0.0,0.0,0.0,0.0,0.0,0.0,0.0,0.0,0.0,0.0,0.0,0.0,0.0,0.0,0.0,0.0,0.0,0.0,0.0,0.0,0.0,0.0,0.0,0.0,0.0,0.0,0.0,0.0,0.0,0.0,0.0,0.0,0.0,0.0,0.0,0.0,0.0,0.0,0.0,0.0,0.0,0.0,0.0,0.0,0.0,0.0,4.3139,4.4505,4.5416,4.6471,4.7651,4.7817,4.9481,5.2529,5.2194,5.2363,0.0,0.0,0.0,0.0,0.0,0.0,0.0,0.0,0.0,0.0,0.0,0.0,0.0,0.0,0.0,0.0,0.0,0.0,0.0,0.0,0.0,0.0,0.0,0.0,0.0,0.0,0.0,0.0,4.0344,4.0572,4.0427,0.0,0.0,0.0,0.0,0.0,0.0,0.0,0.0,0.0,0.0,4.4836,4.5747,4.6906,4.7796,4.8127,4.8562,4.8583,4.7796,4.7589,4.701,4.5623,0.0,0.0,0.0,0.0,0.0,0.0,0.0,0.0,0.0,0.0,0.0,0.0,0.0,0.0,0.0,0.0,0.0,0.0,0.0,0.0,0.0,0.0,0.0,0.0,0.0,0.0,0.0,0.0,0.0,0.0,3.6912,0.0,0.0,0.0,0.0,0.0,0.0,0.0,0.0,0.0,0.0,0.0,0.0,0.0,0.0,0.0,0.0,0.0,0.0,0.0,0.0,0.0,0.0,4.3594,4.496,4.5871,4.6782,4.7693,4.8148,4.9196,5.1004,5.2529,5.3418,5.3624,0.0,0.0,0.0,0.0,0.0,0.0,0.0,0.0,0.0,0.0,0.0,0.0,0.0,0.0,0.0,0.0,0.0,0.0,0.0,0.0,0.0,0.0,0.0,0.0,0.0,0.0,4.0779,4.1255,4.1317,0.0,0.0,0.0,0.0,0.0,0.0,0.0,0.0,0.0,0.0,4.3822,4.5291,4.6182,4.7092,4.7672,4.7713,4.8107,4.8231,4.7755,4.7341,4.6885,0.0,0.0,0.0,0.0,0.0,0.0,0.0,0.0,0.0,0.0,0.0,0.0,0.0,0.0,0.0,0.0,0.0,0.0,0.0,0.0,0.0,0.0,0.0,0.0,0.0,0.0,0.0,4.1719,4.1342,0.0,0.0,0.0,0.0,0.0,0.0,0.0,0.0,0.0,0.0,0.0,4.6894,4.8379,0.0,0.0,0.0,0.0,0.0,0.0,0.0,0.0,0.0,0.0,0.0,0.0,4.407,4.5416,4.6347,4.7382,4.8562,4.9059,5.0249,5.2211,5.2248,5.2832,5.3999,0.0,0.0,0.0,0.0,0.0,0.0,0.0,0.0,0.0,0.0,0.0,0.0,0.0,0.0,0.0,0.0,0.0,0.0,0.0,0.0,0.0,0.0,0.0,0.0,0.0,4.082,0.0,0.0,0.0,0.0,0.0,0.0,0.0,0.0,0.0,0.0,0.0,4.1855,4.26,4.4029,4.5209,4.583,4.6678,4.7361,0.0,0.0,0.0,0.0,0.0,0.0,0.0,0.0,0.0,0.0,0.0,0.0,0.0,0.0,4.3496,4.2913,4.2812,4.2637,4.1837,0.0,0.0,0.0,0.0,0.0,0.0,0.0,0.0,0.0,0.0,0.0,0.0,0.0,0.0,0.0,0.0,4.4313,0.0,0.0,0.0,0.0,0.0,0.0,0.0,0.0,4.8183,4.9446,5.0063,5.1444,5.2126,0.0,5.1319,4.9907,0.0,0.0,0.0,0.0,0.0,0.0,0.0,0.0,4.4691,4.5912,4.7113,4.8169,4.9038,4.9659,5.0638,5.2066,5.2506,5.3909,5.6448,5.5379,5.4917,0.0,0.0,0.0,0.0,0.0,0.0,0.0,0.0,0.0,0.0,0.0,0.0,0.0,0.0,0.0,0.0,0.0,0.0,0.0,0.0,0.0,0.0,0.0,4.1421,0.0,0.0,0.0,0.0,0.0,0.0,0.0,0.0,0.0,4.1193,4.1793,4.2497,4.3077,4.436,4.5354,4.5643,0.0,0.0,0.0,0.0,0.0,0.0,0.0,4.7589,4.7299,4.701,4.6803,4.6803,4.6803,4.6865,4.701,0.0,0.0,4.5664,4.5457,4.5139,4.43,4.482,4.482,4.3013,4.3013,4.267,0.0,0.0,0.0,0.0,0.0,0.0,0.0,0.0,4.9147,4.8886,0.0,4.781,0.0,0.0,0.0,0.0,0.0,4.7097,0.0,0.0,5.0813,5.1681,5.2942,5.3557,5.3783,5.3808,5.4336,5.4285,5.3543,4.9319,0.0,0.0,0.0,0.0,0.0,0.0,4.5478,4.6451,4.8148,4.908,4.9183,4.999,5.0446,5.0622,5.3366,5.656,5.979,5.8627,5.77,5.7072,5.3642,0.0,0.0,0.0,0.0,0.0,0.0,0.0,0.0,0.0,0.0,0.0,0.0,0.0,0.0,0.0,0.0,0.0,0.0,0.0,0.0,4.1752,0.0,0.0,0.0,0.0,0.0,0.0,0.0,0.0,0.0,0.0,4.1814,4.2807,4.3635,4.3656,0.0,0.0,0.0,0.0,4.6885,4.6471,4.7154,4.7589,4.7196,4.7465,4.7734,4.7796,0.0,0.0,4.7775,4.7775,4.7941,4.8355,4.812,4.754,4.6598,4.6371,4.6309,4.6309,4.6004,4.58,4.5637,4.5227,4.4693,5.3532,0.0,0.0,0.0,0.0,5.1234,5.1408,5.1408,5.184,5.168,5.1408,5.1408,0.0,0.0,0.0,0.0,0.0,0.0,5.1657,5.2984,5.4058,5.4807,5.529,5.5415,5.5491,5.5491,5.5666,5.5666,5.5465,5.4126,5.2065,4.8991,0.0,0.0,0.0,0.0,4.7805,4.7921,4.8645,4.9535,5.0508,5.0777,5.0922,5.0922,5.4162,5.6457,5.7078,5.8753,5.9207,5.8252,5.5456,0.0,0.0,0.0,0.0,0.0,0.0,0.0,0.0,0.0,0.0,0.0,0.0,0.0,0.0,0.0,0.0,0.0,0.0,0.0,4.2311,4.258,4.2683,0.0,0.0,0.0,0.0,0.0,0.0,0.0,0.0,0.0,4.3553,4.3842,4.4236,0.0,0.0,4.5809,4.6099,4.6658,4.7092,4.7258,4.7796,0.0,4.8459,4.8314,4.85,4.9473,4.9638,4.9638,4.9638,4.9638,4.968,4.9804,4.9671,4.9527,4.9156,4.8025,4.7467,4.7617,4.7447,4.7107,4.7107,4.6766,4.5871,5.7575,5.529,5.4561,5.4034,5.3783,5.4084,5.4235,5.4235,5.4235,5.4235,5.4235,5.4235,5.4235,5.4235,5.331,0.0,0.0,0.0,5.4966,5.58,5.695,5.7524,5.7524,5.7499,5.7499,5.7499,5.7298,5.7198,5.7198,5.6972,5.5754,5.3544,0.0,0.0,4.9471,5.0076,5.0462,5.0725,5.0762,5.1421,5.3299,5.2832,5.2762,5.3623,5.5671,5.7052,5.7593,5.9575,6.0261,5.9382,5.6919,5.4941,0.0,0.0,0.0,0.0,0.0,0.0,0.0,0.0,0.0,0.0,0.0,4.0137,4.0323,0.0,0.0,0.0,4.2518,4.3263,4.3698,4.3573,0.0,0.0,0.0,0.0,0.0,0.0,0.0,4.3346,4.4381,4.5188,4.5354,4.554,4.5623,4.554,4.6078,4.6575,4.6844,0.0,4.7672,4.792,4.85,4.9017,4.9307,4.9245,4.9473,5.028,5.0404,5.0404,5.0404,5.0404,5.0487,5.0632,5.0517,5.0381,5.0566,4.9425,4.841,4.881,4.8554,4.8029,4.7854,4.7522,4.6797,6.1617,6.0412,5.7876,5.6671,5.647,5.647,5.647,5.647,5.647,5.647,5.647,5.647,5.647,5.647,5.647,0.0,5.7323,5.7851,5.8378,5.893,5.9408,5.9633,5.9633,5.9608,5.9633,5.9608,5.9131,5.893,5.888,5.8428,5.8152,5.8127,5.5726,5.3847,5.2658,5.2987,5.3566,5.4533,5.3682,5.4417,5.662,5.5374,5.5597,5.7091,5.7263,5.8096,5.9931,6.0538,6.0756,6.0286,5.8151,5.6724,5.5951,0.0,0.0,0.0,0.0,0.0,0.0,0.0,0.0,0.0,0.0,0.0,0.0,0.0,0.0,0.0,4.3842,0.0,4.496,4.465,0.0,0.0,0.0,4.3822,4.3822,4.4236,4.4691,4.5147,0.0,0.0,4.7134,4.7568,4.7548,4.672,4.7258,4.7775,4.7838,4.8231,4.85,4.8583,4.9266,4.9804,4.9908,5.0218,5.0487,5.0508,5.0508,5.057,5.0591,5.057,5.0736,5.1087,5.0792,5.0736,5.1166,5.0418,4.9711,4.9765,4.9288,4.8772,4.8394,4.8036,4.7676,6.4103,6.34,6.2345,6.0688,5.873,5.8704,5.8704,5.8704,5.8704,5.8704,5.8704,5.873,5.8704,5.8704,5.873,5.9006,5.9533,5.9684,6.0035,6.0588,6.0713,6.0788,6.0788,6.0788,6.0788,6.0788,6.0663,6.0588,6.0588,6.0462,6.0387,6.0387,5.9797,5.7957,5.5302,5.5779,5.5738,5.5426,5.5709,5.628,5.7125,5.6746,5.6609,5.6758,5.6735,5.7397,5.8708,5.9146,5.9564,6.0154,5.7876,5.5929,5.5029,5.1828,0.0,0.0,0.0,0.0,0.0,0.0,0.0,0.0,0.0,4.2124,4.2559,0.0,4.3366,0.0,4.4484,4.4877,4.4981,4.5209,0.0,0.0,4.5561,4.5705,4.5705,4.6099,4.6554,4.6989,4.7548,4.8065,4.8541,4.8976,4.9204,4.8955,4.8521,4.8459,4.9121,4.9349,4.9556,4.9866,5.0115,5.0384,5.0756,5.117,5.1357,5.1005,5.1232,5.146,5.146,5.146,5.1501,5.1626,5.1626,5.1507,5.161,5.1066,5.0641,5.0237,4.9469,4.8921,4.8738,4.8555,4.8168,6.6086,6.5559,6.5283,6.4103,6.237,6.1391,6.0839,6.0613,6.0613,6.0487,6.0236,6.0261,6.0236,6.0236,6.0261,6.0412,6.0713,6.0964,6.124,6.1567,6.1793,6.1918,6.1918,6.1918,6.1918,6.1893,6.1667,6.1542,6.1542,6.1316,6.119,6.119,6.119,6.0213,5.8532,5.8594,5.8677,5.8495,5.9021,5.9093,5.8507,5.853,5.8272,5.7757,5.689,5.7164,5.8324,5.8247,5.8491,5.8999,5.7158,5.5722,5.4928,5.2703,5.1497,0.0,0.0,0.0,0.0,0.0,0.0,0.0,0.0,0.0,0.0,0.0,4.4588,4.5436,4.5933,4.6202,4.6202,4.6409,4.6658,4.6865,4.7113,4.7341,4.7527,4.7775,4.8107,4.8562,4.8831,4.9162,4.9618,4.9887,5.0135,5.0322,4.9908,4.9701,4.999,5.0218,5.0446,5.0694,5.1067,5.1501,5.1957,5.2247,5.2329,5.2122,5.2247,5.2412,5.2412,5.2412,5.2412,5.2412,5.2412,5.2412,5.2025,5.1678,5.1105,5.055,4.9208,4.793,4.7588,4.7512,4.6934,6.7693,6.7191,6.7191,6.684,6.6187,6.4279,6.3073,6.2421,6.2345,6.2044,6.1617,6.1617,6.1617,6.1617,6.1592,6.1617,6.1642,6.2094,6.2295,6.2245,6.2722,6.2898,6.2822,6.2822,6.2822,6.2797,6.2345,6.2119,6.2094,6.1617,6.1391,6.1391,6.1416,6.1391,6.1391,6.1391,6.1617,6.2119,6.2571,6.1977,6.0434,6.0434,6.0144,5.9374,5.7807,5.7358,5.8458,5.8,5.7734,5.7871,5.6794,5.5914,5.5458,5.4271,5.3437,0.0,5.2115,0.0,0.0,0.0,0.0,0.0,0.0,0.0,0.0,4.5354,4.5912,4.7113,4.761,4.7858,4.7858,4.79,4.8107,4.85,4.8603,4.879,4.9183,4.9245,4.9431,4.9887,4.9928,5.0094,5.0529,5.0591,5.0756,5.1108,5.1212,5.1087,5.0818,5.1046,5.1294,5.1294,5.2019,5.2599,5.295,5.3116,5.3116,5.3137,5.3095,5.3178,5.3116,5.3137,5.3157,5.3137,5.3116,5.2951,5.2599,5.2206,5.1645,5.1041,4.8881,4.6937,4.6385,4.5823,4.4786,6.8823,6.8321,6.8321,6.7995,6.7442,6.7041,6.6036,6.463,6.4203,6.3952,6.3852,6.3852,6.3827,6.3852,6.3852,6.3852,6.3852,6.3952,6.3776,6.3375,6.3475,6.3274,6.2847,6.2822,6.2822,6.2822,6.2722,6.2672,6.2672,6.2571,6.2521,6.2521,6.2521,6.2521,6.2521,0.0,0.0,0.0,6.2772,6.2659,6.2331,6.2306,6.1833,6.0886,5.9146,0.0,5.921,5.7911,5.768,5.8986,5.7253,0.0,0.0,0.0,0.0,0.0,0.0,0.0,0.0,0.0,0.0,0.0,4.991,4.8297,4.6841,4.732,4.7858,4.8107,4.8541,4.881,4.881,4.9142,4.939,4.9494,4.9825,5.0073,5.0156,5.0156,5.0342,5.0798,5.086,5.1025,5.1439,5.1543,5.1564,5.1688,5.1998,5.2185,5.2102,5.2143,5.2226,5.2288,5.2723,5.3075,5.3157,5.322,5.3261,5.3178,5.3178,5.3199,5.322,5.322,5.3199,5.322,5.3178,5.322,5.3013,5.2599,5.208,5.1685,4.9358,4.735,4.6819,4.5222,4.3453,6.9928,0.0,6.9426,6.9125,0.0,6.8321,6.7719,6.6865,6.576,6.4982,6.4479,6.4479,6.4479,6.4479,6.4479,6.4479,6.4479,6.4479,6.4203,6.3701,6.3701,6.34,6.2822,6.2822,6.2822,6.2822,6.2822,6.2822,6.2822,6.2822,6.2822,6.2822,6.2822,6.2973,6.3249,6.35,6.3375,6.2822,6.2822,6.2822,6.2822,6.2822,6.2295,6.124,0.0,0.0,0.0,0.0,0.0,0.0,0.0,0.0,0.0,0.0,0.0,5.6221,5.6196,5.6674,5.73,5.5501,5.4217,5.3842,5.1695,4.9829,4.8417,4.8997,4.939,4.939,4.9597,4.9742,4.9742,4.9949,5.0177,5.0404,5.0632,5.0839,5.1067,5.1087,5.1191,5.1398,5.146,5.1626,5.2081,5.2143,5.2247,5.2454,5.2681,5.2826,5.2826,5.2826,5.2888,5.3116,5.3323,5.3592,5.3799,5.384,5.384,5.3861,5.3861,5.3861,5.384,5.384,5.3861,5.3861,5.3861,5.3861,5.384,5.3443,5.2877,5.2118,4.9356,4.6788,4.6002,4.3931,4.1502,7.0757,7.028,7.028,6.9953,6.9401,6.8949,6.8723,6.8522,0.0,0.0,0.0,6.4806,6.4756,6.4756,6.4756,6.4756,6.4756,6.4756,6.4479,6.3977,6.3877,6.3525,6.2973,6.2873,6.2822,6.2822,6.2822,6.2873,6.2973,6.2973,6.3023,6.3124,6.3124,6.335,6.3827,6.4254,6.4028,6.3174,6.3124,6.3073,6.2998,6.2973,6.2446,6.1366,5.9982,5.9305,5.9684,5.8335,5.7521,5.7521,5.7521,5.7352,5.7036,5.7012,5.7467,5.8376,5.8905,5.9156,5.9156,5.8261,5.7293,5.5901,5.3147,5.0943,4.9949,5.028,5.0549,5.0549,5.0611,5.0673,5.0673,5.0673,5.0818,5.1191,5.1315,5.1501,5.1874,5.2019,5.206,5.204,5.206,5.2185,5.2557,5.2619,5.2743,5.3075,5.322,5.3344,5.3385,5.3364,5.3447,5.384,5.3965,5.411,5.4399,5.4482,5.4544,5.4461,5.4503,5.4544,5.4544,5.4544,5.4544,5.4461,5.4544,5.4503,5.4524,5.4081,5.376,5.3185,4.9591,4.6188,4.495,4.2721,4.0357,7.0782,7.028,7.028,6.9953,6.9451,6.9351,6.9049,6.8522,6.7367,6.6764,6.6589,6.6112,6.5886,6.5886,6.5886,6.5886,6.5886,6.5886,6.5584,0.0,6.458,6.4078,6.355,6.3073,6.2822,6.2822,6.2822,6.3099,6.3525,6.3576,6.3802,6.4178,6.4228,6.4279,6.4354,6.4429,6.4379,6.4228,6.4228,6.4028,6.3576,6.3576,6.3023,6.1969,6.1732,6.1021,6.0261,5.9872,5.9872,5.9872,5.9872,6.0047,6.0472,6.0447,6.063,6.0738,6.0788,6.0839,6.0839,6.073,6.0217,5.9356,5.6835,5.3844,5.0684,5.0756,5.1025,5.1025,5.1377,5.1605,5.1605,5.1605,5.1646,5.1729,5.206,5.2329,5.2392,5.2723,5.293,5.2909,5.2992,5.2971,5.3054,5.3075,5.3116,5.324,5.3571,5.3882,5.411,5.4006,5.3965,5.4317,5.4441,5.4461,5.4524,5.4544,5.4544,5.4544,5.4544,5.4544,5.4544,5.4544,5.4544,5.4544,5.4544,5.4544,5.4544,5.4544,5.3951,5.3185,5.0784,4.8176,4.5587,4.3033,4.0763,7.1661,7.1133,7.0832,7.0405,6.9878,6.9577,6.93,6.8999,6.8221,6.7693,6.7417,6.7141,6.7041,6.7015,6.6714,6.6589,6.6564,6.6262,6.581,6.5283,6.5032,6.463,6.4128,6.3827,6.3726,6.3726,6.3726,6.3852,6.4103,6.4128,6.4228,6.4479,6.4756,6.4906,6.4931,6.5208,6.5358,6.5333,6.4781,6.4354,6.4128,6.4103,6.3726,6.2948,6.2923,6.2546,6.1718,6.1391,6.124,6.124,6.0939,6.0914,6.1165,6.119,6.119,6.119,6.1466,6.1768,6.2069,6.1779,6.13,6.0917,5.7866,5.5477,5.3737,5.2625,5.2226,5.2247,5.2433,5.2536,5.2557,5.2557,5.2536,5.2536,5.2743,5.2868,5.2888,5.3033,5.3178,5.3178,5.3178,5.3261,5.3509,5.353,5.3675,5.3861,5.413,5.4317,5.4503,5.4358,5.4275,5.4503,5.4544,5.4544,5.4544,5.4544,5.4544,5.4544,5.4544,5.4544,5.4544,5.4544,5.4544,5.4544,5.4544,5.4544,5.4544,5.4544,5.4142,5.3357,5.1387,4.8786,4.597,4.2571,3.9744,7.2414,7.1861,7.1309,7.0706,7.0054,6.9627,6.9451,6.9401,6.8974,6.8572,6.817,6.7919,6.7819,6.7769,6.7342,6.7091,6.6915,6.6513,6.6011,6.5509,6.5358,6.5057,6.468,6.453,6.4479,6.4479,6.4479,6.453,6.463,6.4655,6.4731,6.4881,6.5258,6.5484,6.5484,6.5911,6.6112,6.6061,6.5283,6.4781,6.4655,6.4655,6.4404,6.3902,6.3877,6.3601,6.3048,6.2621,6.2395,6.237,6.1969,6.1793,6.1918,6.1918,6.1918,6.1969,6.232,6.2747,6.3034,6.2711,6.2543,6.2371,5.9477,5.7581,5.6858,5.5258,5.3922,5.3405,5.3137,5.3157,5.3137,5.3157,5.3178,5.3178,5.3282,5.3344,5.3344,5.3427,5.3489,5.3489,5.3489,5.3654,5.3903,5.4006,5.3941,5.4209,5.4163,5.4163,5.4142,5.4163,5.4354,5.4333,5.4354,5.4544,5.4544,5.4544,5.4544,5.4544,5.4544,5.4544,5.4544,5.4544,5.4544,5.4544,5.4544,5.4544,5.4544,5.4544,5.4354,5.376,5.2161,4.9964,4.7185,4.2962,3.9345,7.2414,7.1861,7.1309,7.048,6.9577,6.9476,6.9451,6.9426,6.9376,6.9351,6.915,6.8246,6.7844,6.7794,6.7744,6.7467,6.7041,6.6915,6.6589,6.6011,6.5509,6.5258,6.5183,6.4731,6.4479,6.4505,6.453,6.4806,6.5208,6.5208,6.5459,6.5911,6.6011,6.6011,6.6036,6.6086,6.6112,6.6112,6.6011,6.571,6.5233,6.5208,6.4957,6.4404,6.4404,6.4153,6.3701,6.355,6.355,6.355,6.3475,6.3651,6.4053,6.4128,6.4128,6.4103,6.4178,6.4279,6.4329,6.4687,6.4868,6.4893,6.3317,6.1568,5.9929,5.8152,5.5814,5.3964,5.3199,5.324,5.3178,5.322,5.3282,5.3323,5.3592,5.3799,5.382,5.4172,5.442,5.442,5.4317,5.4441,5.442,5.442,5.4251,5.4122,5.376,5.3377,5.3377,5.376,5.3951,5.3951,5.4142,5.4544,5.4544,5.4544,5.4544,5.4544,5.4544,5.4544,5.4544,5.4544,5.4544,5.4544,5.4544,5.4544,5.4544,5.4544,5.4354,5.3951,5.3165,5.2161,4.9161,4.4766,4.136,7.2615,7.2313,7.1435,7.0455,6.9501,6.9451,6.9451,6.9451,6.9451,6.9451,6.9401,6.8974,6.8773,6.8748,6.8447,6.8145,6.7919,6.7267,6.6865,6.6589,6.6036,6.5785,6.5735,6.5559,6.5434,6.5434,6.5434,6.5559,6.5735,6.5785,6.5911,6.6086,6.6112,6.6112,6.6112,6.6112,6.6112,6.6112,6.6112,6.6011,6.581,6.5785,6.566,6.5459,6.5434,6.5358,6.5107,6.4831,6.463,6.4605,6.4329,6.4228,6.4454,6.4479,6.4479,6.4479,6.4781,6.4957,6.4957,6.5459,6.5785,6.5785,6.4157,6.2848,6.2113,6.0294,5.813,5.6021,5.4674,5.3985,5.3965,5.3965,5.3985,5.4006,5.4151,5.4255,5.4255,5.4399,5.4544,5.4544,5.4544,5.4544,5.4544,5.4544,5.4354,5.4142,5.378,5.3438,5.3397,5.376,5.376,5.3951,5.4142,5.4544,5.4544,5.4544,5.4544,5.4544,5.4544,5.4544,5.4544,5.4544,5.4544,5.4544,5.4544,5.4544,5.4544,5.4544,5.4354,5.3951,5.2161,5.0784,4.918,4.6188,4.3587,7.274,7.2565,7.1535,7.0455,6.9451,6.9451,6.9451,6.9451,6.9451,6.9451,6.9451,6.9451,6.9451,6.9376,6.9024,6.8773,6.8522,6.7794,6.7267,6.6965,6.6538,6.6262,6.6137,6.6112,6.6112,6.6112,6.6086,6.6112,6.6112,6.6112,6.6112,6.6112,6.6112,6.6112,6.6112,6.6112,6.6112,6.6112,6.6112,6.6112,6.6112,6.6112,6.6112,6.6112,6.6112,6.6112,6.6112,6.5735,6.5509,6.5509,6.5132,6.4906,6.4906,6.4906,6.4931,6.4957,6.5283,6.5509,6.5534,6.5886,6.6112,6.594,6.4653,6.3754,6.3025,6.1935,5.9931,5.7568,5.6162,5.522,5.4544,5.4544,5.4544,5.4544,5.4544,5.4544,5.4524,5.4544,5.4544,5.4544,5.4544,5.4544,5.4565,5.4457,5.4368,5.4368,5.4066,5.3935,5.3935,5.3975,5.4168,5.4107,5.443,5.4668,5.4586,5.4544,5.4544,5.4544,5.4544,5.4544,5.4544,5.4544,5.4544,5.4544,5.4544,5.4544,5.4544,5.4544,5.4544,5.3951,5.2567,5.0784,5.0569,4.7798,4.6205,7.274,7.2565,7.1535,7.0455,6.9451,6.9451,6.9451,6.9451,6.9451,6.9451,6.9451,6.9451,6.9451,6.9451,6.9376,6.9125,6.8673,6.8522,6.797,6.7141,6.699,6.6639,6.6137,6.6112,6.6162,6.6262,6.6287,6.6237,6.6187,6.6162,6.6112,6.6137,6.6212,6.6162,6.6162,6.6187,6.6112,6.6112,6.6112,6.6112,6.6112,6.6112,6.6112,6.6112,6.6112,6.6112,6.6112,6.6086,6.6061,6.6061,6.5986,6.5986,6.6011,6.5986,6.5961,6.5986,6.6036,6.6061,6.6036,6.6086,6.6112,6.6112,6.5914,6.5199,6.3754,6.3201,6.1577,5.7938,5.759,5.6681,5.5073,5.4544,5.4544,5.4544,5.4544,5.4544,5.4544,5.4544,5.4544,5.4544,5.4586,5.4648,5.4606,5.4512,5.4545,5.4454,5.4349,5.4376,5.4315,5.4748,5.4923,5.5037,5.5006,5.502,5.4668,5.4648,5.4627,5.4731,5.4834,5.4648,5.4565,5.4544,5.4586,5.4627,5.4731,5.4731,5.4606,5.4544,5.4544,5.4142,5.3569,5.2394,5.1794,4.9806,4.841,7.2514,7.2138,7.1384,7.0631,6.9953,6.9602,6.9451,6.9451,6.9451,6.9451,6.9451,6.9451,6.9451,6.9451,6.9451,6.9351,6.9125,6.8773,6.8396,6.7995,6.7668,6.7392,6.7216,6.7191,6.7191,6.7191,6.7191,6.7191,6.7191,6.7191,6.7191,6.7191,6.7191,6.7015,6.6739,6.6664,6.6488,6.6162,6.6112,6.6112,6.6137,6.6112,6.6112,6.6112,6.6112,6.6112,6.6112,6.6112,6.6112,6.6112,6.6112,6.6112,6.6112,6.6112,6.6112,6.6112,6.6112,6.6112,6.6112,6.6112,6.6112,6.6112,6.6112,6.5965,6.5199,6.5025,6.3929,6.1577,5.9772,5.8491,5.6681,5.5241,5.4544,5.4544,5.4544,5.4565,5.4544,5.4544,5.4544,5.4586,5.4751,5.5062,5.5289,5.5323,5.5426,5.5252,5.5005,5.4911,5.4911,5.5107,5.5148,5.5087,5.5355,5.5579,5.5455,5.5124,5.502,5.5289,5.5414,5.5414,5.5352,5.5289,5.5331,5.5269,5.5269,5.5103,5.502,5.4689,5.4668,5.4354,5.376,5.3185,5.2992,5.1017,5.0217,7.2414,7.1887,7.151,7.1033,7.0506,7.0129,6.9978,6.9978,6.9978,6.9978,6.9978,6.9978,6.9978,6.9978,6.9978,6.9978,6.9878,6.9225,6.8798,6.8597,6.8221,6.797,6.7819,6.7819,6.7819,6.7794,6.7819,6.7819,6.7819,6.7819,6.7819,6.7794,6.7819,6.7618,6.7292,6.7241,6.7015,6.6714,6.6664,6.6664,6.6664,6.6664,6.6664,6.6664,6.6664,6.6463,6.6137,6.6112,6.6112,6.6112,6.6112,6.6112,6.6112,6.6112,6.6112,6.6112,6.6112,6.6112,6.6112,6.6112,6.6187,6.6388,6.6388,6.6438,6.6614,6.6639,6.5744,6.3908,6.1889,6.0044,5.805,5.6063,5.4855,5.4648,5.4648,5.4751,5.4772,5.4896,5.4979,5.5041,5.5248,5.5538,5.5828,5.5993,5.6076,5.6097,5.5807,5.5713,5.5713,5.5713,5.5713,5.5713,5.6004,5.6221,5.618,5.5973,5.5559,5.5724,5.5807,5.591,5.5973,5.5952,5.5931,5.591,5.5786,5.56,5.5331,5.4958,5.4751,5.4395,5.376,5.2992,5.2607,5.2221,5.1231,7.2414,7.1987,7.1887,7.156,7.1108,7.0983,7.1033,7.0958,7.0983,7.0907,7.0857,7.0983,7.0907,7.0983,7.0882,7.1008,7.0757,6.9953,6.93,6.8899,6.8723,6.8447,6.8045,6.802,6.7995,6.797,6.7894,6.7869,6.7945,6.797,6.797,6.7894,6.797,6.7945,6.7794,6.7794,6.7769,6.7668,6.7618,6.7693,6.7794,6.7668,6.7643,6.7693,6.7693,6.7216,6.6262,6.6212,6.6262,6.6237,6.6237,6.6162,6.6262,6.6262,6.6212,6.6262,6.6212,6.6187,6.6212,6.6262,6.6538,6.6865,6.699,6.7141,6.7116,6.7241,6.6508,6.444,6.2594,6.0787,5.8905,5.6844,5.5455,5.4772,5.4979,5.5186,5.5269,5.5579,5.5869,5.5828,5.5869,5.589,5.5993,5.6304,5.6552,5.6635,5.6643,5.685,5.6808,5.6808,5.6953,5.687,5.6821,5.6656,5.678,5.6842,5.6387,5.6076,5.6097,5.6138,5.6221,5.6242,5.6283,5.6262,5.6117,5.5931,5.5517,5.5165,5.4663,5.4498,5.367,5.2992,5.2607,5.2008,5.162,7.2615,7.2439,7.2062,7.1811,7.1585,7.1259,7.1083,7.1083,7.1083,7.1083,7.1083,7.1083,7.1083,7.1083,7.1083,7.1083,7.1058,7.0706,7.048,7.028,6.9928,6.9652,6.9426,6.91,6.8924,6.8924,6.8924,6.8924,6.8899,6.8899,6.8924,6.8949,6.8924,6.8723,6.8371,6.8346,6.8221,6.7844,6.7819,6.7819,6.7819,6.7819,6.7819,6.7819,6.7819,6.7593,6.7292,6.7267,6.7292,6.7267,6.7267,6.7267,6.7267,6.7292,6.7267,6.7267,6.7292,6.7267,6.7267,6.7267,6.7292,6.7493,6.7543,6.6863,6.5893,6.5762,6.4861,6.2964,6.09,5.9416,5.8677,5.6992,5.596,5.5496,5.5579,5.5662,5.5703,5.5807,5.6014,5.6304,5.6345,5.6469,5.6718,5.6966,5.6966,5.6987,5.6932,5.6835,5.6635,5.6835,5.6635,5.6594,5.6671,5.6987,5.7028,5.7049,5.6842,5.6594,5.6552,5.6511,5.6573,5.6594,5.6635,5.6614,5.6469,5.62,5.5786,5.5393,5.4911,5.4368,5.3458,5.3013,5.2394,5.2008,5.162,7.274,7.269,7.2364,7.2213,7.2188,7.1811,7.1686,7.1686,7.1686,7.1686,7.1711,7.1711,7.1686,7.1711,7.1711,7.1686,7.1686,7.1711,7.1686,7.156,7.0882,7.0581,7.0531,7.0229,6.9903,6.9777,6.9752,6.9627,6.9451,6.9451,6.9451,6.9426,6.9451,6.9275,6.8949,6.8924,6.8723,6.8447,6.8422,6.8396,6.8422,6.8396,6.8422,6.8422,6.8422,6.8422,6.8396,6.8396,6.8221,6.7894,6.7819,6.7819,6.7819,6.7794,6.7819,6.7819,6.7794,6.7794,6.7819,6.7744,6.7919,6.8045,6.812,6.728,6.5706,6.539,6.4633,6.3525,6.1865,6.0517,6.0349,5.8643,5.7325,5.6366,5.6221,5.6221,5.6324,5.6387,5.649,5.6738,5.6821,5.6966,5.7132,5.7215,5.7215,5.7235,5.6835,5.6635,5.6635,5.6835,5.6635,5.6635,5.6994,5.7173,5.7194,5.7215,5.7215,5.7132,5.707,5.7008,5.7008,5.7008,5.7008,5.6987,5.6863,5.6614,5.6221,5.5766,5.5393,5.4463,5.3498,5.28,5.2394,5.1814,5.1231,7.274,7.274,7.2715,7.269,7.269,7.264,7.259,7.2665,7.2665,7.2615,7.264,7.2565,7.2615,7.2665,7.2539,7.2539,7.269,7.259,7.2565,7.2339,7.1686,7.1184,7.0983,7.0907,7.0656,7.0355,7.0305,7.0054,6.9752,6.9627,6.9501,6.9551,6.9501,6.9451,6.9351,6.9426,6.9351,6.93,6.9325,6.9325,6.9325,6.9351,6.9351,6.9325,6.9325,6.93,6.9275,6.925,6.8874,6.807,6.8045,6.807,6.7945,6.7894,6.802,6.8045,6.7945,6.7995,6.7945,6.807,6.8221,6.8622,6.8494,6.7925,6.6552,6.6183,6.5628,6.4882,6.3376,6.2471,6.1896,6.0545,5.883,5.753,5.6801,5.678,5.7132,5.7152,5.7111,5.7132,5.7215,5.7215,5.7215,5.7215,5.7215,5.7215,5.7035,5.7035,5.7035,5.6815,5.7035,5.7035,5.7035,5.7215,5.7215,5.7215,5.7215,5.7215,5.7215,5.7215,5.7215,5.7215,5.7215,5.7194,5.7152,5.6925,5.6594,5.6055,5.5406,5.4219,5.3508,5.29,5.2201,5.162,5.1037,7.274,7.274,7.274,7.274,7.274,7.274,7.274,7.274,7.274,7.274,7.274,7.274,7.274,7.274,7.274,7.274,7.274,7.274,7.274,7.269,7.2489,7.1786,7.1234,7.1108,7.1033,7.0882,7.0857,7.0782,7.0631,7.0229,7.0054,7.0029,6.9702,6.9501,6.9451,6.9501,6.9451,6.9451,6.9451,6.9476,6.9501,6.9501,6.9451,6.9451,6.9451,6.9451,6.9451,6.9451,6.9351,6.9074,6.8999,6.8999,6.8949,6.8924,6.8899,6.8924,6.8949,6.8974,6.8974,6.8974,6.9074,6.92,6.9175,6.8346,6.6561,6.64,6.4883,6.2775,6.1259,6.0483,5.9134,5.8366,5.7813,5.7414,5.709,5.707,5.7173,5.7215,5.7215,5.7215,5.7215,5.7215,5.7215,5.7215,5.7215,5.7235,5.7035,5.6635,5.6815,5.6835,5.6835,5.6835,5.6835,5.7015,5.7215,5.7215,5.7215,5.7215,5.7215,5.7215,5.7215,5.7215,5.7215,5.7215,5.7015,5.685,5.6635,5.6159,5.516,5.4167,5.3548,5.284,5.2027,5.1426,5.1037,7.2966,7.274,7.274,7.274,7.274,7.274,7.274,7.274,7.274,7.274,7.274,7.274,7.274,7.274,7.274,7.274,7.274,7.274,7.274,7.274,7.269,7.2339,7.1887,7.1786,7.1661,7.1435,7.1435,7.1284,7.1058,7.0757,7.0631,7.0556,7.028,7.0129,7.0179,7.0129,7.0129,7.0154,7.0129,7.0129,7.0129,7.0129,6.9978,6.9853,6.9777,6.9727,6.9501,6.9451,6.9451,6.9426,6.9426,6.9451,6.9451,6.9451,6.9451,6.9451,6.9451,6.9426,6.9451,6.9451,6.9451,6.9451,6.9451,6.7922,6.5818,6.5071,6.3538,6.1066,6.0288,5.9723,5.8761,5.7813,5.7215,5.7215,5.7215,5.7215,5.7215,5.7215,5.7215,5.7215,5.7215,5.7215,5.7215,5.7215,5.7215,5.7215,5.7035,5.6835,5.6835,5.6835,5.6635,5.6835,5.6835,5.7015,5.7215,5.7215,5.7215,5.7215,5.7215,5.7215,5.7215,5.7215,5.7215,5.7215,5.7035,5.6732,5.6582,5.5972,5.4911,5.4073,5.3375,5.2667,5.1833,5.0842,5.0627,7.3343,7.2816,7.2816,7.2791,7.274,7.274,7.274,7.274,7.274,7.274,7.274,7.274,7.274,7.274,7.274,7.274,7.274,7.274,7.274,7.274,7.274,7.2615,7.2565,7.2514,7.2339,7.2037,7.1987,7.1761,7.1485,7.1284,7.1184,7.1108,7.1058,7.1033,7.0882,7.0958,7.1058,7.0958,7.0882,7.0882,7.0882,7.0857,7.0681,7.038,7.0179,6.9978,6.9677,6.9501,6.9451,6.9451,6.9451,6.9451,6.9451,6.9451,6.9451,6.9451,6.9451,6.9451,6.9451,6.9451,6.9451,6.9451,6.9451,6.7715,6.5047,6.4295,6.3157,6.0483,6.0288,5.9919,5.9331,5.8189,5.7414,5.7215,5.7215,5.7215,5.7215,5.7215,5.7215,5.7215,5.7215,5.7215,5.7215,5.7215,5.7215,5.7215,5.7015,5.7015,5.7015,5.7015,5.7035,5.7015,5.7015,5.7215,5.7215,5.7215,5.7215,5.7215,5.7215,5.7215,5.7215,5.7215,5.7215,5.7215,5.7015,5.6815,5.6732,5.5862,5.4856,5.4019,5.3321,5.2419,5.162,5.0627,5.0021,7.392,7.3418,7.3418,7.3142,7.2765,7.274,7.274,7.274,7.274,7.274,7.274,7.274,7.274,7.274,7.274,7.274,7.274,7.274,7.274,7.274,7.274,7.274,7.274,7.274,7.2665,7.2514,7.2539,7.2464,7.2263,7.1887,7.1736,7.1686,7.141,7.1108,7.1158,7.1234,7.1083,7.1083,7.1133,7.1184,7.1184,7.1184,7.1108,7.0882,7.0506,7.0255,7.0029,6.9677,6.9451,6.9451,6.9501,6.9577,6.9476,6.9451,6.9451,6.9451,6.9451,6.9451,6.9451,6.9476,6.9451,6.9451,6.932,6.8312,6.6214,6.5445,6.3727,6.1259,6.0288,5.9527,5.8189,5.7614,5.7215,5.7215,5.7215,5.7215,5.7215,5.7215,5.7215,5.7215,5.7215,5.7215,5.7215,5.7215,5.7215,5.7215,5.7215,5.7215,5.7215,5.7215,5.7215,5.7215,5.7215,5.7215,5.7215,5.7215,5.7215,5.7215,5.7215,5.7215,5.7215,5.7215,5.7215,5.7215,5.7215,5.7015,5.6614,5.576,5.4674,5.3958,5.3051,5.207,5.1017,5.0021,4.841,7.4473,7.3971,7.3694,7.3418,7.3117,7.2841,7.274,7.274,7.274,7.274,7.274,7.274,7.274,7.274,7.274,7.274,7.274,7.274,7.274,7.274,7.274,7.274,7.274,7.274,7.274,7.274,7.2715,7.274,7.264,7.2464,7.2288,7.2288,7.1962,7.1937,7.1861,7.1811,7.1887,7.1887,7.1861,7.1861,7.1861,7.1861,7.1661,7.141,7.0958,7.0656,7.0606,7.0405,7.0255,7.0229,7.0204,6.9928,6.9526,6.9451,6.9451,6.9451,6.9451,6.9451,6.9451,6.9652,6.9727,6.9476,6.9677,6.7727,6.5914,6.486,6.2966,6.0114,5.8761,5.8189,5.7414,5.7215,5.7215,5.7215,5.7215,5.7215,5.7215,5.7215,5.7215,5.7215,5.7215,5.7215,5.7215,5.7215,5.7215,5.7215,5.7215,5.7215,5.7215,5.7215,5.7215,5.7215,5.7215,5.7215,5.7215,5.7215,5.7215,5.7215,5.7215,5.7215,5.7215,5.7215,5.7215,5.7215,5.7015,5.6635,5.609,5.5399,5.4517,5.3469,5.2562,5.1484,5.0413,4.902,4.7004,7.505,7.4498,7.4046,7.3745,7.3544,7.3092,7.2816,7.274,7.274,7.274,7.274,7.274,7.274,7.274,7.2866,7.2866,7.2866,7.274,7.274,7.274,7.274,7.274,7.274,7.274,7.274,7.274,7.274,7.274,7.274,7.2715,7.2615,7.269,7.269,7.2539,7.2665,7.2715,7.259,7.2539,7.2539,7.2565,7.259,7.259,7.2389,7.2037,7.151,7.1234,7.1158,7.1058,7.1008,7.1083,7.1083,7.0581,7.0003,6.9702,6.9702,6.9727,6.9828,6.9878,6.9953,7.0154,7.0204,6.9727,7.0104,6.824,6.5094,6.3715,6.1809,5.9434,5.7684,5.758,5.7339,5.7256,5.7235,5.7215,5.7215,5.7215,5.7215,5.7215,5.7215,5.7215,5.7215,5.7215,5.7215,5.7215,5.7215,5.7215,5.7215,5.7215,5.7215,5.7215,5.7215,5.7215,5.7215,5.7215,5.7215,5.7215,5.7215,5.7215,5.7215,5.7215,5.7215,5.7215,5.7215,5.7015,5.6835,5.6434,5.589,5.5204,5.4363,5.3073,5.2246,5.1366,4.9939,4.8249,4.5604,7.5603,7.5101,7.5,7.4448,7.3669,7.3494,7.3167,7.2765,7.2765,7.274,7.274,7.274,7.274,7.2841,7.3268,7.3418,7.3293,7.3042,7.2765,7.274,7.274,7.274,7.274,7.274,7.274,7.274,7.274,7.274,7.274,7.274,7.274,7.274,7.274,7.274,7.2791,7.274,7.2841,7.2916,7.2866,7.2816,7.2816,7.274,7.269,7.2464,7.2012,7.1811,7.1661,7.1334,7.1083,7.1083,7.1083,7.1008,7.0857,7.0807,7.0782,7.0681,7.0656,7.0606,7.0656,7.0832,7.0907,7.0857,7.0882,6.8974,6.5961,6.437,6.2302,5.9539,5.798,5.7815,5.7794,5.7566,5.7297,5.7256,5.7277,5.7256,5.7235,5.7215,5.7215,5.7215,5.7215,5.7215,5.7215,5.7215,5.7215,5.7215,5.7215,5.7215,5.7215,5.7215,5.7215,5.7215,5.7215,5.7215,5.7215,5.7215,5.7215,5.7215,5.7215,5.7215,5.7215,5.7215,5.7215,5.7215,5.7035,5.6835,5.6189,5.5285,5.4325,5.3331,5.2285,5.1228,4.899,4.6822,4.48,7.5904,7.5653,7.5352,7.495,7.4397,7.382,7.3443,7.3142,7.2866,7.274,7.274,7.274,7.274,7.2891,7.3343,7.3594,7.3519,7.3343,7.3016,7.2816,7.274,7.274,7.274,7.274,7.274,7.274,7.274,7.274,7.274,7.274,7.274,7.274,7.274,7.2866,7.3117,7.3217,7.3343,7.3443,7.3318,7.3167,7.3117,7.2941,7.274,7.264,7.2514,7.2339,7.2288,7.2138,7.1937,7.1962,7.1937,7.1937,7.1912,7.1836,7.1661,7.1234,7.1133,7.1108,7.1184,7.1284,7.1384,7.1133,7.1334,6.9389,6.6336,6.445,6.2791,5.9963,5.8498,5.827,5.827,5.8043,5.7856,5.7629,5.7566,5.7463,5.7297,5.7235,5.7235,5.7235,5.7215,5.7215,5.7215,5.7215,5.7215,5.7215,5.7215,5.7215,5.7215,5.7215,5.7215,5.7215,5.7215,5.7215,5.7215,5.7215,5.7215,5.7215,5.7215,5.7215,5.7215,5.7215,5.7215,5.7215,5.7015,5.7035,5.607,5.5226,5.4405,5.339,5.2561,5.1147,4.7998,4.5203,4.3587,7.6055,7.6004,7.5578,7.5327,7.5101,7.4322,7.3795,7.3519,7.3117,7.2841,7.274,7.274,7.274,7.2891,7.3293,7.3694,7.3845,7.377,7.3318,7.3016,7.2791,7.274,7.274,7.274,7.274,7.274,7.274,7.274,7.274,7.274,7.274,7.2791,7.2791,7.3092,7.3468,7.3669,7.4046,7.4121,7.4021,7.3745,7.3494,7.3167,7.2816,7.274,7.274,7.269,7.2665,7.2615,7.259,7.2615,7.264,7.2665,7.2715,7.2715,7.2313,7.1585,7.141,7.141,7.156,7.1786,7.1912,7.1661,7.1861,6.9425,6.6151,6.4162,6.2323,5.967,5.8767,5.8746,5.8746,5.8643,5.8415,5.8187,5.8022,5.7918,5.7587,5.7422,5.7359,5.7318,5.7256,5.7235,5.7256,5.7215,5.7215,5.7215,5.7215,5.7215,5.7215,5.7215,5.7215,5.7215,5.7215,5.7215,5.7215,5.7215,5.7215,5.7215,5.7215,5.7215,5.7215,5.7215,5.7215,5.7215,5.7215,5.6994,5.607,5.5326,5.4744,5.3926,5.2876,5.063,4.72,4.5019,4.3587,7.6055,7.6055,7.5979,7.5678,7.5276,7.505,7.4448,7.3669,7.3544,7.3192,7.2816,7.2765,7.2791,7.2991,7.3443,7.4171,7.4498,7.4146,7.3694,7.3443,7.3042,7.2816,7.2765,7.274,7.2816,7.2891,7.2841,7.274,7.2866,7.2866,7.2765,7.2866,7.3268,7.3569,7.3845,7.4146,7.4347,7.4423,7.4372,7.4096,7.3694,7.3544,7.3268,7.2966,7.2841,7.2841,7.2866,7.2841,7.2791,7.274,7.274,7.274,7.274,7.274,7.2715,7.2565,7.2539,7.2539,7.2439,7.2464,7.2514,7.2339,7.2514,7.0179,6.665,6.2844,6.0674,6.0219,5.9471,5.9243,5.916,5.8871,5.8664,5.856,5.8519,5.827,5.796,5.7836,5.7732,5.7608,5.7608,5.7422,5.7318,5.7256,5.7215,5.7215,5.7215,5.7215,5.7215,5.7215,5.7215,5.7215,5.7215,5.7215,5.7215,5.7215,5.7215,5.7215,5.7215,5.7215,5.7215,5.7215,5.7215,5.7215,5.7215,5.6815,5.6172,5.5567,5.5065,5.4265,5.3193,5.0034,4.6128,4.4632,4.3401,7.6055,7.6055,7.6055,7.5929,7.5678,7.5377,7.4975,7.4548,7.4197,7.3745,7.3293,7.3217,7.3368,7.372,7.4272,7.4774,7.5075,7.4699,7.4322,7.3971,7.3519,7.3217,7.3217,7.3217,7.3217,7.3293,7.3519,7.377,7.3619,7.3368,7.3217,7.3293,7.3795,7.4272,7.4397,7.4724,7.505,7.5176,7.505,7.4598,7.4197,7.4046,7.3946,7.3694,7.3644,7.3494,7.3268,7.3217,7.3016,7.2841,7.274,7.274,7.274,7.274,7.2715,7.2715,7.2715,7.269,7.269,7.274,7.274,7.2715,7.2336,7.071,6.6753,6.2784,5.9988,5.9968,5.9823,5.9699,5.9657,5.9512,5.9264,5.9119,5.8995,5.8705,5.8457,5.8374,5.825,5.8105,5.796,5.7794,5.7608,5.7463,5.7359,5.7215,5.7215,5.7215,5.7215,5.7215,5.7215,5.7215,5.7215,5.7215,5.7215,5.7215,5.7215,5.7215,5.7215,5.7215,5.7215,5.7215,5.7015,5.6835,5.6635,5.6434,5.6031,5.589,5.5446,5.4385,5.3311,4.9785,4.6355,4.4885,4.35,7.6055,7.6055,7.6055,7.6055,7.603,7.5628,7.5352,7.5176,7.4799,7.4322,7.392,7.382,7.4096,7.4573,7.5,7.5251,7.5452,7.5301,7.5,7.4548,7.4121,7.3845,7.3795,7.3795,7.3795,7.3795,7.4071,7.4247,7.4247,7.4171,7.3996,7.3845,7.4347,7.4774,7.5126,7.5377,7.5603,7.5829,7.5603,7.5151,7.4724,7.4623,7.4523,7.4423,7.4372,7.4222,7.3895,7.3795,7.3519,7.3343,7.3268,7.3318,7.3293,7.3318,7.3192,7.3117,7.3042,7.2916,7.2816,7.274,7.274,7.2526,7.1716,6.9744,6.5979,6.2395,6.0407,6.0198,5.9968,5.9968,5.9988,5.9947,5.9761,5.9554,5.9471,5.916,5.8912,5.8829,5.8643,5.8394,5.8291,5.8291,5.8084,5.7794,5.7566,5.7297,5.7215,5.7235,5.7215,5.7215,5.7215,5.7215,5.7215,5.7215,5.7215,5.7215,5.7215,5.7235,5.7235,5.7035,5.7056,5.6835,5.6635,5.6434,5.6253,5.583,5.5628,5.5749,5.5608,5.4364,5.271,5.0064,4.7261,4.5564,4.3305,7.6055,7.6055,7.6055,7.6055,7.6055,7.603,7.5703,7.5327,7.5226,7.4875,7.4397,7.4372,7.4649,7.5075,7.5251,7.5552,7.5954,7.5477,7.5276,7.505,7.4674,7.4397,7.4347,7.4372,7.4372,7.4372,7.4623,7.4623,7.4598,7.5101,7.4774,7.4523,7.5,7.5151,7.5502,7.5929,7.613,7.6281,7.608,7.5778,7.5377,7.5176,7.4975,7.4623,7.4473,7.4397,7.4372,7.4372,7.4247,7.4096,7.4046,7.4046,7.3996,7.4021,7.3845,7.3619,7.3519,7.3318,7.3016,7.2791,7.274,7.2122,7.0926,6.8747,6.5578,6.3805,6.2004,6.0595,6.0407,5.9988,5.9988,5.9988,5.9926,5.9864,5.974,5.9574,5.9367,5.9305,5.9098,5.8746,5.8664,5.8767,5.8643,5.8394,5.8022,5.7753,5.7422,5.7422,5.7256,5.7215,5.7215,5.7215,5.7215,5.7215,5.7215,5.7215,5.7215,5.7297,5.7339,5.6938,5.6717,5.6495,5.6577,5.6112,5.5749,5.5283,5.5021,5.5184,5.4842,5.39,5.2118,4.9496,4.6252,4.3429,4.1775,7.6055,7.6055,7.6055,7.6055,7.6055,7.6055,7.5929,7.5778,7.5728,7.5427,7.4925,7.4925,7.5025,7.5276,7.5628,7.5829,7.603,7.5879,7.5753,7.5552,7.5226,7.4975,7.4925,7.4925,7.4925,7.5,7.5201,7.5427,7.5527,7.5929,7.6105,7.6004,7.5829,7.5979,7.6281,7.6682,7.6933,7.6908,7.6733,7.6406,7.6281,7.5879,7.5628,7.5477,7.5427,7.5226,7.5,7.4925,7.4724,7.4548,7.4473,7.4498,7.4523,7.4523,7.4372,7.4146,7.4096,7.3795,7.3268,7.2966,7.274,7.2336,7.0759,6.8771,6.6378,6.4796,6.3193,6.1798,6.0595,5.9988,5.9988,5.9988,5.9988,5.9988,5.9947,5.9843,5.9761,5.9657,5.9595,5.9264,5.9305,5.9409,5.9222,5.9015,5.8622,5.8229,5.7898,5.7566,5.7401,5.7235,5.7215,5.7215,5.7215,5.7215,5.7215,5.7215,5.7235,5.7359,5.7484,5.7185,5.7044,5.6842,5.6701,5.597,5.524,5.4996,5.4733,5.4654,5.3848,5.252,5.1051,4.9139,4.554,4.1803,4.0799,7.6055,7.6055,7.6055,7.6055,7.6055,7.6055,7.6055,7.6055,7.6055,7.5879,7.5502,7.5477,7.5477,7.5603,7.5829,7.603,7.6055,7.603,7.6055,7.5879,7.5653,7.5502,7.5477,7.5477,7.5477,7.5603,7.6004,7.6281,7.6256,7.6858,7.6984,7.6908,7.6783,7.6858,7.7059,7.7461,7.7712,7.7586,7.7385,7.7109,7.7034,7.6607,7.6306,7.6205,7.608,7.5804,7.5552,7.5477,7.5327,7.5126,7.5,7.495,7.4925,7.4875,7.4824,7.4724,7.4598,7.4397,7.3845,7.3167,7.2386,7.1359,7.1525,6.9938,6.8159,6.5779,6.4392,6.2805,6.1198,6.0009,6.0009,5.9988,5.9988,5.9988,5.9988,5.9926,5.9926,5.9864,5.9885,5.9823,5.9843,5.9781,5.9699,5.945,5.9036,5.856,5.8043,5.7753,5.7608,5.7422,5.7215,5.7215,5.7215,5.7215,5.7215,5.738,5.7566,5.7691,5.7836,5.7657,5.7515,5.7311,5.6903,5.6042,5.5267,5.46,5.3866,5.3042,5.2119,5.0734,4.8917,4.6748,4.4272,4.0929,4.0743,7.6055,7.6055,7.6055,7.6055,7.6055,7.6055,7.6055,7.6055,7.6055,7.603,7.5954,7.5979,7.5979,7.5979,7.603,7.6055,7.6055,7.6055,7.6055,7.6004,7.5954,7.5979,7.5979,7.5929,7.5879,7.613,7.6456,7.6707,7.6783,7.7411,7.7637,7.7737,7.7687,7.7662,7.7712,7.7712,7.7737,7.7737,7.7762,7.7687,7.7561,7.7159,7.6908,7.6632,7.6406,7.613,7.5929,7.5879,7.5778,7.5728,7.5728,7.5728,7.5753,7.5778,7.5603,7.5251,7.5226,7.495,7.4397,7.3368,7.2205,7.122,7.1921,7.1245,6.808,6.647,6.576,6.4566,6.2032,6.0511,6.026,6.003,6.0071,5.9988,5.9988,5.9988,5.9988,5.9988,5.9988,5.9988,5.9988,5.9988,5.9968,5.9843,5.9409,5.8912,5.827,5.796,5.7815,5.7629,5.7422,5.7215,5.7235,5.7359,5.7422,5.7691,5.7877,5.8001,5.8005,5.8068,5.7986,5.7781,5.7142,5.6314,5.5701,5.5012,5.3196,5.143,4.9951,4.828,4.5939,4.3756,4.1677,4.062,4.0387,7.6055,7.6055,7.6055,7.6055,7.6055,7.6055,7.6055,7.6055,7.6055,7.6055,7.6055,7.6055,7.6055,7.6055,7.6055,7.6055,7.6055,7.6055,7.6055,7.6055,7.6055,7.6055,7.6055,7.6055,7.608,7.6205,7.6582,7.6933,7.6858,7.7787,7.8189,7.8289,7.849,7.8591,7.849,7.854,7.8817,7.8741,7.8515,7.8239,7.8164,7.7712,7.7285,7.6959,7.6707,7.6406,7.613,7.6105,7.6055,7.6055,7.6055,7.6055,7.6055,7.6055,7.5979,7.5778,7.5753,7.5527,7.4975,7.4272,7.3678,7.3243,7.295,7.2925,7.181,7.0214,6.8597,6.6305,6.4001,6.2293,6.0949,6.0485,6.0423,6.0071,5.9988,5.9988,5.9988,5.9988,5.9988,5.9988,5.9988,5.9988,5.9988,5.9988,5.9678,5.9492,5.8974,5.8374,5.8125,5.7898,5.767,5.7339,5.7256,5.7442,5.7649,5.8001,5.827,5.8415,5.8479,5.8789,5.8644,5.8437,5.7815,5.719,5.6305,5.5215,5.2313,4.9637,4.7687,4.5623,4.3628,4.2339,4.1234,4.0592,4.0563,7.6055,7.6055,7.6055,7.6055,7.6055,7.6055,7.6055,7.6055,7.6055,7.6055,7.6055,7.6055,7.6055,7.6055,7.6055,7.6055,7.6055,7.6055,7.6055,7.6055,7.6055,7.6055,7.6055,7.608,7.623,7.6406,7.6858,7.726,7.7586,7.839,7.8766,7.8917,7.9193,7.9068,7.8992,7.9143,7.9294,7.9193,7.8942,7.8842,7.8666,7.8314,7.7837,7.7486,7.7109,7.6707,7.6381,7.6205,7.608,7.6105,7.608,7.608,7.608,7.6055,7.6055,7.6055,7.603,7.5854,7.5477,7.5276,7.4975,7.478,7.4699,7.4448,7.401,7.2053,7.0022,6.7802,6.6068,6.3667,6.1598,6.1132,6.0734,6.0382,6.0216,6.0216,6.003,6.003,5.9988,5.9988,5.9988,5.9988,5.9988,5.9988,5.9885,5.9802,5.9699,5.9078,5.8477,5.825,5.8063,5.7773,5.7649,5.7898,5.8146,5.8415,5.8664,5.8808,5.9119,5.9242,5.9325,5.9117,5.8679,5.8031,5.6801,5.4878,5.0956,4.8043,4.5794,4.3925,4.2432,4.1385,4.0826,4.0782,4.0768,7.6004,7.603,7.603,7.603,7.6055,7.6055,7.6055,7.6055,7.6055,7.6055,7.6055,7.6055,7.6055,7.6055,7.6055,7.6055,7.6055,7.6055,7.6055,7.6055,7.6055,7.6055,7.6055,7.608,7.6331,7.6833,7.7335,7.7762,7.8465,7.8942,7.9243,7.9294,7.9344,7.9319,7.9319,7.9344,7.9394,7.9344,7.9294,7.9218,7.9093,7.8817,7.8465,7.8088,7.7611,7.7185,7.6858,7.6582,7.6381,7.6256,7.618,7.613,7.6105,7.6055,7.6055,7.6055,7.6055,7.603,7.608,7.5979,7.5979,7.5829,7.5201,7.4724,7.399,7.2715,7.0721,6.8443,6.6195,6.399,6.1782,6.1486,6.1189,6.0899,6.0651,6.0444,6.0154,6.005,6.0009,5.9988,5.9988,5.9988,5.9988,5.9988,5.9988,5.9947,5.9864,5.9699,5.914,5.8767,5.8581,5.8394,5.8353,5.8498,5.8705,5.885,5.9078,5.9264,5.9533,5.9823,5.9906,5.9676,5.9384,5.8504,5.7084,5.4326,4.9883,4.6372,4.3585,4.2156,4.1694,4.1517,4.1163,4.106,4.106,7.5101,7.5452,7.5477,7.5703,7.603,7.6055,7.6055,7.6055,7.6055,7.6055,7.6055,7.6055,7.6055,7.6055,7.6055,7.6055,7.6055,7.6055,7.6055,7.6055,7.6055,7.6055,7.608,7.613,7.6431,7.6908,7.7461,7.8063,7.854,7.9118,7.9394,7.9369,7.9394,7.9394,7.9394,7.9394,7.9394,7.9394,7.9394,7.9394,7.9394,7.9168,7.8892,7.849,7.8189,7.7762,7.7436,7.726,7.7109,7.7134,7.6808,7.6657,7.6632,7.6306,7.6055,7.6055,7.6105,7.618,7.6532,7.6632,7.6632,7.6632,7.6256,7.6004,7.5111,7.3648,7.1363,6.8949,6.7059,6.491,6.2713,6.1984,6.1582,6.1292,6.1044,6.0775,6.0506,6.034,6.0257,6.0113,6.0092,5.9988,5.9988,5.9988,5.9988,5.9988,5.9968,5.9885,5.9719,5.9326,5.9098,5.8933,5.8871,5.8974,5.9057,5.9202,5.945,5.9719,5.9885,5.9988,5.9968,5.9947,5.9758,5.8455,5.6057,5.2745,4.8721,4.5631,4.3023,4.2406,4.1938,4.1704,4.1499,4.1411,4.1411,7.4623,7.49,7.4925,7.5226,7.5678,7.5728,7.5829,7.603,7.6055,7.6055,7.6055,7.6055,7.6055,7.6055,7.6055,7.6055,7.6055,7.6055,7.6055,7.6055,7.6055,7.6055,7.608,7.6281,7.6758,7.721,7.7737,7.839,7.8792,7.9118,7.9394,7.9394,7.9394,7.9394,7.9394,7.9394,7.9394,7.9394,7.9394,7.9394,7.9394,7.9394,7.9143,7.8892,7.8691,7.834,7.8063,7.7913,7.7737,7.7712,7.7285,7.721,7.7185,7.6883,7.6733,7.6783,7.6808,7.6933,7.7159,7.721,7.721,7.7185,7.721,7.7009,7.6408,7.5235,7.2318,6.9871,6.8227,6.6327,6.408,6.2245,6.1955,6.1665,6.1417,6.1168,6.0941,6.0713,6.0506,6.0299,6.0175,6.005,5.9988,6.0009,5.9988,5.9988,5.9988,5.9968,5.9906,5.974,5.9554,5.9429,5.9367,5.9367,5.945,5.9512,5.9699,5.9843,5.9926,5.9988,5.9988,5.9779,5.9338,5.7375,5.4749,5.1216,4.7916,4.5498,4.3171,4.2731,4.2246,4.2085,4.188,4.1748,4.1807,7.4297,7.4347,7.4397,7.4724,7.5151,7.5251,7.5527,7.5979,7.603,7.6055,7.6055,7.6055,7.6055,7.6055,7.6055,7.6055,7.6055,7.6055,7.6055,7.6055,7.6055,7.6055,7.6205,7.6532,7.6808,7.7511,7.8038,7.8239,7.9018,7.9218,7.9218,7.9369,7.9394,7.9394,7.9394,7.9394,7.9394,7.9394,7.9394,7.9394,7.9394,7.9394,7.9394,7.9269,7.8967,7.8591,7.849,7.8214,7.7837,7.7862,7.7787,7.7787,7.7611,7.7586,7.7561,7.7561,7.7436,7.7586,7.7687,7.7762,7.7762,7.7762,7.7762,7.7611,7.7059,7.583,7.3073,7.1121,6.9448,6.7216,6.496,6.3158,6.2514,6.2162,6.1851,6.1624,6.1417,6.1168,6.092,6.0734,6.0609,6.0464,6.0444,6.0485,6.0402,6.0216,6.0133,6.0133,6.0009,5.9947,5.9906,5.9823,5.974,5.9678,5.9761,5.9823,5.9885,5.9988,5.9988,5.9988,5.9988,5.9359,5.8706,5.6504,5.3885,5.0592,4.7519,4.5303,4.3504,4.2591,4.2333,4.2363,4.226,4.2099,4.2099,7.3393,7.3845,7.4247,7.4498,7.4674,7.5075,7.5301,7.5477,7.5904,7.6055,7.6055,7.6055,7.6055,7.6055,7.6055,7.6055,7.6055,7.6055,7.6055,7.6055,7.6055,7.6055,7.608,7.6331,7.6657,7.6933,7.736,7.7988,7.8716,7.8892,7.8992,7.9344,7.9394,7.9394,7.9394,7.9394,7.9394,7.9394,7.9394,7.9394,7.9394,7.9394,7.9369,7.9369,7.9143,7.9118,7.9068,7.9043,7.8942,7.8967,7.8515,7.8164,7.7737,7.7737,7.7712,7.7712,7.7837,7.8038,7.8239,7.834,7.834,7.8314,7.8264,7.8038,7.7332,7.5764,7.4109,7.2403,7.0396,6.8088,6.5823,6.4452,6.3011,6.2638,6.2265,6.2058,6.1872,6.1624,6.1355,6.121,6.1065,6.0982,6.0941,6.0878,6.0816,6.0692,6.0589,6.0464,6.0195,6.0071,6.0092,6.003,5.9947,5.9926,5.9988,5.9988,5.9988,5.9988,5.9988,5.9988,5.9988,5.9569,5.8917,5.6096,5.347,5.0389,4.7743,4.5303,4.3731,4.2835,4.2465,4.2494,4.2567,4.2465,4.2421,7.2916,7.3242,7.3544,7.382,7.4121,7.4649,7.5,7.5327,7.5829,7.6055,7.6055,7.6055,7.6055,7.6055,7.6055,7.6055,7.6055,7.6055,7.6055,7.6055,7.6055,7.6055,7.613,7.6256,7.6607,7.6883,7.7511,7.8139,7.8691,7.8942,7.9193,7.9369,7.9394,7.9394,7.9394,7.9394,7.9394,7.9394,7.9394,7.9394,7.9394,7.9394,7.9394,7.9394,7.9394,7.9394,7.9394,7.9394,7.9394,7.9369,7.9043,7.8867,7.8591,7.854,7.8515,7.8515,7.8566,7.8566,7.8792,7.8867,7.8867,7.8867,7.8892,7.8666,7.8691,7.7316,7.582,7.404,7.14,6.9088,6.6799,6.4988,6.3721,6.299,6.2638,6.239,6.2203,6.1996,6.1789,6.1665,6.1458,6.121,6.1168,6.1168,6.1106,6.1085,6.0982,6.0941,6.0651,6.034,6.0299,6.0278,6.0237,6.0071,5.9988,5.9988,5.9988,5.9988,5.9988,5.9988,5.9988,5.9988,5.9108,5.5862,5.3035,5.0609,4.8172,4.5576,4.3747,4.2606,4.2509,4.2641,4.2714,4.2846,4.2875,7.274,7.274,7.274,7.3016,7.3519,7.4071,7.4623,7.5151,7.5703,7.6004,7.6055,7.6055,7.6055,7.6055,7.6055,7.6055,7.6055,7.6055,7.6055,7.6055,7.6055,7.6055,7.6205,7.6456,7.6657,7.7109,7.7737,7.839,7.9043,7.9068,7.9093,7.9319,7.9394,7.9394,7.9394,7.9394,7.9394,7.9394,7.9394,7.9394,7.9394,7.9394,7.9394,7.9394,7.9394,7.9394,7.9394,7.9394,7.9394,7.9369,7.9344,7.9243,7.9193,7.9118,7.9168,7.9143,7.9118,7.9193,7.9294,7.9269,7.9319,7.9344,7.9394,7.9162,7.9112,7.8035,7.6712,7.4752,7.2099,7.0183,6.7888,6.5591,6.4318,6.33,6.2948,6.2659,6.2493,6.2327,6.2203,6.2079,6.1872,6.1582,6.1541,6.152,6.1479,6.1458,6.1417,6.1375,6.1251,6.0941,6.0754,6.0692,6.0651,6.0444,6.0092,6.005,6.0071,5.9988,5.9988,5.9988,5.9988,5.9779,5.8475,5.5218,5.26,5.0662,4.8082,4.5264,4.3852,4.2753,4.2728,4.2948,4.3021,4.3153,4.3328,7.274,7.274,7.274,7.2816,7.2991,7.3519,7.4046,7.4598,7.5176,7.5628,7.5979,7.6055,7.6055,7.6055,7.6055,7.6055,7.6055,7.6055,7.6055,7.6055,7.6055,7.6055,7.6155,7.6381,7.6532,7.7059,7.7687,7.8164,7.8942,7.8917,7.8967,7.9344,7.9394,7.9394,7.9394,7.9394,7.9394,7.9394,7.9394,7.9394,7.9394,7.9394,7.9394,7.9394,7.9394,7.9394,7.9394,7.9394,7.9394,7.9394,7.9444,7.9469,7.9495,7.9495,7.9495,7.9469,7.9469,7.9394,7.9394,7.9394,7.9394,7.9394,7.9162,7.8283,7.7632,7.6582,7.5212,7.3649,7.1696,7.1342,6.9227,6.6006,6.4273,6.3549,6.3073,6.2866,6.2679,6.2597,6.2514,6.2472,6.241,6.2286,6.2265,6.2224,6.212,6.2058,6.1913,6.1851,6.1603,6.1396,6.121,6.1127,6.1065,6.0589,6.0175,6.0195,6.0195,6.0092,6.0092,6.0257,6.0026,5.9799,5.8052,5.4798,5.28,5.1023,4.8215,4.4827,4.426,4.3441,4.3371,4.3285,4.3343,4.3475,4.3665]},{"header":{"parameterUnit":"m.s-1","parameterCategory":1,"la1":31.0,"la2":29.5877,"lo1":-88.7671,"lo2":-86.6584,"dy":0.0162,"dx":0.0185,"nx":115,"ny":88,"refTime":"2023-04-29T12:00:00:Z","depth":0,"parameterNumber":3,"parameterNumberName":"V-component_of_WINDS"},"data":[0.0,0.0,0.0,0.0,0.0,0.0,0.0,0.0,0.0,0.0,0.0,0.0,0.0,0.0,0.0,0.0,0.0,0.0,0.0,0.0,0.0,0.0,0.0,0.0,0.0,0.0,0.0,0.0,0.0,0.0,0.0,0.0,0.0,0.0,0.0,0.0,0.0,0.0,0.0,0.0,0.0,0.0,0.0,0.0,0.0,0.0,0.0,0.0,0.0,0.0,0.0,0.0,0.0,0.0,0.0,0.0,0.0,0.0,0.0,0.0,0.0,0.0,0.0,0.0,0.0,0.0,0.0,0.0,0.0,0.0,0.0,0.0,0.0,0.0,0.0,0.0,0.0,0.0,0.0,0.0,0.0,0.0,0.0,0.0,0.0,0.0,0.0,0.0,0.0,0.0,0.0,0.0,0.0,0.0,0.0,0.0,0.0,0.0,0.0,0.0,0.0,0.0,0.0,0.0,0.0,0.0,0.0,0.0,0.0,0.0,0.0,0.0,0.0,0.0,0.0,0.0,0.0,0.0,0.0,0.0,0.0,0.0,0.0,0.0,0.0,0.0,0.0,0.0,0.0,0.0,0.0,0.0,0.0,0.0,0.0,0.0,0.0,0.0,0.0,0.0,0.0,0.0,0.0,0.0,0.0,0.0,0.0,0.0,0.0,0.0,0.0,0.0,0.0,0.0,0.0,0.0,0.0,0.0,0.0,0.0,0.0,0.0,0.0,0.0,0.0,0.0,0.0,0.0,0.0,0.0,0.0,0.0,0.0,0.0,0.0,0.0,0.0,0.0,0.0,0.0,0.0,0.0,0.0,0.0,0.0,0.0,0.0,0.0,0.0,0.0,0.0,0.0,0.0,0.0,0.0,0.0,0.0,0.0,0.0,0.0,0.0,0.0,0.0,0.0,0.0,0.0,0.0,0.0,0.0,0.0,0.0,0.0,0.0,0.0,0.0,0.0,0.0,0.0,0.0,0.0,0.0,0.0,0.0,0.0,0.0,0.0,0.0,0.0,0.0,0.0,0.0,0.0,0.0,0.0,0.0,0.0,0.0,0.0,0.0,0.0,0.0,0.0,0.0,0.0,0.0,0.0,0.0,0.0,0.0,0.0,0.0,0.0,0.0,0.0,0.0,0.0,0.0,0.0,0.0,0.0,0.0,0.0,0.0,0.0,0.0,0.0,0.0,0.0,0.0,0.0,0.0,0.0,0.0,0.0,0.0,0.0,0.0,0.0,0.0,0.0,0.0,0.0,0.0,0.0,0.0,0.0,0.0,0.0,0.0,0.0,0.0,0.0,0.0,0.0,0.0,0.0,0.0,0.0,0.0,0.0,0.0,0.0,0.0,0.0,0.0,0.0,0.0,0.0,0.0,0.0,0.0,0.0,0.0,0.0,0.0,0.0,0.0,0.0,0.0,0.0,0.0,0.0,0.0,0.0,0.0,0.0,0.0,0.0,0.0,0.0,0.0,0.0,0.0,0.0,0.0,0.0,0.0,0.0,0.0,0.0,0.0,0.0,0.0,0.0,0.0,0.0,0.0,0.0,0.0,0.0,0.0,0.0,0.0,0.0,0.0,0.0,0.0,0.0,0.0,0.0,0.0,0.0,0.0,0.0,0.0,0.0,0.0,0.0,0.0,0.0,0.0,0.0,0.0,0.0,0.0,0.0,0.0,0.0,0.0,0.0,0.0,0.0,0.0,0.0,0.0,0.0,0.0,0.0,0.0,0.0,0.0,0.0,0.0,0.0,0.0,0.0,0.0,0.0,0.0,0.0,0.0,0.0,0.0,0.0,0.0,0.0,0.0,0.0,0.0,0.0,0.0,0.0,0.0,0.0,0.0,0.0,0.0,0.0,0.0,0.0,0.0,0.0,0.0,0.0,0.0,0.0,0.0,0.0,0.0,0.0,0.0,0.0,0.0,0.0,0.0,0.0,0.0,0.0,0.0,0.0,0.0,0.0,0.0,0.0,0.0,0.0,0.0,0.0,0.0,0.0,0.0,0.0,0.0,0.0,0.0,0.0,0.0,0.0,0.0,0.0,0.0,0.0,0.0,0.0,0.0,0.0,0.0,0.0,0.0,0.0,0.0,0.0,0.0,0.0,0.0,0.0,0.0,0.0,0.0,0.0,0.0,0.0,0.0,0.0,0.0,0.0,0.0,0.0,0.0,0.0,0.0,0.0,0.0,0.0,0.0,0.0,0.0,0.0,0.0,0.0,0.0,0.0,0.0,0.0,0.0,0.0,0.0,0.0,0.0,0.0,0.0,0.0,0.0,0.0,0.0,0.0,0.0,0.0,0.0,0.0,0.0,0.0,0.0,0.0,0.0,0.0,0.0,0.0,0.0,0.0,0.0,0.0,0.0,0.0,0.0,0.0,0.0,0.0,0.0,0.0,0.0,0.0,0.0,0.0,0.0,0.0,0.0,0.0,0.0,0.0,0.0,0.0,0.0,0.0,0.0,0.0,0.0,0.0,0.0,0.0,0.0,0.0,0.0,0.0,0.0,0.0,0.0,0.0,0.0,0.0,0.0,0.0,0.0,0.0,0.0,0.0,0.0,0.0,0.0,0.0,0.0,0.0,0.0,0.0,0.0,0.0,0.0,0.0,0.0,0.0,0.0,0.0,0.0,0.0,0.0,0.0,0.0,0.0,0.0,0.0,0.0,0.0,0.0,0.0,0.0,0.0,0.0,0.0,0.0,0.0,0.0,0.0,0.0,0.0,0.0,0.0,0.0,0.0,0.0,0.0,0.0,0.0,0.0,0.0,0.0,0.0,0.0,0.0,0.0,0.0,0.0,0.0,0.0,0.0,0.0,0.0,0.0,0.0,0.0,0.0,0.0,0.0,0.0,0.0,0.0,0.0,0.0,0.0,0.0,0.0,0.0,0.0,0.0,0.0,0.0,0.0,0.0,0.0,0.0,0.0,0.0,0.0,0.0,0.0,0.0,0.0,0.0,0.0,0.0,0.0,0.0,0.0,0.0,0.0,0.0,0.0,0.0,0.0,0.0,0.0,0.0,0.0,0.0,0.0,0.0,0.0,0.0,0.0,0.0,0.0,0.0,0.0,0.0,0.0,0.0,0.0,0.0,0.0,0.0,0.0,0.0,0.0,0.0,0.0,0.0,0.0,0.0,0.0,0.0,0.0,0.0,0.0,0.0,0.0,0.0,0.0,0.0,0.0,0.0,0.0,0.0,0.0,0.0,0.0,0.0,0.0,0.0,0.0,0.0,0.0,0.0,0.0,0.0,0.0,0.0,0.0,0.0,0.0,0.0,0.0,0.0,0.0,0.0,0.0,0.0,0.0,0.0,0.0,0.0,0.0,0.0,0.0,0.0,0.0,0.0,0.0,0.0,0.0,0.0,0.0,0.0,0.0,0.0,0.0,0.0,0.0,0.0,0.0,0.0,0.0,0.0,0.0,0.0,0.0,0.0,0.0,0.0,0.0,0.0,0.0,0.0,0.0,0.0,0.0,0.0,0.0,0.0,0.0,0.0,0.0,0.0,0.0,0.0,0.0,0.0,0.0,0.0,0.0,0.0,0.0,0.0,0.0,0.0,0.0,0.0,0.0,0.0,0.0,0.0,0.0,0.0,0.0,0.0,0.0,0.0,0.0,0.0,0.0,0.0,0.0,0.0,0.0,0.0,0.0,0.0,0.0,0.0,0.0,0.0,0.0,0.0,0.0,0.0,0.0,0.0,0.0,0.0,0.0,0.0,0.0,0.0,0.0,0.0,0.0,0.0,0.0,0.0,0.0,0.0,0.0,0.0,0.0,0.0,0.0,0.0,0.0,0.0,0.0,0.0,0.0,0.0,0.0,0.0,0.0,0.0,0.0,0.0,0.0,0.0,0.0,0.0,0.0,0.0,0.0,0.0,0.0,0.0,0.0,0.0,0.0,0.0,0.0,0.0,0.0,0.0,0.0,0.0,0.0,0.0,0.0,0.0,0.0,0.0,0.0,0.0,0.0,0.0,0.0,0.0,0.0,0.0,0.0,0.0,0.0,0.0,0.0,0.0,0.0,0.0,0.0,0.0,0.0,0.0,0.0,0.0,0.0,0.0,0.0,0.0,0.0,0.0,0.0,0.0,0.0,0.0,0.0,0.0,0.0,0.0,0.0,0.0,0.0,0.0,0.0,0.0,0.0,0.0,0.0,0.0,0.0,0.0,0.0,0.0,0.0,0.0,0.0,0.0,0.0,0.0,0.0,0.0,0.0,0.0,0.0,0.0,0.0,0.0,0.0,0.0,0.0,0.0,0.0,0.0,0.0,0.0,0.0,-5.4229,0.0,0.0,0.0,0.0,0.0,0.0,0.0,0.0,0.0,0.0,0.0,0.0,0.0,0.0,0.0,0.0,0.0,0.0,0.0,0.0,0.0,0.0,0.0,0.0,0.0,0.0,0.0,0.0,0.0,0.0,0.0,0.0,0.0,0.0,0.0,0.0,0.0,0.0,0.0,0.0,0.0,0.0,0.0,0.0,0.0,0.0,0.0,0.0,0.0,0.0,0.0,0.0,0.0,0.0,0.0,0.0,0.0,0.0,0.0,0.0,0.0,0.0,0.0,0.0,0.0,0.0,0.0,0.0,0.0,0.0,0.0,0.0,0.0,0.0,0.0,0.0,0.0,0.0,0.0,0.0,0.0,0.0,0.0,0.0,0.0,0.0,0.0,0.0,0.0,0.0,0.0,0.0,0.0,0.0,0.0,0.0,0.0,0.0,0.0,0.0,0.0,0.0,0.0,0.0,0.0,0.0,0.0,0.0,0.0,0.0,-5.562,-5.562,-5.4924,-5.4527,-5.4527,0.0,0.0,0.0,0.0,0.0,0.0,0.0,0.0,0.0,0.0,0.0,0.0,0.0,0.0,0.0,0.0,0.0,0.0,0.0,0.0,0.0,0.0,0.0,0.0,0.0,0.0,0.0,0.0,0.0,0.0,0.0,0.0,0.0,0.0,0.0,0.0,0.0,0.0,0.0,0.0,0.0,0.0,0.0,0.0,0.0,0.0,0.0,0.0,0.0,0.0,0.0,0.0,0.0,0.0,0.0,0.0,0.0,0.0,0.0,0.0,0.0,0.0,0.0,0.0,0.0,0.0,0.0,0.0,0.0,0.0,0.0,0.0,0.0,0.0,0.0,0.0,0.0,0.0,0.0,0.0,0.0,0.0,0.0,0.0,0.0,0.0,0.0,0.0,0.0,0.0,0.0,0.0,0.0,0.0,0.0,0.0,0.0,0.0,0.0,0.0,0.0,0.0,0.0,0.0,0.0,0.0,0.0,0.0,0.0,0.0,0.0,0.0,-5.5322,-5.5024,-5.5024,0.0,0.0,0.0,0.0,0.0,0.0,0.0,0.0,0.0,0.0,0.0,0.0,0.0,0.0,0.0,0.0,0.0,0.0,0.0,0.0,0.0,0.0,0.0,0.0,0.0,0.0,0.0,0.0,0.0,0.0,0.0,0.0,0.0,0.0,0.0,0.0,0.0,0.0,0.0,0.0,0.0,0.0,0.0,0.0,0.0,0.0,0.0,0.0,0.0,0.0,0.0,0.0,0.0,0.0,0.0,0.0,0.0,0.0,0.0,0.0,0.0,0.0,0.0,0.0,0.0,0.0,0.0,0.0,0.0,0.0,0.0,0.0,0.0,0.0,0.0,0.0,0.0,0.0,0.0,0.0,0.0,0.0,0.0,0.0,0.0,0.0,0.0,0.0,0.0,0.0,0.0,0.0,0.0,0.0,0.0,0.0,0.0,0.0,0.0,0.0,0.0,0.0,0.0,0.0,0.0,0.0,0.0,0.0,0.0,0.0,-5.6614,-5.6581,-5.6514,0.0,-5.6514,0.0,0.0,0.0,0.0,0.0,0.0,0.0,0.0,0.0,0.0,0.0,0.0,0.0,0.0,0.0,0.0,0.0,0.0,0.0,0.0,0.0,0.0,0.0,0.0,0.0,0.0,0.0,0.0,0.0,0.0,0.0,0.0,0.0,0.0,0.0,0.0,0.0,0.0,0.0,0.0,0.0,0.0,0.0,0.0,0.0,0.0,0.0,0.0,0.0,0.0,0.0,0.0,0.0,0.0,0.0,0.0,0.0,0.0,0.0,0.0,0.0,0.0,0.0,0.0,0.0,0.0,0.0,0.0,0.0,0.0,0.0,0.0,0.0,0.0,0.0,0.0,0.0,0.0,0.0,0.0,0.0,0.0,0.0,0.0,0.0,0.0,0.0,0.0,0.0,0.0,0.0,0.0,0.0,0.0,0.0,0.0,0.0,0.0,0.0,0.0,0.0,0.0,0.0,0.0,0.0,0.0,0.0,0.0,0.0,0.0,-5.668,-5.668,-5.668,-5.668,0.0,0.0,0.0,0.0,0.0,0.0,0.0,0.0,0.0,0.0,0.0,0.0,0.0,0.0,0.0,0.0,0.0,0.0,0.0,0.0,0.0,0.0,0.0,0.0,0.0,0.0,0.0,0.0,0.0,0.0,0.0,0.0,0.0,0.0,0.0,0.0,0.0,0.0,0.0,0.0,0.0,0.0,0.0,0.0,0.0,0.0,0.0,0.0,0.0,0.0,0.0,0.0,0.0,0.0,0.0,0.0,0.0,0.0,0.0,0.0,0.0,0.0,0.0,0.0,0.0,0.0,0.0,0.0,0.0,0.0,0.0,0.0,0.0,0.0,0.0,0.0,0.0,0.0,0.0,0.0,0.0,0.0,0.0,0.0,0.0,0.0,0.0,0.0,0.0,0.0,0.0,0.0,0.0,0.0,0.0,0.0,0.0,0.0,0.0,0.0,0.0,0.0,0.0,0.0,0.0,0.0,0.0,0.0,0.0,0.0,-5.668,-5.668,-5.668,-5.668,-5.668,-5.668,0.0,0.0,0.0,0.0,0.0,0.0,0.0,0.0,0.0,0.0,0.0,0.0,0.0,0.0,0.0,0.0,0.0,0.0,0.0,0.0,0.0,0.0,0.0,0.0,0.0,0.0,0.0,0.0,0.0,0.0,0.0,0.0,0.0,0.0,0.0,0.0,0.0,0.0,0.0,0.0,0.0,0.0,0.0,0.0,0.0,0.0,0.0,0.0,0.0,0.0,0.0,0.0,0.0,0.0,0.0,0.0,0.0,0.0,0.0,0.0,0.0,0.0,0.0,0.0,0.0,0.0,0.0,0.0,0.0,0.0,0.0,0.0,0.0,0.0,0.0,0.0,0.0,0.0,0.0,0.0,0.0,0.0,0.0,0.0,0.0,0.0,0.0,0.0,0.0,0.0,0.0,0.0,0.0,0.0,0.0,0.0,0.0,0.0,0.0,0.0,0.0,0.0,0.0,0.0,0.0,0.0,0.0,0.0,-5.668,-5.668,-5.668,-5.668,-5.668,-5.668,0.0,0.0,0.0,0.0,0.0,0.0,0.0,0.0,0.0,0.0,0.0,0.0,0.0,0.0,0.0,0.0,0.0,0.0,0.0,0.0,0.0,0.0,0.0,0.0,0.0,0.0,0.0,0.0,0.0,0.0,0.0,0.0,0.0,0.0,0.0,0.0,0.0,0.0,0.0,0.0,0.0,0.0,0.0,0.0,0.0,0.0,0.0,0.0,0.0,0.0,0.0,0.0,0.0,0.0,0.0,0.0,0.0,0.0,0.0,0.0,0.0,0.0,0.0,0.0,0.0,0.0,0.0,0.0,0.0,0.0,0.0,0.0,0.0,0.0,0.0,0.0,0.0,0.0,0.0,0.0,0.0,0.0,0.0,0.0,0.0,0.0,0.0,0.0,0.0,0.0,0.0,0.0,0.0,0.0,0.0,0.0,0.0,0.0,0.0,0.0,0.0,0.0,0.0,0.0,0.0,0.0,0.0,0.0,0.0,-5.668,-5.668,-5.668,-5.668,-5.668,-5.668,0.0,0.0,0.0,0.0,0.0,0.0,0.0,0.0,0.0,0.0,0.0,0.0,0.0,0.0,0.0,0.0,0.0,0.0,0.0,0.0,0.0,0.0,0.0,0.0,0.0,0.0,0.0,0.0,0.0,0.0,0.0,0.0,0.0,0.0,0.0,0.0,0.0,0.0,0.0,0.0,0.0,0.0,0.0,0.0,0.0,0.0,0.0,0.0,0.0,0.0,0.0,0.0,0.0,0.0,0.0,0.0,0.0,0.0,0.0,0.0,0.0,0.0,0.0,0.0,0.0,0.0,0.0,0.0,0.0,0.0,0.0,0.0,0.0,0.0,0.0,0.0,0.0,0.0,0.0,0.0,0.0,0.0,0.0,0.0,0.0,0.0,0.0,0.0,0.0,0.0,0.0,0.0,0.0,0.0,0.0,0.0,0.0,0.0,0.0,0.0,0.0,0.0,0.0,0.0,0.0,0.0,0.0,0.0,0.0,-5.668,0.0,-5.668,-5.668,-5.668,-5.668,0.0,0.0,0.0,0.0,0.0,0.0,0.0,0.0,0.0,0.0,0.0,0.0,0.0,0.0,0.0,0.0,0.0,0.0,0.0,0.0,0.0,0.0,0.0,0.0,0.0,0.0,0.0,0.0,0.0,0.0,0.0,0.0,0.0,0.0,0.0,0.0,0.0,0.0,0.0,0.0,0.0,0.0,0.0,0.0,0.0,0.0,0.0,0.0,0.0,0.0,0.0,0.0,0.0,0.0,0.0,0.0,0.0,0.0,0.0,0.0,0.0,0.0,0.0,0.0,0.0,0.0,0.0,0.0,0.0,0.0,0.0,0.0,0.0,0.0,0.0,0.0,0.0,0.0,0.0,0.0,0.0,0.0,0.0,0.0,0.0,0.0,0.0,0.0,0.0,0.0,0.0,0.0,0.0,0.0,0.0,0.0,0.0,0.0,0.0,0.0,0.0,0.0,0.0,0.0,0.0,0.0,0.0,0.0,-5.6713,-5.6713,-5.6746,-5.6702,-5.6713,-5.6669,-5.6713,0.0,0.0,0.0,0.0,0.0,0.0,0.0,0.0,0.0,0.0,0.0,0.0,0.0,0.0,0.0,0.0,0.0,0.0,0.0,0.0,0.0,0.0,0.0,0.0,0.0,0.0,0.0,0.0,0.0,0.0,0.0,0.0,0.0,0.0,0.0,0.0,0.0,0.0,0.0,0.0,0.0,0.0,0.0,0.0,0.0,0.0,0.0,0.0,0.0,0.0,0.0,0.0,0.0,0.0,0.0,0.0,0.0,0.0,0.0,0.0,0.0,0.0,0.0,0.0,0.0,0.0,0.0,0.0,0.0,0.0,0.0,0.0,0.0,0.0,0.0,0.0,0.0,0.0,0.0,0.0,0.0,0.0,0.0,0.0,0.0,0.0,0.0,0.0,0.0,0.0,0.0,0.0,0.0,0.0,0.0,0.0,0.0,0.0,0.0,0.0,0.0,0.0,0.0,0.0,0.0,0.0,0.0,0.0,0.0,-5.6417,-5.6906,-5.7134,-5.7184,-5.6678,-5.6774,0.0,0.0,0.0,0.0,0.0,0.0,0.0,0.0,0.0,0.0,0.0,0.0,0.0,0.0,0.0,0.0,0.0,0.0,0.0,0.0,0.0,0.0,0.0,0.0,0.0,0.0,0.0,0.0,0.0,0.0,0.0,0.0,0.0,0.0,0.0,0.0,0.0,0.0,0.0,0.0,0.0,0.0,0.0,0.0,0.0,0.0,0.0,0.0,0.0,0.0,0.0,0.0,0.0,0.0,0.0,0.0,0.0,0.0,0.0,0.0,0.0,0.0,0.0,0.0,0.0,0.0,0.0,0.0,0.0,0.0,0.0,0.0,0.0,0.0,0.0,0.0,0.0,0.0,0.0,0.0,0.0,0.0,0.0,0.0,0.0,0.0,0.0,0.0,0.0,0.0,0.0,0.0,0.0,0.0,0.0,0.0,0.0,0.0,0.0,0.0,0.0,0.0,0.0,0.0,0.0,0.0,0.0,0.0,0.0,-5.7579,-5.7688,-5.7753,-5.7753,-5.6991,-5.7022,-5.797,0.0,0.0,0.0,0.0,0.0,0.0,0.0,0.0,0.0,0.0,0.0,0.0,0.0,0.0,0.0,0.0,0.0,0.0,0.0,0.0,0.0,0.0,0.0,0.0,0.0,0.0,0.0,0.0,0.0,0.0,0.0,0.0,0.0,0.0,0.0,0.0,0.0,0.0,0.0,0.0,0.0,0.0,0.0,0.0,0.0,0.0,0.0,0.0,0.0,0.0,0.0,0.0,0.0,0.0,0.0,0.0,0.0,0.0,0.0,0.0,0.0,0.0,0.0,0.0,0.0,0.0,0.0,0.0,0.0,0.0,0.0,0.0,0.0,0.0,0.0,0.0,0.0,0.0,0.0,0.0,0.0,0.0,0.0,0.0,0.0,0.0,0.0,0.0,0.0,0.0,0.0,0.0,0.0,0.0,0.0,0.0,0.0,0.0,0.0,0.0,0.0,0.0,0.0,0.0,0.0,0.0,0.0,0.0,-5.9804,-5.9046,-5.8668,-5.8484,-5.7656,-5.7471,0.0,0.0,0.0,0.0,0.0,0.0,0.0,0.0,0.0,0.0,0.0,0.0,0.0,0.0,0.0,0.0,0.0,0.0,0.0,0.0,0.0,0.0,0.0,0.0,0.0,0.0,0.0,0.0,0.0,0.0,0.0,0.0,0.0,0.0,0.0,0.0,0.0,0.0,0.0,0.0,0.0,0.0,0.0,0.0,0.0,0.0,0.0,0.0,0.0,0.0,0.0,0.0,0.0,0.0,0.0,0.0,0.0,0.0,0.0,0.0,0.0,0.0,0.0,0.0,0.0,0.0,0.0,0.0,0.0,0.0,0.0,0.0,0.0,0.0,0.0,0.0,0.0,0.0,0.0,0.0,0.0,0.0,0.0,0.0,0.0,0.0,0.0,0.0,0.0,0.0,0.0,0.0,0.0,0.0,0.0,0.0,0.0,0.0,0.0,0.0,0.0,0.0,0.0,0.0,0.0,0.0,0.0,0.0,0.0,-6.2299,-6.2411,-6.1616,-5.9818,-5.9474,-5.9246,0.0,0.0,0.0,0.0,0.0,0.0,0.0,0.0,0.0,0.0,0.0,0.0,0.0,0.0,0.0,0.0,0.0,0.0,0.0,0.0,0.0,0.0,0.0,0.0,0.0,0.0,0.0,0.0,0.0,0.0,0.0,0.0,0.0,0.0,0.0,0.0,0.0,0.0,0.0,0.0,0.0,0.0,0.0,0.0,0.0,0.0,0.0,0.0,0.0,0.0,0.0,0.0,0.0,0.0,0.0,0.0,0.0,0.0,0.0,0.0,0.0,0.0,0.0,0.0,0.0,0.0,0.0,0.0,0.0,0.0,0.0,0.0,0.0,0.0,0.0,0.0,0.0,0.0,0.0,0.0,0.0,0.0,0.0,0.0,0.0,0.0,0.0,0.0,0.0,0.0,0.0,0.0,0.0,0.0,0.0,0.0,0.0,0.0,0.0,0.0,0.0,0.0,0.0,0.0,0.0,0.0,0.0,0.0,-6.2742,-6.4167,-6.5607,-6.5125,-6.2383,-6.1106,-6.0515,0.0,0.0,0.0,0.0,0.0,0.0,0.0,0.0,0.0,0.0,0.0,0.0,0.0,0.0,0.0,0.0,0.0,0.0,0.0,0.0,0.0,0.0,0.0,0.0,0.0,0.0,0.0,0.0,0.0,0.0,0.0,0.0,0.0,0.0,0.0,0.0,0.0,0.0,0.0,0.0,0.0,0.0,0.0,0.0,0.0,0.0,0.0,0.0,0.0,0.0,0.0,0.0,0.0,0.0,0.0,0.0,0.0,0.0,0.0,0.0,0.0,0.0,0.0,0.0,0.0,0.0,0.0,0.0,0.0,0.0,0.0,0.0,0.0,0.0,0.0,0.0,0.0,0.0,0.0,0.0,0.0,0.0,0.0,0.0,0.0,0.0,0.0,0.0,0.0,0.0,0.0,0.0,0.0,0.0,0.0,0.0,0.0,0.0,0.0,0.0,0.0,0.0,0.0,0.0,0.0,0.0,0.0,0.0,-6.42,-6.5624,-6.844,-6.8569,-6.5669,-6.2851,-6.1699,0.0,0.0,0.0,0.0,0.0,0.0,0.0,0.0,0.0,0.0,0.0,0.0,0.0,0.0,0.0,0.0,0.0,0.0,0.0,0.0,0.0,0.0,0.0,0.0,0.0,0.0,0.0,0.0,0.0,0.0,0.0,0.0,0.0,0.0,0.0,0.0,0.0,0.0,0.0,0.0,0.0,0.0,0.0,0.0,0.0,0.0,0.0,0.0,0.0,0.0,0.0,0.0,0.0,0.0,0.0,0.0,0.0,0.0,0.0,0.0,0.0,0.0,0.0,0.0,0.0,0.0,0.0,0.0,0.0,0.0,0.0,0.0,0.0,0.0,0.0,0.0,0.0,0.0,0.0,0.0,0.0,0.0,0.0,0.0,0.0,0.0,0.0,0.0,0.0,0.0,0.0,0.0,0.0,0.0,0.0,0.0,0.0,0.0,0.0,0.0,0.0,0.0,0.0,0.0,0.0,0.0,0.0,0.0,-6.5657,-6.7148,-6.9434,-6.9777,-6.7818,-6.6122,-6.4578,0.0,0.0,0.0,0.0,0.0,0.0,0.0,0.0,0.0,0.0,0.0,0.0,0.0,0.0,0.0,0.0,0.0,0.0,0.0,0.0,0.0,0.0,0.0,0.0,0.0,0.0,0.0,0.0,0.0,0.0,0.0,0.0,0.0,0.0,0.0,0.0,0.0,0.0,0.0,0.0,0.0,0.0,0.0,0.0,0.0,0.0,0.0,0.0,-6.4131,0.0,0.0,0.0,0.0,0.0,0.0,0.0,0.0,0.0,0.0,0.0,0.0,0.0,0.0,0.0,0.0,0.0,0.0,0.0,0.0,0.0,0.0,0.0,0.0,0.0,0.0,0.0,0.0,0.0,0.0,0.0,0.0,0.0,0.0,0.0,0.0,0.0,0.0,0.0,0.0,0.0,0.0,0.0,0.0,0.0,0.0,0.0,0.0,0.0,0.0,0.0,0.0,0.0,0.0,0.0,0.0,0.0,0.0,0.0,-6.7148,-6.8639,-7.0792,-7.1019,-6.9065,-6.8052,-6.6343,0.0,0.0,0.0,0.0,0.0,0.0,0.0,0.0,0.0,0.0,0.0,0.0,0.0,0.0,0.0,0.0,0.0,0.0,0.0,0.0,0.0,0.0,0.0,0.0,0.0,0.0,0.0,0.0,0.0,0.0,0.0,0.0,0.0,0.0,0.0,0.0,0.0,0.0,0.0,0.0,0.0,0.0,0.0,0.0,0.0,0.0,0.0,0.0,0.0,0.0,0.0,0.0,0.0,0.0,0.0,0.0,0.0,0.0,0.0,0.0,0.0,0.0,0.0,0.0,0.0,0.0,0.0,0.0,0.0,0.0,0.0,0.0,0.0,0.0,0.0,0.0,0.0,0.0,0.0,0.0,0.0,0.0,0.0,0.0,0.0,0.0,0.0,0.0,0.0,0.0,0.0,0.0,0.0,0.0,0.0,0.0,0.0,0.0,0.0,0.0,0.0,0.0,0.0,0.0,0.0,0.0,0.0,-6.6353,-6.8539,-7.0129,-7.2283,-7.2326,-6.9872,-6.9287,-6.7731,-6.5042,0.0,0.0,0.0,0.0,0.0,0.0,0.0,0.0,0.0,0.0,0.0,0.0,0.0,0.0,0.0,0.0,0.0,0.0,0.0,0.0,0.0,0.0,0.0,0.0,0.0,0.0,0.0,0.0,0.0,0.0,0.0,0.0,0.0,0.0,0.0,0.0,0.0,0.0,-5.9297,-6.1086,0.0,0.0,0.0,0.0,0.0,0.0,0.0,0.0,-6.5676,0.0,0.0,0.0,0.0,0.0,0.0,0.0,0.0,0.0,0.0,0.0,0.0,0.0,0.0,0.0,0.0,0.0,0.0,0.0,0.0,0.0,0.0,0.0,0.0,0.0,0.0,0.0,0.0,0.0,0.0,0.0,0.0,0.0,0.0,0.0,0.0,0.0,0.0,0.0,0.0,0.0,0.0,0.0,0.0,0.0,0.0,0.0,0.0,0.0,0.0,0.0,0.0,0.0,0.0,0.0,0.0,-6.5061,-6.7347,-6.9533,-7.162,-7.3773,-7.3796,-7.1407,-7.0743,-6.9144,-6.6478,0.0,0.0,0.0,0.0,0.0,0.0,0.0,0.0,0.0,0.0,0.0,0.0,0.0,0.0,0.0,0.0,0.0,0.0,0.0,0.0,0.0,0.0,0.0,0.0,0.0,0.0,0.0,0.0,0.0,0.0,0.0,0.0,0.0,0.0,0.0,0.0,0.0,0.0,0.0,-6.2477,-6.314,0.0,0.0,0.0,0.0,0.0,0.0,0.0,0.0,-6.8671,0.0,0.0,0.0,0.0,0.0,0.0,0.0,0.0,0.0,0.0,0.0,0.0,0.0,0.0,0.0,0.0,0.0,0.0,0.0,0.0,0.0,0.0,0.0,0.0,0.0,0.0,0.0,0.0,0.0,0.0,0.0,0.0,0.0,0.0,0.0,0.0,0.0,0.0,0.0,0.0,0.0,0.0,0.0,0.0,0.0,0.0,0.0,0.0,0.0,0.0,0.0,0.0,0.0,0.0,0.0,-6.5989,-6.8142,-7.0328,-7.2515,-7.3972,-7.3763,-7.1724,-7.0914,-6.9263,0.0,0.0,0.0,0.0,0.0,0.0,0.0,0.0,0.0,0.0,0.0,0.0,0.0,0.0,0.0,0.0,0.0,0.0,0.0,0.0,0.0,0.0,0.0,0.0,0.0,0.0,0.0,0.0,0.0,0.0,0.0,0.0,0.0,0.0,0.0,0.0,0.0,0.0,0.0,0.0,-6.3935,-6.4664,-6.5425,0.0,0.0,0.0,0.0,0.0,0.0,-6.8719,-6.8879,0.0,0.0,0.0,0.0,0.0,0.0,0.0,0.0,0.0,0.0,0.0,0.0,0.0,0.0,0.0,0.0,0.0,0.0,0.0,0.0,0.0,0.0,0.0,0.0,0.0,0.0,0.0,0.0,0.0,0.0,0.0,0.0,0.0,0.0,0.0,0.0,0.0,0.0,0.0,0.0,0.0,0.0,0.0,0.0,0.0,0.0,0.0,0.0,0.0,0.0,0.0,0.0,0.0,0.0,0.0,-6.6717,-6.8904,-7.109,-7.3243,-7.4038,-7.3632,-7.2027,-7.0824,-6.9093,0.0,0.0,0.0,0.0,0.0,0.0,0.0,0.0,0.0,0.0,0.0,0.0,0.0,0.0,0.0,0.0,0.0,0.0,0.0,0.0,0.0,0.0,0.0,0.0,0.0,0.0,0.0,0.0,0.0,0.0,0.0,0.0,0.0,0.0,0.0,0.0,0.0,0.0,0.0,0.0,0.0,-6.6187,-6.7612,-6.7976,0.0,0.0,0.0,0.0,-6.9268,-6.9486,0.0,0.0,0.0,0.0,0.0,0.0,0.0,0.0,0.0,0.0,0.0,0.0,0.0,0.0,0.0,0.0,0.0,0.0,0.0,0.0,0.0,0.0,0.0,0.0,0.0,0.0,0.0,0.0,0.0,0.0,0.0,0.0,0.0,0.0,0.0,0.0,0.0,0.0,0.0,0.0,0.0,0.0,0.0,0.0,0.0,0.0,0.0,0.0,0.0,0.0,0.0,0.0,0.0,0.0,0.0,0.0,-6.7479,-6.9666,-7.1852,-7.3939,-7.4767,-7.4351,-7.2724,-7.0727,-6.9269,0.0,0.0,0.0,0.0,0.0,0.0,0.0,0.0,0.0,0.0,0.0,0.0,0.0,0.0,0.0,0.0,0.0,0.0,0.0,0.0,0.0,0.0,0.0,0.0,0.0,0.0,0.0,0.0,0.0,0.0,0.0,0.0,0.0,0.0,0.0,0.0,0.0,0.0,0.0,0.0,0.0,-6.6916,-6.8374,-6.9136,-6.9798,0.0,0.0,-7.1521,-7.162,-7.2066,0.0,0.0,0.0,0.0,0.0,0.0,0.0,0.0,0.0,0.0,0.0,0.0,0.0,0.0,0.0,0.0,0.0,0.0,0.0,0.0,0.0,0.0,0.0,0.0,0.0,0.0,0.0,0.0,0.0,0.0,0.0,0.0,0.0,0.0,0.0,0.0,0.0,0.0,0.0,0.0,0.0,0.0,0.0,0.0,0.0,0.0,0.0,0.0,0.0,0.0,0.0,0.0,0.0,0.0,0.0,-6.6022,-6.8208,-6.9997,-7.215,-7.4668,-7.4701,-7.4057,-7.2883,-7.1023,-6.9095,0.0,0.0,0.0,0.0,0.0,0.0,0.0,0.0,0.0,0.0,0.0,0.0,0.0,0.0,0.0,0.0,0.0,0.0,0.0,0.0,0.0,0.0,0.0,0.0,0.0,0.0,0.0,0.0,0.0,0.0,0.0,0.0,0.0,0.0,0.0,0.0,0.0,0.0,0.0,0.0,0.0,0.0,-6.9732,-7.0958,0.0,0.0,0.0,-7.3243,-7.3243,0.0,0.0,0.0,0.0,0.0,0.0,0.0,0.0,0.0,0.0,0.0,0.0,0.0,0.0,0.0,0.0,0.0,0.0,0.0,0.0,0.0,0.0,0.0,0.0,0.0,0.0,0.0,0.0,0.0,0.0,0.0,0.0,0.0,0.0,0.0,0.0,0.0,0.0,0.0,0.0,0.0,0.0,0.0,0.0,0.0,0.0,0.0,0.0,0.0,0.0,0.0,0.0,0.0,0.0,0.0,0.0,0.0,-6.8937,-7.0428,-7.2515,-7.5132,-7.4734,-7.3926,-7.2788,-7.1304,0.0,0.0,0.0,0.0,0.0,0.0,0.0,0.0,0.0,0.0,0.0,0.0,0.0,0.0,0.0,0.0,0.0,0.0,0.0,0.0,0.0,0.0,0.0,0.0,0.0,0.0,0.0,-5.8634,0.0,0.0,0.0,0.0,0.0,0.0,0.0,0.0,0.0,0.0,0.0,0.0,0.0,0.0,-6.9633,-7.1455,-7.268,-7.3674,0.0,0.0,-7.4701,-7.4701,-7.4105,-7.2978,0.0,0.0,0.0,0.0,0.0,0.0,0.0,0.0,0.0,0.0,0.0,0.0,0.0,0.0,0.0,0.0,0.0,0.0,0.0,0.0,0.0,0.0,0.0,0.0,0.0,0.0,0.0,0.0,0.0,0.0,0.0,0.0,0.0,0.0,0.0,0.0,0.0,0.0,0.0,0.0,0.0,0.0,0.0,0.0,0.0,0.0,0.0,0.0,0.0,0.0,0.0,0.0,0.0,0.0,0.0,-6.9666,-7.1156,-7.3011,-7.5165,-7.5231,-7.4416,-7.282,-7.1425,-6.9413,0.0,0.0,0.0,0.0,0.0,0.0,0.0,0.0,0.0,0.0,0.0,0.0,0.0,0.0,0.0,0.0,0.0,0.0,0.0,0.0,0.0,0.0,0.0,0.0,0.0,0.0,0.0,0.0,0.0,0.0,0.0,0.0,0.0,0.0,0.0,0.0,0.0,0.0,0.0,0.0,0.0,-7.0759,-7.3541,-7.4038,-7.4602,0.0,0.0,-7.6159,-7.6159,-7.5562,-7.4602,-7.3111,0.0,0.0,0.0,0.0,0.0,0.0,0.0,0.0,0.0,0.0,0.0,0.0,0.0,0.0,0.0,0.0,0.0,0.0,0.0,0.0,0.0,0.0,0.0,0.0,0.0,0.0,0.0,0.0,0.0,0.0,0.0,0.0,0.0,0.0,0.0,0.0,0.0,0.0,0.0,0.0,0.0,0.0,0.0,0.0,0.0,0.0,0.0,0.0,0.0,0.0,0.0,0.0,0.0,-6.8274,-7.0461,-7.1918,-7.374,-7.5794,-7.5927,-7.5102,-7.3401,-7.1629,-6.9565,0.0,0.0,0.0,0.0,0.0,0.0,0.0,0.0,0.0,0.0,0.0,0.0,0.0,0.0,0.0,0.0,0.0,0.0,0.0,0.0,0.0,0.0,0.0,0.0,0.0,0.0,0.0,0.0,-6.3107,-6.3637,-6.3935,0.0,0.0,0.0,0.0,0.0,0.0,0.0,0.0,0.0,0.0,-7.1223,-7.3243,-7.4635,0.0,0.0,-7.7384,-7.7351,-7.6457,-7.6092,-7.5132,-7.2813,-7.1587,0.0,0.0,0.0,0.0,0.0,0.0,0.0,0.0,0.0,0.0,0.0,0.0,0.0,0.0,0.0,0.0,0.0,0.0,0.0,0.0,0.0,0.0,0.0,0.0,0.0,0.0,0.0,0.0,0.0,0.0,0.0,0.0,0.0,0.0,0.0,0.0,0.0,0.0,0.0,0.0,0.0,0.0,0.0,0.0,0.0,0.0,0.0,0.0,0.0,0.0,0.0,0.0,-6.9036,-7.1223,-7.268,-7.437,-7.6258,-7.6523,-7.5831,-7.4327,-7.2503,-7.0443,0.0,0.0,0.0,0.0,0.0,0.0,0.0,0.0,0.0,0.0,0.0,0.0,0.0,0.0,0.0,0.0,0.0,0.0,0.0,0.0,0.0,0.0,0.0,0.0,0.0,0.0,0.0,0.0,-6.4564,-6.4929,-6.4697,0.0,0.0,0.0,0.0,0.0,0.0,0.0,0.0,0.0,0.0,-7.1753,-7.321,-7.5065,-7.649,-7.702,-7.7715,-7.7749,-7.649,-7.6159,-7.5231,-7.3011,0.0,0.0,0.0,0.0,0.0,0.0,0.0,0.0,0.0,0.0,0.0,0.0,0.0,0.0,0.0,0.0,0.0,0.0,0.0,0.0,0.0,0.0,0.0,0.0,0.0,0.0,0.0,0.0,0.0,0.0,-5.8786,0.0,0.0,0.0,0.0,0.0,0.0,0.0,0.0,0.0,0.0,0.0,0.0,0.0,0.0,0.0,0.0,0.0,0.0,0.0,0.0,0.0,0.0,-6.9765,-7.1951,-7.3409,-7.4867,-7.6324,-7.7053,-7.6852,-7.5617,-7.4327,-7.219,-6.8945,0.0,0.0,0.0,0.0,0.0,0.0,0.0,0.0,0.0,0.0,0.0,0.0,0.0,0.0,0.0,0.0,0.0,0.0,0.0,0.0,0.0,0.0,0.0,0.0,0.0,0.0,-6.526,-6.6022,-6.6121,0.0,0.0,0.0,0.0,0.0,0.0,0.0,0.0,0.0,0.0,-7.0129,-7.2481,-7.3906,-7.5363,-7.6291,-7.6357,-7.6987,-7.7185,-7.6424,-7.5761,-7.5032,0.0,0.0,0.0,0.0,0.0,0.0,0.0,0.0,0.0,0.0,0.0,0.0,0.0,0.0,0.0,0.0,0.0,0.0,0.0,0.0,0.0,0.0,0.0,0.0,0.0,0.0,0.0,-5.7421,-5.7693,0.0,0.0,0.0,0.0,0.0,0.0,0.0,0.0,0.0,0.0,0.0,-6.1113,-6.1094,0.0,0.0,0.0,0.0,0.0,0.0,0.0,0.0,0.0,0.0,0.0,0.0,-7.0527,-7.268,-7.4171,-7.5827,-7.7715,-7.8511,-7.8497,-7.7771,-7.6378,-7.3728,-6.9741,0.0,0.0,0.0,0.0,0.0,0.0,0.0,0.0,0.0,0.0,0.0,0.0,0.0,0.0,0.0,0.0,0.0,0.0,0.0,0.0,0.0,0.0,0.0,0.0,0.0,-6.5326,0.0,0.0,0.0,0.0,0.0,0.0,0.0,0.0,0.0,0.0,0.0,-6.6982,-6.8175,-7.0461,-7.2349,-7.3343,-7.4701,-7.5794,0.0,0.0,0.0,0.0,0.0,0.0,0.0,0.0,0.0,0.0,0.0,0.0,0.0,0.0,-7.239,-7.1419,-7.1252,-7.1312,-7.1739,0.0,0.0,0.0,0.0,0.0,0.0,0.0,0.0,0.0,0.0,0.0,0.0,0.0,0.0,0.0,0.0,-5.8806,0.0,0.0,0.0,0.0,0.0,0.0,0.0,0.0,-6.3078,-6.2441,-6.2099,-6.213,-6.2121,0.0,-6.3092,-6.3023,0.0,0.0,0.0,0.0,0.0,0.0,0.0,0.0,-7.1521,-7.3475,-7.5397,-7.7086,-7.8477,-7.9471,-7.987,-7.9414,-7.7478,-7.4541,-7.0648,-6.9001,-6.7215,0.0,0.0,0.0,0.0,0.0,0.0,0.0,0.0,0.0,0.0,0.0,0.0,0.0,0.0,0.0,0.0,0.0,0.0,0.0,0.0,0.0,0.0,0.0,-6.6287,0.0,0.0,0.0,0.0,0.0,0.0,0.0,0.0,0.0,-6.5922,-6.6883,-6.8009,-6.8937,-7.0991,-7.2581,-7.3045,0.0,0.0,0.0,0.0,0.0,0.0,0.0,-7.6159,-7.5695,-7.5231,-7.49,-7.49,-7.49,-7.4999,-7.5231,0.0,0.0,-7.3078,-7.2746,-7.2944,-7.3365,-7.314,-7.314,-7.4127,-7.4127,-7.428,0.0,0.0,0.0,0.0,0.0,0.0,0.0,0.0,-5.962,-5.9834,0.0,-6.0647,0.0,0.0,0.0,0.0,0.0,-6.4232,0.0,0.0,-6.4746,-6.4106,-6.3374,-6.3827,-6.4096,-6.4126,-6.4755,-6.4695,-6.4093,-6.4274,0.0,0.0,0.0,0.0,0.0,0.0,-7.278,-7.4337,-7.7053,-7.8544,-7.8709,-8.0001,-8.073,-8.062,-7.7648,-7.4717,-7.2209,-7.0179,-6.8764,-6.8016,-6.6539,0.0,0.0,0.0,0.0,0.0,0.0,0.0,0.0,0.0,0.0,0.0,0.0,0.0,0.0,0.0,0.0,0.0,0.0,0.0,0.0,-6.6817,0.0,0.0,0.0,0.0,0.0,0.0,0.0,0.0,0.0,0.0,-6.6916,-6.8506,-6.9831,-6.9864,0.0,0.0,0.0,0.0,-7.5032,-7.437,-7.5463,-7.6159,-7.5529,-7.596,-7.639,-7.649,0.0,0.0,-7.6457,-7.6457,-7.6722,-7.7384,-7.7761,-7.72,-7.4935,-7.457,-7.4471,-7.4471,-7.4705,-7.4739,-7.4839,-7.527,-7.5497,-6.3797,0.0,0.0,0.0,0.0,-6.2152,-6.2363,-6.2363,-6.2055,-6.2138,-6.2363,-6.2363,0.0,0.0,0.0,0.0,0.0,0.0,-6.6416,-6.7512,-6.6755,-6.6192,-6.5892,-6.6041,-6.6131,-6.6131,-6.634,-6.634,-6.6101,-6.6247,-6.5749,-6.5014,0.0,0.0,0.0,0.0,-7.3613,-7.6319,-7.7848,-7.9272,-8.0829,-8.126,-8.1492,-8.1492,-7.8807,-7.6647,-7.5403,-7.2554,-7.056,-6.9423,-6.8789,0.0,0.0,0.0,0.0,0.0,0.0,0.0,0.0,0.0,0.0,0.0,0.0,0.0,0.0,0.0,0.0,0.0,0.0,0.0,-6.7711,-6.8142,-6.8307,0.0,0.0,0.0,0.0,0.0,0.0,0.0,0.0,0.0,-6.9699,-7.0163,-7.0792,0.0,0.0,-7.331,-7.3773,-7.4668,-7.5363,-7.5628,-7.649,0.0,-7.755,-7.7318,-7.7616,-7.9173,-7.9438,-7.9438,-7.9438,-7.9438,-7.9504,-7.9703,-7.9878,-7.9646,-7.9049,-7.8369,-7.784,-7.7703,-7.7807,-7.8013,-7.8013,-7.8218,-7.8656,-6.8615,-6.5892,-6.5024,-6.4395,-6.4096,-6.4455,-6.4635,-6.4635,-6.4635,-6.4635,-6.4635,-6.4635,-6.4635,-6.4635,-6.5248,0.0,0.0,0.0,-6.8181,-6.9215,-6.8779,-6.8555,-6.8555,-6.8525,-6.8525,-6.8525,-6.8286,-6.8166,-6.8166,-6.7897,-6.7335,-6.6417,0.0,0.0,-7.0652,-7.1849,-7.3766,-7.6275,-7.7794,-7.9182,-8.0145,-8.0967,-8.1246,-8.0633,-7.9138,-7.7809,-7.6776,-7.3898,-7.1816,-7.0769,-6.9665,-6.815,0.0,0.0,0.0,0.0,0.0,0.0,0.0,0.0,0.0,0.0,0.0,-6.4233,-6.4531,0.0,0.0,0.0,-6.8042,-6.9235,-6.9931,-6.9732,0.0,0.0,0.0,0.0,0.0,0.0,0.0,-6.9368,-7.1024,-7.2316,-7.2581,-7.2879,-7.3011,-7.2879,-7.374,-7.4535,-7.4966,0.0,-7.6291,-7.6689,-7.7616,-7.8444,-7.8908,-7.8809,-7.9173,-8.0465,-8.0664,-8.0664,-8.0664,-8.0664,-8.0796,-8.1028,-8.1238,-8.1414,-8.1713,-8.145,-8.0967,-8.0042,-8.0014,-8.033,-8.0435,-8.0677,-8.1054,-7.3432,-7.1996,-6.8974,-6.7537,-6.7298,-6.7298,-6.7298,-6.7298,-6.7298,-6.7298,-6.7298,-6.7298,-6.7298,-6.7298,-6.7298,0.0,-6.8315,-6.8944,-6.9572,-7.0231,-7.0799,-7.1068,-7.1068,-7.1038,-7.1068,-7.1038,-7.047,-7.0231,-7.0171,-6.9632,-6.9303,-6.9273,-6.9124,-6.9859,-7.1489,-7.2265,-7.339,-7.4715,-7.7382,-7.8441,-7.7931,-7.9822,-8.0142,-7.8941,-7.8816,-7.8155,-7.6708,-7.4425,-7.2727,-7.1846,-6.9609,-6.7901,-6.7274,0.0,0.0,0.0,0.0,0.0,0.0,0.0,0.0,0.0,0.0,0.0,0.0,0.0,0.0,0.0,-7.0163,0.0,-7.1951,-7.1455,0.0,0.0,0.0,-7.0129,-7.0129,-7.0792,-7.1521,-7.225,0.0,0.0,-7.543,-7.6125,-7.6092,-7.4767,-7.5628,-7.6457,-7.6556,-7.7185,-7.7616,-7.7749,-7.8842,-7.9703,-7.9869,-8.0366,-8.0796,-8.0829,-8.0829,-8.0929,-8.0962,-8.0929,-8.1194,-8.1757,-8.2079,-8.2389,-8.3087,-8.3497,-8.3557,-8.1609,-8.1625,-8.1979,-8.2157,-8.2368,-8.2577,-7.6395,-7.5557,-7.43,-7.2325,-6.9991,-6.9961,-6.9961,-6.9961,-6.9961,-6.9961,-6.9961,-6.9991,-6.9961,-6.9961,-6.9991,-7.032,-7.0949,-7.1128,-7.1547,-7.2206,-7.2355,-7.2445,-7.2445,-7.2445,-7.2445,-7.2445,-7.2295,-7.2206,-7.2206,-7.2056,-7.1966,-7.1966,-7.1899,-7.1891,-7.1746,-7.2365,-7.3967,-7.6288,-7.7385,-7.8177,-7.8626,-7.9189,-7.8998,-7.8121,-7.8089,-7.7215,-7.5482,-7.4691,-7.3555,-7.2008,-7.1153,-7.0312,-6.9181,-6.8158,0.0,0.0,0.0,0.0,0.0,0.0,0.0,0.0,0.0,-6.7413,-6.8109,0.0,-6.9401,0.0,-7.1189,-7.1819,-7.1985,-7.2349,0.0,0.0,-7.2912,-7.3144,-7.3144,-7.3773,-7.4502,-7.5198,-7.6092,-7.692,-7.7682,-7.8378,-7.8742,-7.8345,-7.7649,-7.755,-7.861,-7.8974,-7.9306,-7.9802,-8.02,-8.0631,-8.1227,-8.1889,-8.2188,-8.1624,-8.1989,-8.2353,-8.2353,-8.2353,-8.2419,-8.2618,-8.2618,-8.283,-8.2996,-8.3332,-8.3454,-8.3196,-8.3564,-8.3886,-8.3993,-8.4099,-8.4276,-7.8759,-7.813,-7.7801,-7.6395,-7.433,-7.3163,-7.2505,-7.2235,-7.2235,-7.2086,-7.1787,-7.1816,-7.1787,-7.1787,-7.1816,-7.1996,-7.2355,-7.2654,-7.2984,-7.3373,-7.3642,-7.3791,-7.3791,-7.3791,-7.3791,-7.3762,-7.3492,-7.3343,-7.3343,-7.3073,-7.2924,-7.2924,-7.2924,-7.2721,-7.228,-7.2682,-7.3767,-7.5548,-7.6227,-7.7011,-7.7995,-7.8026,-7.7682,-7.6995,-7.7589,-7.6901,-7.4988,-7.4553,-7.3864,-7.2857,-7.218,-7.1321,-7.0305,-6.9308,-6.7722,0.0,0.0,0.0,0.0,0.0,0.0,0.0,0.0,0.0,0.0,0.0,-7.1355,-7.2713,-7.3508,-7.3939,-7.3939,-7.427,-7.4668,-7.4999,-7.5397,-7.5761,-7.6059,-7.6457,-7.6987,-7.7715,-7.8146,-7.8676,-7.9405,-7.9836,-8.0233,-8.0531,-7.9869,-7.9537,-8.0001,-8.0366,-8.073,-8.1128,-8.1724,-8.2419,-8.3148,-8.3612,-8.3745,-8.3413,-8.3612,-8.3877,-8.3877,-8.3877,-8.3877,-8.3877,-8.3877,-8.3877,-8.4072,-8.4331,-8.4634,-8.4967,-8.5661,-8.6025,-8.5411,-8.5274,-8.5549,-8.0674,-8.0075,-8.0075,-7.9656,-7.8878,-7.6604,-7.5168,-7.439,-7.43,-7.3941,-7.3432,-7.3432,-7.3432,-7.3432,-7.3402,-7.3432,-7.3462,-7.4001,-7.424,-7.418,-7.4749,-7.4958,-7.4869,-7.4869,-7.4869,-7.4839,-7.43,-7.4031,-7.4001,-7.3432,-7.3163,-7.3163,-7.3193,-7.3163,-7.3163,-7.3163,-7.3432,-7.4031,-7.4569,-7.5519,-7.666,-7.666,-7.6292,-7.5655,-7.6713,-7.6463,-7.4487,-7.3903,-7.3565,-7.3409,-7.2367,-7.1567,-7.0982,-6.9777,-6.8397,0.0,-6.6405,0.0,0.0,0.0,0.0,0.0,0.0,0.0,0.0,-7.2581,-7.3475,-7.5397,-7.6192,-7.6589,-7.6589,-7.6655,-7.6987,-7.7616,-7.7782,-7.808,-7.8709,-7.8809,-7.9107,-7.9836,-7.9902,-8.0167,-8.0863,-8.0962,-8.1227,-8.179,-8.1956,-8.1757,-8.1326,-8.1691,-8.2088,-8.2088,-8.3248,-8.4175,-8.4738,-8.5003,-8.5003,-8.5037,-8.497,-8.5103,-8.5003,-8.5037,-8.507,-8.5037,-8.5003,-8.5152,-8.5416,-8.5611,-8.5951,-8.622,-8.7283,-8.7813,-8.6779,-8.6636,-8.6957,-8.202,-8.1422,-8.1422,-8.1033,-8.0375,-7.9896,-7.8699,-7.7023,-7.6514,-7.6215,-7.6096,-7.6096,-7.6066,-7.6096,-7.6096,-7.6096,-7.6096,-7.6215,-7.6006,-7.5527,-7.5647,-7.5407,-7.4899,-7.4869,-7.4869,-7.4869,-7.4749,-7.4689,-7.4689,-7.4569,-7.451,-7.451,-7.451,-7.451,-7.451,0.0,0.0,0.0,-7.4809,-7.5006,-7.5278,-7.5248,-7.4677,-7.3533,-7.4691,0.0,-7.1827,-7.2479,-7.2513,-7.1556,-7.1655,0.0,0.0,0.0,0.0,0.0,0.0,0.0,0.0,0.0,0.0,0.0,-7.296,-7.3665,-7.4599,-7.5728,-7.6589,-7.6987,-7.7682,-7.8113,-7.8113,-7.8643,-7.9041,-7.9206,-7.9736,-8.0134,-8.0266,-8.0266,-8.0564,-8.1293,-8.1393,-8.1658,-8.232,-8.2486,-8.2519,-8.2718,-8.3215,-8.3513,-8.338,-8.3446,-8.3579,-8.3678,-8.4374,-8.4937,-8.507,-8.5169,-8.5235,-8.5103,-8.5103,-8.5136,-8.5169,-8.5169,-8.5136,-8.5169,-8.5103,-8.5169,-8.5252,-8.5416,-8.5825,-8.6018,-8.7239,-8.8123,-8.8053,-8.8752,-8.9588,-8.3337,0.0,-8.2739,-8.238,0.0,-8.1422,-8.0704,-7.9686,-7.837,-7.7442,-7.6844,-7.6844,-7.6844,-7.6844,-7.6844,-7.6844,-7.6844,-7.6844,-7.6514,-7.5916,-7.5916,-7.5557,-7.4869,-7.4869,-7.4869,-7.4869,-7.4869,-7.4869,-7.4869,-7.4869,-7.4869,-7.4869,-7.4869,-7.5048,-7.5377,-7.5677,-7.5527,-7.4869,-7.4869,-7.4869,-7.4869,-7.4869,-7.424,-7.2984,0.0,0.0,0.0,0.0,0.0,0.0,0.0,0.0,0.0,0.0,0.0,-6.9427,-6.9397,-6.9057,-6.859,-7.0402,-7.2276,-7.4107,-7.6282,-7.7467,-7.7484,-7.8411,-7.9041,-7.9041,-7.9372,-7.9604,-7.9604,-7.9935,-8.0299,-8.0664,-8.1028,-8.1359,-8.1724,-8.1757,-8.1923,-8.2254,-8.2353,-8.2618,-8.3347,-8.3446,-8.3612,-8.3943,-8.4308,-8.454,-8.454,-8.454,-8.4639,-8.5003,-8.5335,-8.5765,-8.6097,-8.6163,-8.6163,-8.6196,-8.6196,-8.6196,-8.6163,-8.6163,-8.6196,-8.6196,-8.6196,-8.6196,-8.6163,-8.6364,-8.6712,-8.717,-8.8584,-8.9879,-9.0284,-9.0572,-9.1067,-8.4325,-8.3756,-8.3756,-8.3367,-8.2709,-8.217,-8.1901,-8.1661,0.0,0.0,0.0,-7.7233,-7.7173,-7.7173,-7.7173,-7.7173,-7.7173,-7.7173,-7.6844,-7.6245,-7.6125,-7.5707,-7.5048,-7.4929,-7.4869,-7.4869,-7.4869,-7.4929,-7.5048,-7.5048,-7.5108,-7.5228,-7.5228,-7.5497,-7.6066,-7.6574,-7.6305,-7.5288,-7.5228,-7.5168,-7.5078,-7.5048,-7.442,-7.3133,-7.4072,-7.3564,-7.1128,-7.2038,-7.2639,-7.2639,-7.2639,-7.2425,-7.2027,-7.1996,-7.1283,-6.9879,-7.0201,-7.05,-7.05,-7.1947,-7.3662,-7.5892,-7.9166,-8.074,-7.9935,-8.0465,-8.0896,-8.0896,-8.0995,-8.1094,-8.1094,-8.1094,-8.1326,-8.1923,-8.2121,-8.2419,-8.3016,-8.3248,-8.3314,-8.3281,-8.3314,-8.3513,-8.4109,-8.4208,-8.4407,-8.4937,-8.5169,-8.5368,-8.5434,-8.5401,-8.5533,-8.6163,-8.6362,-8.6593,-8.7057,-8.719,-8.7289,-8.7157,-8.7223,-8.7289,-8.7289,-8.7289,-8.7289,-8.7157,-8.7289,-8.7223,-8.7256,-8.7393,-8.7728,-8.8078,-8.9928,-9.1635,-9.2161,-9.214,-9.2263,-8.4354,-8.3756,-8.3756,-8.3367,-8.2769,-8.2649,-8.229,-8.1661,-8.0285,-7.9567,-7.9357,-7.8789,-7.8519,-7.8519,-7.8519,-7.8519,-7.8519,-7.8519,-7.816,0.0,-7.6963,-7.6365,-7.5736,-7.5168,-7.4869,-7.4869,-7.4869,-7.5198,-7.5707,-7.5766,-7.6036,-7.6485,-7.6544,-7.6604,-7.6694,-7.6784,-7.6724,-7.6544,-7.6544,-7.6305,-7.5766,-7.5766,-7.5108,-7.3851,-7.3896,-7.337,-7.1816,-7.1989,-7.1989,-7.1989,-7.1989,-7.2199,-7.2709,-7.2679,-7.2577,-7.2385,-7.2445,-7.2505,-7.2505,-7.2697,-7.4031,-7.666,-8.042,-8.2126,-8.0719,-8.1227,-8.1658,-8.1658,-8.2221,-8.2585,-8.2585,-8.2585,-8.2651,-8.2784,-8.3314,-8.3745,-8.3844,-8.4374,-8.4705,-8.4672,-8.4805,-8.4771,-8.4904,-8.4937,-8.5003,-8.5202,-8.5732,-8.6229,-8.6593,-8.6428,-8.6362,-8.6925,-8.7123,-8.7157,-8.7256,-8.7289,-8.7289,-8.7289,-8.7289,-8.7289,-8.7289,-8.7289,-8.7289,-8.7289,-8.7289,-8.7289,-8.7289,-8.7289,-8.7611,-8.8078,-8.9305,-9.0605,-9.1935,-9.2813,-9.3748,-8.5402,-8.4773,-8.4414,-8.3906,-8.3277,-8.2918,-8.2589,-8.223,-8.1302,-8.0674,-8.0345,-8.0016,-7.9896,-7.9866,-7.9507,-7.9357,-7.9327,-7.8968,-7.843,-7.7801,-7.7502,-7.7023,-7.6425,-7.6066,-7.5946,-7.5946,-7.5946,-7.6096,-7.6395,-7.6425,-7.6544,-7.6844,-7.7173,-7.7352,-7.7382,-7.7711,-7.7891,-7.7861,-7.7203,-7.6694,-7.6425,-7.6395,-7.5946,-7.5018,-7.4988,-7.454,-7.3552,-7.3163,-7.2984,-7.2984,-7.2624,-7.2595,-7.2894,-7.2924,-7.2924,-7.2924,-7.3253,-7.3612,-7.3971,-7.5278,-7.6721,-7.797,-8.1125,-8.2636,-8.1962,-8.3004,-8.3579,-8.3612,-8.391,-8.4076,-8.4109,-8.4109,-8.4076,-8.4076,-8.4407,-8.4606,-8.4639,-8.4871,-8.5103,-8.5103,-8.5103,-8.5235,-8.5633,-8.5666,-8.5898,-8.6196,-8.6627,-8.6925,-8.7223,-8.6991,-8.6858,-8.7223,-8.7289,-8.7289,-8.7289,-8.7289,-8.7289,-8.7289,-8.7289,-8.7289,-8.7289,-8.7289,-8.7289,-8.7289,-8.7289,-8.7289,-8.7289,-8.7289,-8.7493,-8.7929,-8.9004,-9.0323,-9.17,-9.3413,-9.4778,-8.6299,-8.5641,-8.4983,-8.4265,-8.3487,-8.2978,-8.2769,-8.2709,-8.22,-8.1721,-8.1242,-8.0943,-8.0823,-8.0764,-8.0255,-7.9956,-7.9746,-7.9267,-7.8669,-7.8071,-7.7891,-7.7532,-7.7083,-7.6904,-7.6844,-7.6844,-7.6844,-7.6904,-7.7023,-7.7053,-7.7143,-7.7322,-7.7771,-7.8041,-7.8041,-7.8549,-7.8789,-7.8729,-7.7801,-7.7203,-7.7053,-7.7053,-7.6754,-7.6155,-7.6125,-7.5796,-7.5138,-7.4629,-7.436,-7.433,-7.3851,-7.3642,-7.3791,-7.3791,-7.3791,-7.3851,-7.427,-7.4779,-7.5455,-7.7441,-7.8627,-7.8764,-8.1117,-8.2617,-8.3116,-8.4282,-8.505,-8.5053,-8.5037,-8.507,-8.5037,-8.507,-8.5103,-8.5103,-8.5268,-8.5368,-8.5368,-8.55,-8.56,-8.56,-8.56,-8.5865,-8.6262,-8.6428,-8.6744,-8.7176,-8.7526,-8.7526,-8.7493,-8.7526,-8.7408,-8.7375,-8.7408,-8.7289,-8.7289,-8.7289,-8.7289,-8.7289,-8.7289,-8.7289,-8.7289,-8.7289,-8.7289,-8.7289,-8.7289,-8.7289,-8.7289,-8.7289,-8.7408,-8.7728,-8.8552,-8.9676,-9.1126,-9.3191,-9.4986,-8.6299,-8.5641,-8.4983,-8.3995,-8.2918,-8.2798,-8.2769,-8.2739,-8.2679,-8.2649,-8.2409,-8.1332,-8.0853,-8.0794,-8.0734,-8.0405,-7.9896,-7.9746,-7.9357,-7.8669,-7.8071,-7.7771,-7.7682,-7.7143,-7.6844,-7.6874,-7.6904,-7.7233,-7.7711,-7.7711,-7.8011,-7.8549,-7.8669,-7.8669,-7.8699,-7.8759,-7.8789,-7.8789,-7.8669,-7.831,-7.7741,-7.7711,-7.7412,-7.6754,-7.6754,-7.6455,-7.5916,-7.5736,-7.5736,-7.5736,-7.5647,-7.5856,-7.6335,-7.6425,-7.6425,-7.6395,-7.6485,-7.6604,-7.6664,-7.7434,-7.7995,-7.8025,-7.9958,-8.1704,-8.2865,-8.4217,-8.5131,-8.5116,-8.5136,-8.5202,-8.5103,-8.5169,-8.5268,-8.5335,-8.5765,-8.6097,-8.613,-8.6693,-8.709,-8.709,-8.6925,-8.7123,-8.709,-8.709,-8.7242,-8.746,-8.7728,-8.7962,-8.7962,-8.7728,-8.7611,-8.7611,-8.7493,-8.7289,-8.7289,-8.7289,-8.7289,-8.7289,-8.7289,-8.7289,-8.7289,-8.7289,-8.7289,-8.7289,-8.7289,-8.7289,-8.7289,-8.7289,-8.7408,-8.7611,-8.8045,-8.8552,-9.0074,-9.2294,-9.3998,-8.6539,-8.618,-8.5132,-8.3965,-8.2828,-8.2769,-8.2769,-8.2769,-8.2769,-8.2769,-8.2709,-8.22,-8.1961,-8.1931,-8.1572,-8.1212,-8.0943,-8.0165,-7.9686,-7.9357,-7.8699,-7.84,-7.834,-7.813,-7.7981,-7.7981,-7.7981,-7.813,-7.834,-7.84,-7.8549,-7.8759,-7.8789,-7.8789,-7.8789,-7.8789,-7.8789,-7.8789,-7.8789,-7.8669,-7.843,-7.84,-7.825,-7.8011,-7.7981,-7.7891,-7.7592,-7.7263,-7.7023,-7.6993,-7.6664,-7.6544,-7.6814,-7.6844,-7.6844,-7.6844,-7.7203,-7.7412,-7.7412,-7.8011,-7.84,-7.84,-7.9938,-8.1169,-8.1683,-8.2987,-8.4185,-8.5042,-8.5821,-8.6395,-8.6362,-8.6362,-8.6395,-8.6428,-8.666,-8.6825,-8.6825,-8.7057,-8.7289,-8.7289,-8.7289,-8.7289,-8.7289,-8.7289,-8.7408,-8.7493,-8.7762,-8.8062,-8.7996,-8.7728,-8.7728,-8.7611,-8.7493,-8.7289,-8.7289,-8.7289,-8.7289,-8.7289,-8.7289,-8.7289,-8.7289,-8.7289,-8.7289,-8.7289,-8.7289,-8.7289,-8.7289,-8.7289,-8.7408,-8.7611,-8.8552,-8.9305,-9.0109,-9.1635,-9.2943,-8.6689,-8.6479,-8.5252,-8.3965,-8.2769,-8.2769,-8.2769,-8.2769,-8.2769,-8.2769,-8.2769,-8.2769,-8.2769,-8.2679,-8.226,-8.1961,-8.1661,-8.0794,-8.0165,-7.9806,-7.9297,-7.8968,-7.8819,-7.8789,-7.8789,-7.8789,-7.8759,-7.8789,-7.8789,-7.8789,-7.8789,-7.8789,-7.8789,-7.8789,-7.8789,-7.8789,-7.8789,-7.8789,-7.8789,-7.8789,-7.8789,-7.8789,-7.8789,-7.8789,-7.8789,-7.8789,-7.8789,-7.834,-7.8071,-7.8071,-7.7622,-7.7352,-7.7352,-7.7352,-7.7382,-7.7412,-7.7801,-7.8071,-7.81,-7.8519,-7.8789,-7.8933,-7.9839,-8.0509,-8.1032,-8.1819,-8.325,-8.4948,-8.6071,-8.6678,-8.7289,-8.7289,-8.7289,-8.7289,-8.7289,-8.7289,-8.7256,-8.7289,-8.7289,-8.7289,-8.7289,-8.7289,-8.7322,-8.7574,-8.7858,-8.7858,-8.8228,-8.8446,-8.8446,-8.8513,-8.8395,-8.8295,-8.7958,-8.7488,-8.7355,-8.7289,-8.7289,-8.7289,-8.7289,-8.7289,-8.7289,-8.7289,-8.7289,-8.7289,-8.7289,-8.7289,-8.7289,-8.7289,-8.7289,-8.7611,-8.8358,-8.9305,-8.9381,-9.0849,-9.167,-8.6689,-8.6479,-8.5252,-8.3965,-8.2769,-8.2769,-8.2769,-8.2769,-8.2769,-8.2769,-8.2769,-8.2769,-8.2769,-8.2769,-8.2679,-8.238,-8.1841,-8.1661,-8.1003,-8.0016,-7.9836,-7.9417,-7.8819,-7.8789,-7.8849,-7.8968,-7.8998,-7.8938,-7.8878,-7.8849,-7.8789,-7.8819,-7.8908,-7.8849,-7.8849,-7.8878,-7.8789,-7.8789,-7.8789,-7.8789,-7.8789,-7.8789,-7.8789,-7.8789,-7.8789,-7.8789,-7.8789,-7.8759,-7.8729,-7.8729,-7.8639,-7.8639,-7.8669,-7.8639,-7.8609,-7.8639,-7.8699,-7.8729,-7.8699,-7.8759,-7.8789,-7.8789,-7.8903,-7.9445,-8.0509,-8.0894,-8.2088,-8.4696,-8.498,-8.5636,-8.6864,-8.7289,-8.7289,-8.7289,-8.7289,-8.7289,-8.7289,-8.7289,-8.7289,-8.7289,-8.7355,-8.7455,-8.7389,-8.8091,-8.8576,-8.8861,-8.9565,-9.0051,-8.9951,-8.978,-8.9627,-8.9374,-8.8888,-8.8051,-8.7488,-8.7455,-8.7422,-8.7587,-8.7753,-8.7455,-8.7322,-8.7289,-8.7355,-8.7422,-8.7587,-8.7587,-8.7389,-8.7289,-8.7289,-8.7493,-8.7846,-8.8506,-8.8813,-8.9853,-9.0569,-8.6419,-8.597,-8.5073,-8.4175,-8.3367,-8.2948,-8.2769,-8.2769,-8.2769,-8.2769,-8.2769,-8.2769,-8.2769,-8.2769,-8.2769,-8.2649,-8.238,-8.1961,-8.1512,-8.1033,-8.0644,-8.0315,-8.0105,-8.0075,-8.0075,-8.0075,-8.0075,-8.0075,-8.0075,-8.0075,-8.0075,-8.0075,-8.0075,-7.9866,-7.9537,-7.9447,-7.9238,-7.8849,-7.8789,-7.8789,-7.8819,-7.8789,-7.8789,-7.8789,-7.8789,-7.8789,-7.8789,-7.8789,-7.8789,-7.8789,-7.8789,-7.8789,-7.8789,-7.8789,-7.8789,-7.8789,-7.8789,-7.8789,-7.8789,-7.8789,-7.8789,-7.8789,-7.8789,-7.8963,-7.9445,-7.9587,-8.037,-8.2088,-8.3412,-8.4315,-8.5636,-8.6711,-8.7289,-8.7289,-8.7289,-8.7322,-8.7289,-8.7289,-8.7289,-8.7355,-8.762,-8.8117,-8.8482,-8.8967,-8.9133,-8.9287,-8.976,-9.0047,-9.0047,-8.9927,-8.9993,-8.9893,-8.9453,-8.8945,-8.8747,-8.8217,-8.8051,-8.8482,-8.868,-8.868,-8.8581,-8.8482,-8.8548,-8.8449,-8.8449,-8.8184,-8.8051,-8.7521,-8.7488,-8.7408,-8.7728,-8.8078,-8.8194,-8.9261,-8.9669,-8.6299,-8.5671,-8.5222,-8.4654,-8.4025,-8.3576,-8.3397,-8.3397,-8.3397,-8.3397,-8.3397,-8.3397,-8.3397,-8.3397,-8.3397,-8.3397,-8.3277,-8.2499,-8.1991,-8.1751,-8.1302,-8.1003,-8.0823,-8.0823,-8.0823,-8.0794,-8.0823,-8.0823,-8.0823,-8.0823,-8.0823,-8.0794,-8.0823,-8.0584,-8.0195,-8.0135,-7.9866,-7.9507,-7.9447,-7.9447,-7.9447,-7.9447,-7.9447,-7.9447,-7.9447,-7.9208,-7.8819,-7.8789,-7.8789,-7.8789,-7.8789,-7.8789,-7.8789,-7.8789,-7.8789,-7.8789,-7.8789,-7.8789,-7.8789,-7.8789,-7.8878,-7.9118,-7.9118,-7.9178,-7.9387,-7.9417,-8.0109,-8.1432,-8.2879,-8.4178,-8.5659,-8.7159,-8.7786,-8.7455,-8.7455,-8.762,-8.7654,-8.7852,-8.7985,-8.8084,-8.8415,-8.8879,-8.9343,-8.9608,-8.9741,-8.9774,-9.0184,-9.0471,-9.0471,-9.0471,-9.0471,-9.0471,-9.0062,-8.9972,-8.9906,-8.9575,-8.8912,-8.9177,-8.931,-8.9475,-8.9575,-8.9542,-8.9509,-8.9475,-8.9277,-8.8979,-8.8548,-8.7952,-8.762,-8.7474,-8.7728,-8.8194,-8.8425,-8.8653,-8.9184,-8.6299,-8.5791,-8.5671,-8.5282,-8.4743,-8.4594,-8.4654,-8.4564,-8.4594,-8.4504,-8.4444,-8.4594,-8.4504,-8.4594,-8.4474,-8.4624,-8.4325,-8.3367,-8.2589,-8.211,-8.1901,-8.1572,-8.1093,-8.1063,-8.1033,-8.1003,-8.0913,-8.0883,-8.0973,-8.1003,-8.1003,-8.0913,-8.1003,-8.0973,-8.0794,-8.0794,-8.0764,-8.0644,-8.0584,-8.0674,-8.0794,-8.0644,-8.0614,-8.0674,-8.0674,-8.0105,-7.8968,-7.8908,-7.8968,-7.8938,-7.8938,-7.8849,-7.8968,-7.8968,-7.8908,-7.8968,-7.8908,-7.8878,-7.8908,-7.8968,-7.9297,-7.9686,-7.9836,-8.0016,-8.0698,-8.0848,-8.1402,-8.2851,-8.4206,-8.5615,-8.692,-8.8375,-8.8747,-8.7654,-8.7985,-8.8316,-8.8449,-8.8945,-8.9409,-8.9343,-8.9409,-8.9442,-8.9608,-9.0105,-9.0502,-9.0635,-9.109,-9.1422,-9.1355,-9.1355,-9.1588,-9.1455,-9.0933,-9.0668,-9.0867,-9.0966,-9.0237,-8.9741,-8.9774,-8.984,-8.9972,-9.0006,-9.0072,-9.0039,-8.9807,-8.9509,-8.8846,-8.8283,-8.7905,-8.764,-8.8012,-8.8194,-8.8425,-8.8733,-8.8959,-8.6539,-8.6329,-8.5881,-8.5581,-8.5312,-8.4923,-8.4714,-8.4714,-8.4714,-8.4714,-8.4714,-8.4714,-8.4714,-8.4714,-8.4714,-8.4714,-8.4684,-8.4265,-8.3995,-8.3756,-8.3337,-8.3008,-8.2739,-8.235,-8.214,-8.214,-8.214,-8.214,-8.211,-8.211,-8.214,-8.217,-8.214,-8.1901,-8.1482,-8.1452,-8.1302,-8.0853,-8.0823,-8.0823,-8.0823,-8.0823,-8.0823,-8.0823,-8.0823,-8.0554,-8.0195,-8.0165,-8.0195,-8.0165,-8.0165,-8.0165,-8.0165,-8.0195,-8.0165,-8.0165,-8.0195,-8.0165,-8.0165,-8.0165,-8.0195,-8.0434,-8.0494,-8.1111,-8.2101,-8.2306,-8.3018,-8.4319,-8.5774,-8.6856,-8.7404,-8.8605,-8.9122,-8.8813,-8.8945,-8.9078,-8.9144,-8.931,-8.9641,-9.0105,-9.0171,-9.037,-9.0767,-9.1165,-9.1165,-9.1198,-9.1554,-9.1844,-9.1968,-9.1844,-9.1968,-9.1902,-9.1579,-9.1198,-9.1264,-9.1297,-9.0966,-9.0569,-9.0502,-9.0436,-9.0536,-9.0569,-9.0635,-9.0602,-9.037,-8.9939,-8.9277,-8.8647,-8.8304,-8.7858,-8.8096,-8.8228,-8.8506,-8.8733,-8.8959,-8.6689,-8.6629,-8.624,-8.606,-8.603,-8.5581,-8.5432,-8.5432,-8.5432,-8.5432,-8.5462,-8.5462,-8.5432,-8.5462,-8.5462,-8.5432,-8.5432,-8.5462,-8.5432,-8.5282,-8.4474,-8.4115,-8.4055,-8.3696,-8.3307,-8.3158,-8.3128,-8.2978,-8.2769,-8.2769,-8.2769,-8.2739,-8.2769,-8.2559,-8.217,-8.214,-8.1901,-8.1572,-8.1542,-8.1512,-8.1542,-8.1512,-8.1542,-8.1542,-8.1542,-8.1542,-8.1512,-8.1512,-8.1302,-8.0913,-8.0823,-8.0823,-8.0823,-8.0794,-8.0823,-8.0823,-8.0794,-8.0794,-8.0823,-8.0734,-8.0943,-8.1093,-8.1183,-8.1981,-8.3348,-8.3695,-8.4232,-8.507,-8.6333,-8.7236,-8.74,-8.86,-8.9551,-9.0204,-8.9972,-8.9972,-9.0138,-9.0237,-9.0403,-9.0801,-9.0933,-9.1165,-9.143,-9.1562,-9.1562,-9.1596,-9.1844,-9.1968,-9.1968,-9.1844,-9.1968,-9.1968,-9.1654,-9.1496,-9.1529,-9.1562,-9.1562,-9.143,-9.1331,-9.1231,-9.1231,-9.1231,-9.1231,-9.1198,-9.0999,-9.0602,-8.9972,-8.9244,-8.8647,-8.8443,-8.8163,-8.831,-8.8506,-8.8847,-8.9184,-8.6689,-8.6689,-8.6659,-8.6629,-8.6629,-8.6569,-8.6509,-8.6599,-8.6599,-8.6539,-8.6569,-8.6479,-8.6539,-8.6599,-8.6449,-8.6449,-8.6629,-8.6509,-8.6479,-8.621,-8.5432,-8.4833,-8.4594,-8.4504,-8.4205,-8.3846,-8.3786,-8.3487,-8.3128,-8.2978,-8.2828,-8.2888,-8.2828,-8.2769,-8.2649,-8.2739,-8.2649,-8.2589,-8.2619,-8.2619,-8.2619,-8.2649,-8.2649,-8.2619,-8.2619,-8.2589,-8.2559,-8.2529,-8.208,-8.1123,-8.1093,-8.1123,-8.0973,-8.0913,-8.1063,-8.1093,-8.0973,-8.1033,-8.0973,-8.1123,-8.1302,-8.1781,-8.1991,-8.2766,-8.4421,-8.4711,-8.5142,-8.5712,-8.6831,-8.7581,-8.7988,-8.8923,-9.016,-9.118,-9.09,-9.0867,-9.143,-9.1463,-9.1397,-9.143,-9.1562,-9.1562,-9.1562,-9.1562,-9.1562,-9.1562,-9.172,-9.172,-9.172,-9.1811,-9.172,-9.172,-9.172,-9.1562,-9.1562,-9.1562,-9.1562,-9.1562,-9.1562,-9.1562,-9.1562,-9.1562,-9.1562,-9.1529,-9.1463,-9.1099,-9.0569,-8.9707,-8.91,-8.8913,-8.8613,-8.8477,-8.862,-8.8959,-8.9295,-8.6689,-8.6689,-8.6689,-8.6689,-8.6689,-8.6689,-8.6689,-8.6689,-8.6689,-8.6689,-8.6689,-8.6689,-8.6689,-8.6689,-8.6689,-8.6689,-8.6689,-8.6689,-8.6689,-8.6629,-8.6389,-8.5551,-8.4893,-8.4743,-8.4654,-8.4474,-8.4444,-8.4354,-8.4175,-8.3696,-8.3487,-8.3457,-8.3068,-8.2828,-8.2769,-8.2828,-8.2769,-8.2769,-8.2769,-8.2798,-8.2828,-8.2828,-8.2769,-8.2769,-8.2769,-8.2769,-8.2769,-8.2769,-8.2649,-8.232,-8.223,-8.223,-8.217,-8.214,-8.211,-8.214,-8.217,-8.22,-8.22,-8.22,-8.232,-8.2469,-8.2439,-8.328,-8.4812,-8.4988,-8.6103,-8.7603,-8.8717,-8.9249,-9.0195,-9.074,-9.1186,-9.1437,-9.1364,-9.1331,-9.1496,-9.1562,-9.1562,-9.1562,-9.1562,-9.1562,-9.1562,-9.1562,-9.1562,-9.1596,-9.172,-9.1968,-9.1811,-9.1844,-9.1844,-9.1844,-9.1844,-9.1687,-9.1562,-9.1562,-9.1562,-9.1562,-9.1562,-9.1562,-9.1562,-9.1562,-9.1562,-9.1562,-9.1687,-9.1422,-9.0635,-8.9873,-8.9573,-8.9265,-8.868,-8.8377,-8.8767,-8.9072,-8.9295,-8.6958,-8.6689,-8.6689,-8.6689,-8.6689,-8.6689,-8.6689,-8.6689,-8.6689,-8.6689,-8.6689,-8.6689,-8.6689,-8.6689,-8.6689,-8.6689,-8.6689,-8.6689,-8.6689,-8.6689,-8.6629,-8.621,-8.5671,-8.5551,-8.5402,-8.5132,-8.5132,-8.4953,-8.4684,-8.4325,-8.4175,-8.4085,-8.3756,-8.3576,-8.3636,-8.3576,-8.3576,-8.3606,-8.3576,-8.3576,-8.3576,-8.3576,-8.3397,-8.3247,-8.3158,-8.3098,-8.2828,-8.2769,-8.2769,-8.2739,-8.2739,-8.2769,-8.2769,-8.2769,-8.2769,-8.2769,-8.2769,-8.2739,-8.2769,-8.2769,-8.2769,-8.2769,-8.2769,-8.3877,-8.539,-8.5961,-8.7052,-8.8851,-8.938,-8.9806,-9.0484,-9.1186,-9.1562,-9.1562,-9.1562,-9.1562,-9.1562,-9.1562,-9.1562,-9.1562,-9.1562,-9.1562,-9.1562,-9.1562,-9.1562,-9.1562,-9.172,-9.1844,-9.1844,-9.1844,-9.1968,-9.1844,-9.1844,-9.1687,-9.1562,-9.1562,-9.1562,-9.1562,-9.1562,-9.1562,-9.1562,-9.1562,-9.1562,-9.1562,-9.172,-9.1678,-9.099,-9.0449,-9.0047,-8.955,-8.883,-8.8525,-8.888,-8.9407,-8.9483,-8.7407,-8.6778,-8.6778,-8.6748,-8.6689,-8.6689,-8.6689,-8.6689,-8.6689,-8.6689,-8.6689,-8.6689,-8.6689,-8.6689,-8.6689,-8.6689,-8.6689,-8.6689,-8.6689,-8.6689,-8.6689,-8.6539,-8.6479,-8.6419,-8.621,-8.5851,-8.5791,-8.5521,-8.5192,-8.4953,-8.4833,-8.4743,-8.4684,-8.4654,-8.4474,-8.4564,-8.4684,-8.4564,-8.4474,-8.4474,-8.4474,-8.4444,-8.4235,-8.3876,-8.3636,-8.3397,-8.3038,-8.2828,-8.2769,-8.2769,-8.2769,-8.2769,-8.2769,-8.2769,-8.2769,-8.2769,-8.2769,-8.2769,-8.2769,-8.2769,-8.2769,-8.2769,-8.2769,-8.3994,-8.593,-8.6494,-8.7328,-8.9249,-8.938,-8.9675,-9.0065,-9.09,-9.1437,-9.1562,-9.1562,-9.1562,-9.1562,-9.1562,-9.1562,-9.1562,-9.1562,-9.1562,-9.1562,-9.1562,-9.1562,-9.1562,-9.1687,-9.1687,-9.1687,-9.1687,-9.172,-9.1687,-9.1687,-9.1562,-9.1562,-9.1562,-9.1562,-9.1562,-9.1562,-9.1562,-9.1562,-9.1562,-9.1562,-9.1562,-9.1687,-9.1811,-9.1678,-9.1159,-9.04,-8.9902,-8.9181,-8.899,-8.8959,-8.9483,-8.9779,-8.8095,-8.7496,-8.7496,-8.7167,-8.6718,-8.6689,-8.6689,-8.6689,-8.6689,-8.6689,-8.6689,-8.6689,-8.6689,-8.6689,-8.6689,-8.6689,-8.6689,-8.6689,-8.6689,-8.6689,-8.6689,-8.6689,-8.6689,-8.6689,-8.6599,-8.6419,-8.6449,-8.6359,-8.612,-8.5671,-8.5492,-8.5432,-8.5103,-8.4743,-8.4803,-8.4893,-8.4714,-8.4714,-8.4773,-8.4833,-8.4833,-8.4833,-8.4743,-8.4474,-8.4025,-8.3726,-8.3457,-8.3038,-8.2769,-8.2769,-8.2828,-8.2918,-8.2798,-8.2769,-8.2769,-8.2769,-8.2769,-8.2769,-8.2769,-8.2798,-8.2769,-8.2769,-8.298,-8.361,-8.5133,-8.5676,-8.6913,-8.8717,-8.938,-8.9936,-9.09,-9.1312,-9.1562,-9.1562,-9.1562,-9.1562,-9.1562,-9.1562,-9.1562,-9.1562,-9.1562,-9.1562,-9.1562,-9.1562,-9.1562,-9.1562,-9.1562,-9.1562,-9.1562,-9.1562,-9.1562,-9.1562,-9.1562,-9.1562,-9.1562,-9.1562,-9.1562,-9.1562,-9.1562,-9.1562,-9.1562,-9.1562,-9.1562,-9.1562,-9.1562,-9.1687,-9.1935,-9.0992,-9.0099,-8.9801,-8.9615,-8.9285,-8.9261,-8.9779,-9.0569,-8.8753,-8.8155,-8.7826,-8.7496,-8.7137,-8.6808,-8.6689,-8.6689,-8.6689,-8.6689,-8.6689,-8.6689,-8.6689,-8.6689,-8.6689,-8.6689,-8.6689,-8.6689,-8.6689,-8.6689,-8.6689,-8.6689,-8.6689,-8.6689,-8.6689,-8.6689,-8.6659,-8.6689,-8.6569,-8.6359,-8.615,-8.615,-8.5761,-8.5731,-8.5641,-8.5581,-8.5671,-8.5671,-8.5641,-8.5641,-8.5641,-8.5641,-8.5402,-8.5103,-8.4564,-8.4205,-8.4145,-8.3906,-8.3726,-8.3696,-8.3666,-8.3337,-8.2858,-8.2769,-8.2769,-8.2769,-8.2769,-8.2769,-8.2769,-8.3008,-8.3098,-8.2798,-8.3038,-8.4386,-8.5514,-8.6071,-8.7466,-8.9544,-9.0484,-9.09,-9.1437,-9.1562,-9.1562,-9.1562,-9.1562,-9.1562,-9.1562,-9.1562,-9.1562,-9.1562,-9.1562,-9.1562,-9.1562,-9.1562,-9.1562,-9.1562,-9.1562,-9.1562,-9.1562,-9.1562,-9.1562,-9.1562,-9.1562,-9.1562,-9.1562,-9.1562,-9.1562,-9.1562,-9.1562,-9.1562,-9.1562,-9.1562,-9.1562,-9.1562,-9.1687,-9.1968,-9.1981,-9.0847,-9.0285,-9.0321,-9.0129,-8.9624,-8.9559,-9.0285,-9.1263,-8.9441,-8.8783,-8.8245,-8.7885,-8.7646,-8.7107,-8.6778,-8.6689,-8.6689,-8.6689,-8.6689,-8.6689,-8.6689,-8.6689,-8.6838,-8.6838,-8.6838,-8.6689,-8.6689,-8.6689,-8.6689,-8.6689,-8.6689,-8.6689,-8.6689,-8.6689,-8.6689,-8.6689,-8.6689,-8.6659,-8.6539,-8.6629,-8.6629,-8.6449,-8.6599,-8.6659,-8.6509,-8.6449,-8.6449,-8.6479,-8.6509,-8.6509,-8.627,-8.5851,-8.5222,-8.4893,-8.4803,-8.4684,-8.4624,-8.4714,-8.4714,-8.4115,-8.3427,-8.3068,-8.3068,-8.3098,-8.3217,-8.3277,-8.3367,-8.3606,-8.3666,-8.3098,-8.3547,-8.5025,-8.6775,-8.7696,-8.9097,-9.0652,-9.1867,-9.1702,-9.1761,-9.1629,-9.1596,-9.1562,-9.1562,-9.1562,-9.1562,-9.1562,-9.1562,-9.1562,-9.1562,-9.1562,-9.1562,-9.1562,-9.1562,-9.1562,-9.1562,-9.1562,-9.1562,-9.1562,-9.1562,-9.1562,-9.1562,-9.1562,-9.1562,-9.1562,-9.1562,-9.1562,-9.1562,-9.1562,-9.1562,-9.1562,-9.1562,-9.1687,-9.1844,-9.2092,-9.2103,-9.1422,-9.0925,-9.1006,-9.0493,-8.9872,-9.0092,-9.0743,-9.197,-9.01,-8.9501,-8.9382,-8.8723,-8.7796,-8.7586,-8.7197,-8.6718,-8.6718,-8.6689,-8.6689,-8.6689,-8.6689,-8.6808,-8.7317,-8.7496,-8.7347,-8.7048,-8.6718,-8.6689,-8.6689,-8.6689,-8.6689,-8.6689,-8.6689,-8.6689,-8.6689,-8.6689,-8.6689,-8.6689,-8.6689,-8.6689,-8.6689,-8.6689,-8.6748,-8.6689,-8.6808,-8.6898,-8.6838,-8.6778,-8.6778,-8.6689,-8.6629,-8.6359,-8.5821,-8.5581,-8.5402,-8.5013,-8.4714,-8.4714,-8.4714,-8.4624,-8.4444,-8.4384,-8.4354,-8.4235,-8.4205,-8.4145,-8.4205,-8.4414,-8.4504,-8.4444,-8.4474,-8.5939,-8.7931,-8.9006,-9.0228,-9.2122,-9.2788,-9.2523,-9.249,-9.2126,-9.1695,-9.1629,-9.1662,-9.1629,-9.1596,-9.1562,-9.1562,-9.1562,-9.1562,-9.1562,-9.1562,-9.1562,-9.1562,-9.1562,-9.1562,-9.1562,-9.1562,-9.1562,-9.1562,-9.1562,-9.1562,-9.1562,-9.1562,-9.1562,-9.1562,-9.1562,-9.1562,-9.1562,-9.1562,-9.1562,-9.1562,-9.1562,-9.172,-9.1844,-9.1692,-9.1556,-9.1312,-9.0991,-9.056,-9.0086,-9.0701,-9.14,-9.2365,-9.0459,-9.016,-8.9801,-8.9322,-8.8663,-8.7975,-8.7526,-8.7167,-8.6838,-8.6689,-8.6689,-8.6689,-8.6689,-8.6868,-8.7407,-8.7706,-8.7616,-8.7407,-8.7018,-8.6778,-8.6689,-8.6689,-8.6689,-8.6689,-8.6689,-8.6689,-8.6689,-8.6689,-8.6689,-8.6689,-8.6689,-8.6689,-8.6689,-8.6838,-8.7137,-8.7257,-8.7407,-8.7526,-8.7377,-8.7197,-8.7137,-8.6928,-8.6689,-8.6569,-8.6419,-8.621,-8.615,-8.597,-8.5731,-8.5761,-8.5731,-8.5731,-8.5701,-8.5611,-8.5402,-8.4893,-8.4773,-8.4743,-8.4833,-8.4953,-8.5073,-8.4773,-8.5013,-8.6457,-8.8431,-8.9527,-9.0935,-9.2778,-9.3616,-9.3252,-9.3252,-9.2888,-9.2589,-9.2225,-9.2126,-9.196,-9.1695,-9.1596,-9.1596,-9.1596,-9.1562,-9.1562,-9.1562,-9.1562,-9.1562,-9.1562,-9.1562,-9.1562,-9.1562,-9.1562,-9.1562,-9.1562,-9.1562,-9.1562,-9.1562,-9.1562,-9.1562,-9.1562,-9.1562,-9.1562,-9.1562,-9.1562,-9.1562,-9.1562,-9.1687,-9.172,-9.1948,-9.1911,-9.1446,-9.1092,-9.0581,-9.0401,-9.123,-9.2168,-9.2943,-9.0638,-9.0579,-9.007,-8.9771,-8.9501,-8.8574,-8.7945,-8.7616,-8.7137,-8.6808,-8.6689,-8.6689,-8.6689,-8.6868,-8.7347,-8.7826,-8.8005,-8.7915,-8.7377,-8.7018,-8.6748,-8.6689,-8.6689,-8.6689,-8.6689,-8.6689,-8.6689,-8.6689,-8.6689,-8.6689,-8.6689,-8.6748,-8.6748,-8.7107,-8.7556,-8.7796,-8.8245,-8.8334,-8.8215,-8.7885,-8.7586,-8.7197,-8.6778,-8.6689,-8.6689,-8.6629,-8.6599,-8.6539,-8.6509,-8.6539,-8.6569,-8.6599,-8.6659,-8.6659,-8.618,-8.5312,-8.5103,-8.5103,-8.5282,-8.5551,-8.5701,-8.5402,-8.5641,-8.7279,-8.9397,-9.0787,-9.1965,-9.3662,-9.4047,-9.4014,-9.4014,-9.3848,-9.3484,-9.3119,-9.2854,-9.2689,-9.2159,-9.1894,-9.1794,-9.1728,-9.1629,-9.1596,-9.1629,-9.1562,-9.1562,-9.1562,-9.1562,-9.1562,-9.1562,-9.1562,-9.1562,-9.1562,-9.1562,-9.1562,-9.1562,-9.1562,-9.1562,-9.1562,-9.1562,-9.1562,-9.1562,-9.1562,-9.1562,-9.1562,-9.1562,-9.1654,-9.1948,-9.2078,-9.1562,-9.1094,-9.0669,-9.087,-9.1645,-9.2302,-9.2943,-9.0638,-9.0638,-9.0549,-9.019,-8.9711,-8.9441,-8.8723,-8.7796,-8.7646,-8.7227,-8.6778,-8.6718,-8.6748,-8.6988,-8.7526,-8.8394,-8.8783,-8.8364,-8.7826,-8.7526,-8.7048,-8.6778,-8.6718,-8.6689,-8.6778,-8.6868,-8.6808,-8.6689,-8.6838,-8.6838,-8.6718,-8.6838,-8.7317,-8.7676,-8.8005,-8.8364,-8.8604,-8.8693,-8.8634,-8.8304,-8.7826,-8.7646,-8.7317,-8.6958,-8.6808,-8.6808,-8.6838,-8.6808,-8.6748,-8.6689,-8.6689,-8.6689,-8.6689,-8.6689,-8.6659,-8.6479,-8.6449,-8.6449,-8.6329,-8.6359,-8.6419,-8.621,-8.6419,-8.8227,-9.0485,-9.3169,-9.4782,-9.5441,-9.5173,-9.4809,-9.4676,-9.4213,-9.3881,-9.3716,-9.3649,-9.3252,-9.2755,-9.2556,-9.2391,-9.2192,-9.2192,-9.1894,-9.1728,-9.1629,-9.1562,-9.1562,-9.1562,-9.1562,-9.1562,-9.1562,-9.1562,-9.1562,-9.1562,-9.1562,-9.1562,-9.1562,-9.1562,-9.1562,-9.1562,-9.1562,-9.1562,-9.1562,-9.1562,-9.1562,-9.1562,-9.1811,-9.2114,-9.2024,-9.1643,-9.1211,-9.0755,-9.12,-9.2015,-9.2532,-9.3073,-9.0638,-9.0638,-9.0638,-9.0489,-9.019,-8.983,-8.9352,-8.8843,-8.8424,-8.7885,-8.7347,-8.7257,-8.7437,-8.7856,-8.8514,-8.9112,-8.9471,-8.9023,-8.8574,-8.8155,-8.7616,-8.7257,-8.7257,-8.7257,-8.7257,-8.7347,-8.7616,-8.7915,-8.7736,-8.7437,-8.7257,-8.7347,-8.7945,-8.8514,-8.8663,-8.9052,-8.9441,-8.9591,-8.9441,-8.8903,-8.8424,-8.8245,-8.8125,-8.7826,-8.7766,-8.7586,-8.7317,-8.7257,-8.7018,-8.6808,-8.6689,-8.6689,-8.6689,-8.6689,-8.6659,-8.6659,-8.6659,-8.6629,-8.6629,-8.6689,-8.6689,-8.6659,-8.6975,-8.8102,-9.104,-9.3962,-9.6001,-9.5968,-9.5736,-9.5538,-9.5471,-9.524,-9.4842,-9.461,-9.4411,-9.3948,-9.355,-9.3418,-9.3219,-9.2987,-9.2755,-9.249,-9.2192,-9.196,-9.1794,-9.1562,-9.1562,-9.1562,-9.1562,-9.1562,-9.1562,-9.1562,-9.1562,-9.1562,-9.1562,-9.1562,-9.1562,-9.1562,-9.1562,-9.1562,-9.1562,-9.1562,-9.1687,-9.1844,-9.1968,-9.2092,-9.2337,-9.2103,-9.1824,-9.1412,-9.0958,-9.1692,-9.2469,-9.254,-9.3286,-9.0638,-9.0638,-9.0638,-9.0638,-9.0608,-9.013,-8.9801,-8.9591,-8.9142,-8.8574,-8.8095,-8.7975,-8.8304,-8.8873,-8.9382,-8.9681,-8.992,-8.9741,-8.9382,-8.8843,-8.8334,-8.8005,-8.7945,-8.7945,-8.7945,-8.7945,-8.8274,-8.8484,-8.8484,-8.8394,-8.8185,-8.8005,-8.8604,-8.9112,-8.9531,-8.983,-9.01,-9.0369,-9.01,-8.9561,-8.9052,-8.8933,-8.8813,-8.8693,-8.8634,-8.8454,-8.8065,-8.7945,-8.7616,-8.7407,-8.7317,-8.7377,-8.7347,-8.7377,-8.7227,-8.7137,-8.7048,-8.6898,-8.6778,-8.6689,-8.6689,-8.6817,-8.7386,-8.8868,-9.1651,-9.4268,-9.5739,-9.587,-9.5968,-9.5968,-9.6001,-9.5935,-9.5637,-9.5306,-9.5173,-9.4676,-9.4279,-9.4146,-9.3848,-9.3451,-9.3285,-9.3285,-9.2954,-9.249,-9.2126,-9.1695,-9.1562,-9.1596,-9.1562,-9.1562,-9.1562,-9.1562,-9.1562,-9.1562,-9.1562,-9.1562,-9.1562,-9.1596,-9.1596,-9.172,-9.1753,-9.1844,-9.1968,-9.2092,-9.2248,-9.2459,-9.2581,-9.2325,-9.2091,-9.1833,-9.1758,-9.2207,-9.2755,-9.2905,-9.3936,-9.0638,-9.0638,-9.0638,-9.0638,-9.0638,-9.0608,-9.0219,-8.9771,-8.9651,-8.9232,-8.8663,-8.8634,-8.8963,-8.9471,-8.9681,-9.004,-9.0519,-8.995,-8.9711,-8.9441,-8.8993,-8.8663,-8.8604,-8.8634,-8.8634,-8.8634,-8.8933,-8.8933,-8.8903,-8.9501,-8.9112,-8.8813,-8.9382,-8.9561,-8.998,-9.0489,-9.0728,-9.0908,-9.0668,-9.0309,-8.983,-8.9591,-8.9352,-8.8933,-8.8753,-8.8663,-8.8634,-8.8634,-8.8484,-8.8304,-8.8245,-8.8245,-8.8185,-8.8215,-8.8005,-8.7736,-8.7616,-8.7377,-8.7018,-8.6748,-8.6689,-8.7103,-8.7978,-8.9593,-9.1938,-9.3272,-9.4572,-9.5574,-9.5739,-9.6001,-9.6001,-9.6001,-9.5902,-9.5803,-9.5604,-9.5339,-9.5008,-9.4908,-9.4577,-9.4014,-9.3881,-9.4047,-9.3848,-9.3451,-9.2854,-9.2424,-9.1894,-9.1894,-9.1629,-9.1562,-9.1562,-9.1562,-9.1562,-9.1562,-9.1562,-9.1562,-9.1562,-9.1695,-9.1761,-9.2011,-9.2101,-9.2192,-9.2325,-9.2471,-9.2781,-9.2923,-9.2943,-9.2755,-9.264,-9.2423,-9.2589,-9.3089,-9.4308,-9.5297,-9.6076,-9.0638,-9.0638,-9.0638,-9.0638,-9.0638,-9.0638,-9.0489,-9.0309,-9.0249,-8.989,-8.9292,-8.9292,-8.9412,-8.9711,-9.013,-9.0369,-9.0608,-9.0429,-9.0279,-9.004,-8.9651,-8.9352,-8.9292,-8.9292,-8.9292,-8.9382,-8.9621,-8.989,-9.001,-9.0489,-9.0698,-9.0579,-9.0369,-9.0549,-9.0908,-9.1386,-9.1686,-9.1656,-9.1446,-9.1057,-9.0908,-9.0429,-9.013,-8.995,-8.989,-8.9651,-8.9382,-8.9292,-8.9052,-8.8843,-8.8753,-8.8783,-8.8813,-8.8813,-8.8634,-8.8364,-8.8304,-8.7945,-8.7317,-8.6958,-8.6689,-8.6975,-8.8163,-8.9624,-9.1362,-9.2538,-9.3688,-9.4707,-9.5574,-9.6001,-9.6001,-9.6001,-9.6001,-9.6001,-9.5935,-9.577,-9.5637,-9.5471,-9.5372,-9.4842,-9.4908,-9.5074,-9.4776,-9.4445,-9.3815,-9.3186,-9.2656,-9.2126,-9.1861,-9.1596,-9.1562,-9.1562,-9.1562,-9.1562,-9.1562,-9.1562,-9.1596,-9.1794,-9.1993,-9.2409,-9.2633,-9.2758,-9.2982,-9.315,-9.3312,-9.3365,-9.3384,-9.3249,-9.3267,-9.3304,-9.3538,-9.3895,-9.5476,-9.7298,-9.7893,-9.0638,-9.0638,-9.0638,-9.0638,-9.0638,-9.0638,-9.0638,-9.0638,-9.0638,-9.0429,-8.998,-8.995,-8.995,-9.01,-9.0369,-9.0608,-9.0638,-9.0608,-9.0638,-9.0429,-9.016,-8.998,-8.995,-8.995,-8.995,-9.01,-9.0579,-9.0908,-9.0878,-9.1596,-9.1746,-9.1656,-9.1506,-9.1596,-9.1835,-9.2314,-9.2613,-9.2464,-9.2224,-9.1895,-9.1805,-9.1297,-9.0938,-9.0818,-9.0668,-9.0339,-9.004,-8.995,-8.9771,-8.9531,-8.9382,-8.9322,-8.9292,-8.9232,-8.9172,-8.9052,-8.8903,-8.8663,-8.8005,-8.7197,-8.7035,-8.7729,-8.7542,-8.8716,-9.0041,-9.1794,-9.282,-9.3995,-9.5142,-9.6035,-9.6035,-9.6001,-9.6001,-9.6001,-9.6001,-9.5902,-9.5902,-9.5803,-9.5836,-9.5736,-9.577,-9.567,-9.5538,-9.514,-9.4478,-9.3716,-9.2888,-9.2424,-9.2192,-9.1894,-9.1562,-9.1562,-9.1562,-9.1562,-9.1562,-9.1828,-9.2126,-9.2324,-9.2556,-9.3173,-9.3399,-9.3524,-9.3773,-9.4199,-9.4294,-9.4095,-9.4247,-9.4713,-9.4511,-9.442,-9.4979,-9.5848,-9.7145,-9.8812,-9.8973,-9.0638,-9.0638,-9.0638,-9.0638,-9.0638,-9.0638,-9.0638,-9.0638,-9.0638,-9.0608,-9.0519,-9.0549,-9.0549,-9.0549,-9.0608,-9.0638,-9.0638,-9.0638,-9.0638,-9.0579,-9.0519,-9.0549,-9.0549,-9.0489,-9.0429,-9.0728,-9.1117,-9.1416,-9.1506,-9.2254,-9.2524,-9.2643,-9.2583,-9.2554,-9.2613,-9.2613,-9.2643,-9.2643,-9.2673,-9.2583,-9.2434,-9.1955,-9.1656,-9.1327,-9.1057,-9.0728,-9.0489,-9.0429,-9.0309,-9.0249,-9.0249,-9.0249,-9.0279,-9.0309,-9.01,-8.9681,-8.9651,-8.9322,-8.8663,-8.7437,-8.7591,-8.8343,-8.8026,-8.8374,-9.0345,-9.1488,-9.2192,-9.3507,-9.5067,-9.5904,-9.597,-9.6068,-9.6134,-9.6001,-9.6001,-9.6001,-9.6001,-9.6001,-9.6001,-9.6001,-9.6001,-9.6001,-9.5968,-9.577,-9.5074,-9.4279,-9.3252,-9.2755,-9.2523,-9.2225,-9.1894,-9.1562,-9.1596,-9.1794,-9.1894,-9.2324,-9.2623,-9.2821,-9.3279,-9.3837,-9.4164,-9.429,-9.4633,-9.5128,-9.5035,-9.4804,-9.5477,-9.6219,-9.6467,-9.6834,-9.7405,-9.8277,-9.9389,-9.991,-9.9962,-9.0638,-9.0638,-9.0638,-9.0638,-9.0638,-9.0638,-9.0638,-9.0638,-9.0638,-9.0638,-9.0638,-9.0638,-9.0638,-9.0638,-9.0638,-9.0638,-9.0638,-9.0638,-9.0638,-9.0638,-9.0638,-9.0638,-9.0638,-9.0638,-9.0668,-9.0818,-9.1267,-9.1686,-9.1596,-9.2703,-9.3182,-9.3302,-9.3541,-9.3661,-9.3541,-9.3601,-9.393,-9.384,-9.3571,-9.3242,-9.3152,-9.2613,-9.2105,-9.1716,-9.1416,-9.1057,-9.0728,-9.0698,-9.0638,-9.0638,-9.0638,-9.0638,-9.0638,-9.0638,-9.0549,-9.0309,-9.0279,-9.001,-8.9352,-8.8514,-8.8196,-8.8456,-8.8495,-8.8465,-8.9473,-9.0682,-9.1862,-9.3386,-9.4886,-9.5923,-9.6598,-9.6797,-9.6697,-9.6134,-9.6001,-9.6001,-9.6001,-9.6001,-9.6001,-9.6001,-9.6001,-9.6001,-9.6001,-9.6001,-9.5505,-9.5206,-9.4378,-9.3418,-9.302,-9.2656,-9.2291,-9.1761,-9.1629,-9.1927,-9.2258,-9.2821,-9.3252,-9.3484,-9.4042,-9.454,-9.4768,-9.4895,-9.5276,-9.5652,-9.5587,-9.5635,-9.6853,-9.7945,-9.8865,-9.9534,-9.9743,-9.9745,-10.0165,-10.0469,-10.0396,-9.0638,-9.0638,-9.0638,-9.0638,-9.0638,-9.0638,-9.0638,-9.0638,-9.0638,-9.0638,-9.0638,-9.0638,-9.0638,-9.0638,-9.0638,-9.0638,-9.0638,-9.0638,-9.0638,-9.0638,-9.0638,-9.0638,-9.0638,-9.0668,-9.0848,-9.1057,-9.1596,-9.2075,-9.2464,-9.3421,-9.387,-9.405,-9.4379,-9.4229,-9.4139,-9.4319,-9.4499,-9.4379,-9.408,-9.396,-9.375,-9.3332,-9.2763,-9.2344,-9.1895,-9.1416,-9.1027,-9.0818,-9.0668,-9.0698,-9.0668,-9.0668,-9.0668,-9.0638,-9.0638,-9.0638,-9.0608,-9.0399,-8.995,-8.9711,-8.9352,-8.9515,-8.9023,-8.8723,-8.8987,-9.0179,-9.1667,-9.3321,-9.4795,-9.619,-9.7157,-9.7359,-9.7194,-9.6631,-9.6366,-9.6366,-9.6068,-9.6068,-9.6001,-9.6001,-9.6001,-9.6001,-9.6001,-9.6001,-9.5836,-9.5703,-9.5538,-9.4544,-9.3583,-9.3219,-9.2921,-9.2457,-9.2258,-9.2656,-9.3053,-9.3484,-9.3881,-9.4113,-9.461,-9.527,-9.5402,-9.5532,-9.5755,-9.6104,-9.6428,-9.6997,-9.841,-9.9604,-10.0487,-10.102,-10.119,-10.1158,-10.1048,-10.094,-10.0903,-9.0579,-9.0608,-9.0608,-9.0608,-9.0638,-9.0638,-9.0638,-9.0638,-9.0638,-9.0638,-9.0638,-9.0638,-9.0638,-9.0638,-9.0638,-9.0638,-9.0638,-9.0638,-9.0638,-9.0638,-9.0638,-9.0638,-9.0638,-9.0668,-9.0968,-9.1566,-9.2165,-9.2673,-9.3511,-9.408,-9.4439,-9.4499,-9.4558,-9.4528,-9.4528,-9.4558,-9.4618,-9.4558,-9.4499,-9.4409,-9.4259,-9.393,-9.3511,-9.3062,-9.2494,-9.1985,-9.1596,-9.1267,-9.1027,-9.0878,-9.0788,-9.0728,-9.0698,-9.0638,-9.0638,-9.0638,-9.0638,-9.0608,-9.0668,-9.0549,-9.0549,-9.0369,-8.9621,-8.9052,-8.9359,-9.06,-9.2165,-9.3772,-9.542,-9.6678,-9.7919,-9.7921,-9.7923,-9.7459,-9.7062,-9.673,-9.6266,-9.6101,-9.6035,-9.6001,-9.6001,-9.6001,-9.6001,-9.6001,-9.6001,-9.5935,-9.5803,-9.5538,-9.4643,-9.4047,-9.3749,-9.3451,-9.3384,-9.3616,-9.3948,-9.4179,-9.4544,-9.4842,-9.5273,-9.5736,-9.5869,-9.5966,-9.5963,-9.6411,-9.7394,-9.8513,-10.0051,-10.1168,-10.2059,-10.2404,-10.2551,-10.2117,-10.1881,-10.1628,-10.1628,-8.9501,-8.992,-8.995,-9.0219,-9.0608,-9.0638,-9.0638,-9.0638,-9.0638,-9.0638,-9.0638,-9.0638,-9.0638,-9.0638,-9.0638,-9.0638,-9.0638,-9.0638,-9.0638,-9.0638,-9.0638,-9.0638,-9.0668,-9.0728,-9.1087,-9.1656,-9.2314,-9.3032,-9.3601,-9.4289,-9.4618,-9.4588,-9.4618,-9.4618,-9.4618,-9.4618,-9.4618,-9.4618,-9.4618,-9.4618,-9.4618,-9.4349,-9.402,-9.3541,-9.3182,-9.2673,-9.2284,-9.2075,-9.1895,-9.1925,-9.1536,-9.1357,-9.1327,-9.0938,-9.0638,-9.0638,-9.0698,-9.0788,-9.1207,-9.1327,-9.1327,-9.1327,-9.0878,-9.0579,-9.0713,-9.1354,-9.3002,-9.4467,-9.577,-9.7145,-9.8439,-9.8715,-9.8552,-9.8088,-9.7691,-9.726,-9.683,-9.6565,-9.6432,-9.62,-9.6167,-9.6001,-9.6001,-9.6001,-9.6001,-9.6001,-9.5968,-9.5836,-9.5571,-9.4941,-9.4577,-9.4312,-9.4213,-9.4378,-9.4511,-9.4743,-9.514,-9.5571,-9.5836,-9.6001,-9.5968,-9.5935,-9.6099,-9.6806,-9.8079,-9.9723,-10.1576,-10.2488,-10.3229,-10.3653,-10.3801,-10.3221,-10.2714,-10.2497,-10.2497,-8.8933,-8.9262,-8.9292,-8.9651,-9.019,-9.0249,-9.0369,-9.0608,-9.0638,-9.0638,-9.0638,-9.0638,-9.0638,-9.0638,-9.0638,-9.0638,-9.0638,-9.0638,-9.0638,-9.0638,-9.0638,-9.0638,-9.0668,-9.0908,-9.1476,-9.2015,-9.2643,-9.3421,-9.39,-9.4289,-9.4618,-9.4618,-9.4618,-9.4618,-9.4618,-9.4618,-9.4618,-9.4618,-9.4618,-9.4618,-9.4618,-9.4618,-9.4319,-9.402,-9.378,-9.3361,-9.3032,-9.2853,-9.2643,-9.2613,-9.2105,-9.2015,-9.1985,-9.1626,-9.1446,-9.1506,-9.1536,-9.1686,-9.1955,-9.2015,-9.2015,-9.1985,-9.2015,-9.1776,-9.1464,-9.1674,-9.34,-9.4857,-9.6094,-9.7415,-9.8675,-9.9612,-9.9149,-9.8685,-9.8287,-9.789,-9.7525,-9.7161,-9.683,-9.6498,-9.63,-9.6101,-9.6001,-9.6035,-9.6001,-9.6001,-9.6001,-9.5968,-9.5869,-9.5604,-9.5306,-9.5107,-9.5008,-9.5008,-9.514,-9.524,-9.5538,-9.577,-9.5902,-9.6001,-9.6001,-9.6132,-9.6359,-9.7404,-9.877,-10.0516,-10.2174,-10.3401,-10.4225,-10.4448,-10.4561,-10.4163,-10.3656,-10.333,-10.3475,-8.8544,-8.8604,-8.8663,-8.9052,-8.9561,-8.9681,-9.001,-9.0549,-9.0608,-9.0638,-9.0638,-9.0638,-9.0638,-9.0638,-9.0638,-9.0638,-9.0638,-9.0638,-9.0638,-9.0638,-9.0638,-9.0638,-9.0818,-9.1207,-9.1536,-9.2374,-9.3002,-9.3242,-9.4169,-9.4409,-9.4409,-9.4588,-9.4618,-9.4618,-9.4618,-9.4618,-9.4618,-9.4618,-9.4618,-9.4618,-9.4618,-9.4618,-9.4618,-9.4469,-9.411,-9.3661,-9.3541,-9.3212,-9.2763,-9.2793,-9.2703,-9.2703,-9.2494,-9.2464,-9.2434,-9.2434,-9.2284,-9.2464,-9.2583,-9.2673,-9.2673,-9.2673,-9.2673,-9.2494,-9.2243,-9.2399,-9.3951,-9.5243,-9.6469,-9.78,-9.908,-10.01,-10.0043,-9.948,-9.8983,-9.8618,-9.8287,-9.789,-9.7492,-9.7194,-9.6995,-9.6763,-9.673,-9.6797,-9.6664,-9.6366,-9.6233,-9.6233,-9.6035,-9.5935,-9.5869,-9.5736,-9.5604,-9.5505,-9.5637,-9.5736,-9.5836,-9.6001,-9.6001,-9.6001,-9.6001,-9.6392,-9.6745,-9.7867,-9.9244,-10.0919,-10.2488,-10.3572,-10.4383,-10.4759,-10.4779,-10.4851,-10.4598,-10.4199,-10.4199,-8.7467,-8.8005,-8.8484,-8.8783,-8.8993,-8.9471,-8.9741,-8.995,-9.0459,-9.0638,-9.0638,-9.0638,-9.0638,-9.0638,-9.0638,-9.0638,-9.0638,-9.0638,-9.0638,-9.0638,-9.0638,-9.0638,-9.0668,-9.0968,-9.1357,-9.1686,-9.2194,-9.2943,-9.381,-9.402,-9.4139,-9.4558,-9.4618,-9.4618,-9.4618,-9.4618,-9.4618,-9.4618,-9.4618,-9.4618,-9.4618,-9.4618,-9.4588,-9.4588,-9.4319,-9.4289,-9.4229,-9.4199,-9.408,-9.411,-9.3571,-9.3152,-9.2643,-9.2643,-9.2613,-9.2613,-9.2763,-9.3002,-9.3242,-9.3361,-9.3361,-9.3332,-9.3272,-9.3002,-9.2982,-9.3561,-9.443,-9.5647,-9.6892,-9.8148,-9.9447,-10.0202,-10.0838,-10.0242,-9.9645,-9.9314,-9.9016,-9.8618,-9.8188,-9.7956,-9.7724,-9.7592,-9.7525,-9.7426,-9.7327,-9.7128,-9.6962,-9.6763,-9.6333,-9.6134,-9.6167,-9.6068,-9.5935,-9.5902,-9.6001,-9.6001,-9.6001,-9.6001,-9.6001,-9.6001,-9.6001,-9.6262,-9.6617,-9.8147,-9.9513,-10.1064,-10.2384,-10.3572,-10.4288,-10.4702,-10.5105,-10.5177,-10.5358,-10.5105,-10.4996,-8.6898,-8.7287,-8.7646,-8.7975,-8.8334,-8.8963,-8.9382,-8.9771,-9.0369,-9.0638,-9.0638,-9.0638,-9.0638,-9.0638,-9.0638,-9.0638,-9.0638,-9.0638,-9.0638,-9.0638,-9.0638,-9.0638,-9.0728,-9.0878,-9.1297,-9.1626,-9.2374,-9.3122,-9.378,-9.408,-9.4379,-9.4588,-9.4618,-9.4618,-9.4618,-9.4618,-9.4618,-9.4618,-9.4618,-9.4618,-9.4618,-9.4618,-9.4618,-9.4618,-9.4618,-9.4618,-9.4618,-9.4618,-9.4618,-9.4588,-9.4199,-9.399,-9.3661,-9.3601,-9.3571,-9.3571,-9.3631,-9.3631,-9.39,-9.399,-9.399,-9.399,-9.402,-9.375,-9.378,-9.421,-9.4469,-9.5624,-9.6933,-9.8212,-9.9501,-10.0553,-10.0992,-10.0805,-10.0242,-9.9844,-9.9546,-9.9215,-9.8883,-9.8685,-9.8353,-9.7956,-9.789,-9.789,-9.779,-9.7757,-9.7592,-9.7525,-9.7062,-9.6565,-9.6498,-9.6465,-9.6399,-9.6134,-9.6001,-9.6001,-9.6001,-9.6001,-9.6001,-9.6001,-9.6001,-9.6001,-9.6455,-9.8235,-9.9745,-10.0954,-10.214,-10.358,-10.4324,-10.4795,-10.5213,-10.5539,-10.572,-10.6046,-10.6119,-8.6689,-8.6689,-8.6689,-8.7018,-8.7616,-8.8274,-8.8933,-8.9561,-9.0219,-9.0579,-9.0638,-9.0638,-9.0638,-9.0638,-9.0638,-9.0638,-9.0638,-9.0638,-9.0638,-9.0638,-9.0638,-9.0638,-9.0818,-9.1117,-9.1357,-9.1895,-9.2643,-9.3421,-9.4199,-9.4229,-9.4259,-9.4528,-9.4618,-9.4618,-9.4618,-9.4618,-9.4618,-9.4618,-9.4618,-9.4618,-9.4618,-9.4618,-9.4618,-9.4618,-9.4618,-9.4618,-9.4618,-9.4618,-9.4618,-9.4588,-9.4558,-9.4439,-9.4379,-9.4289,-9.4349,-9.4319,-9.4289,-9.4379,-9.4499,-9.4469,-9.4528,-9.4558,-9.4618,-9.4761,-9.4701,-9.5086,-9.5155,-9.611,-9.7436,-9.8393,-9.9707,-10.1001,-10.1446,-10.1302,-10.0739,-10.0275,-10.001,-9.9745,-9.9546,-9.9347,-9.9016,-9.8552,-9.8486,-9.8453,-9.8387,-9.8353,-9.8287,-9.8221,-9.8022,-9.7525,-9.7227,-9.7128,-9.7062,-9.673,-9.6167,-9.6101,-9.6134,-9.6001,-9.6001,-9.6001,-9.6001,-9.6132,-9.6839,-9.8599,-9.9976,-10.1059,-10.2527,-10.41,-10.4576,-10.5157,-10.5757,-10.63,-10.6481,-10.6807,-10.7242,-8.6689,-8.6689,-8.6689,-8.6778,-8.6988,-8.7616,-8.8245,-8.8903,-8.9591,-9.013,-9.0549,-9.0638,-9.0638,-9.0638,-9.0638,-9.0638,-9.0638,-9.0638,-9.0638,-9.0638,-9.0638,-9.0638,-9.0758,-9.1027,-9.1207,-9.1835,-9.2583,-9.3152,-9.408,-9.405,-9.411,-9.4558,-9.4618,-9.4618,-9.4618,-9.4618,-9.4618,-9.4618,-9.4618,-9.4618,-9.4618,-9.4618,-9.4618,-9.4618,-9.4618,-9.4618,-9.4618,-9.4618,-9.4618,-9.4618,-9.4678,-9.4708,-9.4738,-9.4738,-9.4738,-9.4708,-9.4708,-9.4618,-9.4618,-9.4618,-9.4618,-9.4618,-9.4761,-9.5388,-9.5868,-9.6709,-9.7137,-9.8181,-9.9135,-9.9101,-10.0257,-10.2128,-10.2859,-10.1699,-10.0937,-10.0606,-10.0308,-10.0175,-10.0043,-9.9977,-9.9877,-9.9679,-9.9645,-9.9579,-9.9414,-9.9314,-9.9082,-9.8983,-9.8585,-9.8254,-9.7956,-9.7823,-9.7724,-9.6962,-9.63,-9.6333,-9.6333,-9.6167,-9.6167,-9.6432,-9.653,-9.6165,-9.7094,-9.9368,-10.0356,-10.1227,-10.281,-10.4969,-10.5549,-10.6184,-10.6676,-10.7133,-10.7278,-10.7604,-10.8075]}]]